     2              OBSERVATION DATA    GPS                 RINEX VERSION / TYPE
teqc 2000Jul20 Karen Wendt 20030408 21:40:19UTC             PGM / RUN BY / DATE
                                                            COMMENT
L2: 1 -> 1; 150 -> 5; 250 -> 9                              COMMENT
L2: 1 -> 1; 150 -> 5; 250 -> 9                              COMMENT
L2: 1 -> 1; 150 -> 5; 250 -> 9                              COMMENT
L2: 1 -> 1; 150 -> 5; 250 -> 9                              COMMENT
L2: 1 -> 1; 150 -> 5; 250 -> 9                              COMMENT
L2: 1 -> 1; 150 -> 5; 250 -> 9                              COMMENT
L2: 1 -> 1; 150 -> 5; 250 -> 9                              COMMENT
L2: 1 -> 1; 150 -> 5; 250 -> 9                              COMMENT
L2: 1 -> 1; 150 -> 5; 250 -> 9                              COMMENT
L2: 1 -> 1; 150 -> 5; 250 -> 9                              COMMENT
L2: 1 -> 1; 150 -> 5; 250 -> 9                              COMMENT
L2: 1 -> 1; 150 -> 5; 250 -> 9                              COMMENT
L2: 1 -> 1; 150 -> 5; 250 -> 9                              COMMENT
L2: 1 -> 1; 150 -> 5; 250 -> 9                              COMMENT
Original Marker Name: twr2 Twissel_Rm2_DWR                  COMMENT
Campaign Name: USGS 2003                                    COMMENT
4-Character Station Name: TWR2                              COMMENT
6-Character Antenna Code: DMRCHT                            COMMENT
Vertical Measurement Point: BCR                             COMMENT
Vertical Offset to Rinex Ref. Point: 0.0348                 COMMENT
Radial Measurement Point: ECF                               COMMENT
Radial Offset to Rinex Ref. Point: 0.1897                   COMMENT
Antenna Height from Field Measurement: 1.3100 m             COMMENT
Additional Antenna Identification Info.:                    COMMENT
Turborogue and Ashtech Choke Ring                           COMMENT
Original XYZ: -2601369.4516 -4502468.2155 3682583.9739      COMMENT
New XYZ position is based on association with SCEC monument COMMENT
E1F1C5E7+0031. Position of that monument is believed to be  COMMENT
valid to within 1 m horizontally; vertical accuracy         COMMENT
should be no worse than 3-times this value.                 COMMENT
                                                            COMMENT
Revised Rinex header created by UCSD GPS archive for        COMMENT
GSAC on 11-Jul-2003 (2003:192) 16:16:08 GMT                 COMMENT
For assistance contact dagnew@ucsd.edu                      COMMENT
or anderson@python.ucsd.edu                                 COMMENT
                                                            COMMENT
TWISSEL RM2                                                 MARKER NAME
CHS US GEOLOGICAL SURVEY                                    OBSERVER / AGENCY
LP00108.707 ASHTECH Z-XII3 CD00                             REC # / TYPE / VERS
CR620022602 DORNE-MARGOL. TYPE T                            ANT # / TYPE
 -2601384.6240 -4502436.8153  3682565.9854                  APPROX POSITION XYZ
        1.2614        0.0000        0.0000                  ANTENNA: DELTA H/E/N
     1     1     0                                          WAVELENGTH FACT L1/2
     5    C1    L1    L2    P1    P2                        # / TYPES OF OBSERV
    30                                                      INTERVAL
  2003     3    29     0     1    0.000000                  TIME OF FIRST OBS
  2003     3    29    23    59   30.000000                  TIME OF LAST OBS
                                                            END OF HEADER
 03  3 29  0  1  0.0000000  0  9G14G26G17G 6G15G16G 3G23G18
  23110414.525    -4899793.67449  -3788613.96745  23110413.964    23110425.790
  23696190.889    -3221942.64249  -2494414.50645  23696190.648    23696201.680
  21154164.232   -22304611.89449 -17369101.15547  21154163.637    21154173.546
  24208051.892    -2774857.77249  -2153516.58645  24208051.815    24208067.672
  20346860.138   -20532013.20749 -15980502.62647  20346859.442    20346868.463
  24412353.298    -3221180.09448  -2494478.01944  24412353.099    24412368.073
  22456883.044   -12273424.61149  -9553020.68446  22456882.894    22456893.885
  21067858.237   -16745478.81049 -13036333.11647  21067857.676    21067866.498
  20451017.946   -26352746.81049 -20511116.01147  20451017.545    20451024.958
 03  3 29  0  1 30.0000000  0  9G14G26G17G 6G15G16G 3G23G18
  23090013.944    -5006997.71149  -3872149.31245  23090013.407    23090025.218
  23715127.128    -3122433.13649  -2416874.70945  23715126.789    23715137.845
  21160309.349   -22272318.64649 -17343937.58747  21160308.823    21160318.747
  24229206.054    -2663693.48149  -2066895.37945  24229205.740    24229221.651
  20343421.127   -20550085.18649 -15994584.66047  20343420.403    20343429.375
  24424980.999    -3154821.85348  -2442770.48044  24424980.926    24424995.560
  22444757.616   -12337143.75649  -9602671.87846  22444757.438    22444768.462
  21074927.432   -16708329.15549 -13007385.32747  21074926.902    21074935.858
  20454184.039   -26336108.96849 -20498151.44847  20454183.633    20454191.127
 03  3 29  0  2  0.0000000  0  9G14G26G17G 6G15G16G 3G23G18
  23069648.298    -5114017.30949  -3955540.94145  23069647.856    23069659.946
  23734123.575    -3022606.45249  -2339087.76745  23734123.168    23734134.343
  21166508.404   -22239743.03149 -17318553.99847  21166507.851    21166517.781
  24250374.929    -2552450.27149  -1980212.66545  24250374.734    24250390.782
  20340036.211   -20567872.37649 -16008444.77847  20340035.516    20340044.493
  24437641.952    -3088288.98348  -2390926.87444  24437642.242    24437656.310
  22432715.889   -12400423.45349  -9651980.65946  22432715.704    22432726.727
  21082037.023   -16670968.44549 -12978273.09447  21082036.470    21082045.354
  20457410.344   -26319154.44849 -20484940.13147  20457409.950    20457417.477
 03  3 29  0  2 30.0000000  0  9G14G26G17G 6G15G16G 3G23G18
  23049318.614    -5220849.06849  -4038786.21645  23049318.220    23049330.487
  23753179.747    -2922464.69249  -2261055.33145  23753179.396    23753190.897
  21172761.533   -22206883.69449 -17292949.32347  21172760.862    21172770.789
  24271558.527    -2441129.66149  -1893469.64545  24271558.360    24271575.068
  20336705.948   -20585372.97749 -16022081.59047  20336705.272    20336714.204
  24450335.613    -3021583.66648  -2338948.91944  24450336.172    24450350.054
  22420758.205   -12463260.80549  -9700944.75446  22420758.003    22420769.116
  21089186.488   -16633397.54149 -12948997.06547  21089185.960    21089194.872
  20460696.788   -26301883.98149 -20471482.61947  20460696.394    20460703.846
 03  3 29  0  3  0.0000000  0  9G14G26G17G 6G15G16G 3G23G18
  23029025.333    -5327490.05649  -4121882.83245  23029024.948    23029037.486
  23772295.157    -2822010.87049  -2182779.70945  23772294.874    23772306.634
  21179068.588   -22173739.71049 -17267122.84547  21179067.927    21179077.906
  24292756.544    -2329734.04949  -1806668.17845  24292756.414    24292773.731
  20333430.459   -20602585.88449 -16035494.22047  20333429.720    20333438.691
  24463061.683    -2954708.69848  -2286838.77644  24463061.726    24463076.346
  22408885.183   -12525653.51649  -9749562.37446  22408884.932    22408896.072
  21096375.751   -16595617.86349 -12919558.36147  21096375.223    21096384.143
  20464043.254   -26284298.63849 -20457779.75847  20464042.848    20464050.324
 03  3 29  0  3 30.0000000  0  9G14G26G17G 6G15G16G 3G23G18
  23008768.851    -5433938.22449  -4204829.19345  23008768.421    23008780.974
  23791469.326    -2721248.63649  -2104263.74445  23791469.089    23791481.341
  21185429.768   -22140310.91049 -17241074.43747  21185429.193    21185439.250
  24313968.529    -2218266.36549  -1719810.54345  24313968.429    24313985.933
  20330209.762   -20619510.32949 -16048682.07447  20330209.079    20330218.096
  24475819.351    -2887667.84248  -2234599.32944  24475819.362    24475834.330
  22397097.100   -12587600.37749  -9797832.57746  22397096.872    22397107.934
  21103604.271   -16557631.57749 -12889958.65447  21103603.729    21103612.662
  20467449.094   -26266400.64149 -20443833.26447  20467448.660    20467456.202
 03  3 29  0  4  0.0000000  0  9G14G26G17G 6G15G16G 3G23G18
  22988549.472    -5540191.08949  -4287623.36545  22988549.019    22988561.569
  23810701.812    -2620181.13749  -2025509.90145  23810701.514    23810713.933
  21191845.214   -22106597.58749 -17214804.33347  21191844.611    21191854.716
  24335193.563    -2106729.36349  -1632898.89845  24335193.325    24335211.197
  20327044.213   -20636145.55749 -16061644.56847  20327043.520    20327052.472
  24488607.857    -2820464.01848  -2182232.91844  24488608.009    24488623.157
  22385394.276   -12649099.35749  -9845753.77846  22385393.994    22385405.084
  21110871.832   -16519440.50349 -12860199.38147  21110871.288    21110880.179
  20470914.144   -26248191.38649 -20429644.23347  20470913.741    20470921.273
 03  3 29  0  4 30.0000000  0  9G14G26G17G 6G15G16G 3G23G18
  22968367.734    -5646245.94449  -4370263.23845  22968367.271    22968379.710
  23829991.810    -2518812.10949  -1946521.11945  23829991.510    23830004.295
  21198314.931   -22072599.10149 -17188312.01947  21198314.292    21198324.422
  24356431.132    -1995125.73349  -1545935.33844  24356430.913    24356448.893
  20323933.839   -20652490.70749 -16074381.02747  20323933.124    20323942.061
  24501426.761    -2753100.87749  -2129742.37644  24501426.615    24501441.759
  22373776.834   -12710148.90849  -9893324.78646  22373776.547    22373787.677
  21118178.040   -16481046.37949 -12830281.87747  21118177.420    21118186.299
  20474438.291   -26229672.20149 -20415213.69547  20474437.862    20474445.390
 03  3 29  0  5  0.0000000  0  9G14G26G17G 6G15G16G 3G23G18
  22948224.167    -5752099.64649  -4452746.36445  22948223.766    22948236.013
  23849338.774    -2417143.55449  -1867298.96245  23849338.476    23849351.658
  21204838.966   -22038313.99149 -17161596.35547  21204838.436    21204848.638
  24377681.302    -1883457.14249  -1458921.15744  24377681.062    24377698.956
  20320878.952   -20668543.97649 -16086890.03647  20320878.259    20320887.228
  24514275.788    -2685580.64349  -2077129.43844  24514275.250    24514290.860
  22362245.371   -12770746.25949  -9940543.41546  22362245.130    22362256.254
  21125522.501   -16442450.15749 -12800206.89447  21125521.975    21125530.859
  20478021.189   -26210843.96649 -20400542.34547  20478020.791    20478028.212
 03  3 29  0  5 30.0000000  0  9G14G26G17G 6G15G16G 3G23G18
  22928119.177    -5857749.89949  -4535070.96945  22928118.914    22928130.879
  23868741.972    -2315179.12749  -1787846.24045  23868741.904    23868755.029
  21211417.701   -22003741.91149 -17134657.09147  21211417.241    21211427.438
  24398943.738    -1771726.31949  -1371858.48944  24398943.591    24398961.212
  20317879.873   -20684304.64149 -16099171.05347  20317879.185    20317888.110
  24527153.906    -2617906.59149  -2024396.64444  24527153.604    24527169.293
  22350800.420   -12830889.75249  -9987408.38846  22350800.143    22350811.143
  21132905.340   -16403653.63549 -12769975.84447  21132904.774    21132913.697
  20481662.570   -26191708.14949 -20385631.30647  20481662.171    20481669.651
 03  3 29  0  6  0.0000000  0  9G14G26G17G 6G15G16G 3G23G18
  22908053.614    -5963193.87649  -4617234.83945  22908053.365    22908065.039
  23888200.816    -2212921.78949  -1708165.25445  23888200.933    23888213.972
  21218051.400   -21968882.59949 -17107494.02447  21218050.839    21218060.899
  24420217.597    -1659935.71949  -1284749.24445  24420217.284    24420235.142
  20314936.587   -20699771.74849 -16111223.32647  20314935.863    20314944.762
  24540060.676    -2550081.79548  -1971546.39944  24540060.599    24540076.215
  22339442.276   -12890577.28449 -10033918.06346  22339442.006    22339452.880
  21140325.941   -16364658.38049 -12739589.93847  21140325.347    21140334.251
  20485362.182   -26172266.18249 -20370481.70847  20485361.829    20485369.411
 03  3 29  0  6 30.0000000  0  9G14G26G17G 6G15G16G 3G23G18
  22888027.866    -6068428.74349  -4699235.77245  22888027.609    22888039.113
  23907714.835    -2110374.51249  -1628258.34445  23907714.774    23907728.091
  21224739.864   -21933735.24949 -17080106.50147  21224739.239    21224749.292
  24441502.127    -1548087.65449  -1197595.22044  24441501.470    24441519.761
  20312049.291   -20714943.95749 -16123045.80647  20312048.602    20312057.581
  24552995.381    -2482109.20448  -1918581.00144  24552995.106    24553011.365
  22328171.231   -12949806.61749 -10080070.69746  22328170.999    22328181.824
  21147783.991   -16325465.82949 -12709050.29947  21147783.424    21147792.244
  20489120.004   -26152519.47649 -20355094.66247  20489119.568    20489126.977
 03  3 29  0  7  0.0000000  0  9G14G26G17G 6G15G16G 3G23G18
  22868042.558    -6173451.58749  -4781071.50645  22868042.254    22868053.738
  23927283.459    -2007539.98449  -1548127.61245  23927283.476    23927296.689
  21231483.174   -21898298.49449 -17052493.46647  21231482.620    21231492.785
  24462796.835    -1436184.15449  -1110397.97844  24462796.049    24462814.770
  20309218.499   -20729819.45549 -16134637.08447  20309217.801    20309226.846
  24565957.845    -2413991.29848  -1865502.36744  24565957.512    24565973.855
  22316987.776   -13008575.68149 -10125864.67246  22316987.541    22316998.370
  21155279.309   -16286077.13549 -12678357.80847  21155278.785    21155287.685
  20492935.456   -26132468.73749 -20339470.69647  20492935.026    20492942.445
 03  3 29  0  7 30.0000000  0  9G14G26G17G 6G15G16G 3G23G18
  22848098.062    -6278259.97049  -4862740.14145  22848097.672    22848109.185
  23946906.100    -1904421.55049  -1467775.62545  23946906.282    23946919.353
  21238281.669   -21862572.37849 -17024654.95747  21238281.114    21238291.256
  24484101.444    -1324227.92049  -1023159.64844  24484100.740    24484119.615
  20306444.358   -20744397.64449 -16145996.69247  20306443.682    20306452.726
  24578947.456    -2345731.72848  -1812313.27644  24578946.600    24578963.672
  22305892.346   -13066882.79349 -10171298.68846  22305892.013    22305902.747
  21162811.787   -16246494.21849 -12647513.98547  21162811.240    21162820.128
  20496808.528   -26112115.72949 -20323611.20147  20496808.115    20496815.511
 03  3 29  0  8  0.0000000  0  9G14G26G17G 6G15G16G 3G23G18
  22828194.896    -6382850.72049  -4944239.18645  22828194.490    22828206.111
  23966582.118    -1801021.97049  -1387204.57045  23966582.490    23966595.441
  21245135.475   -21826556.24749 -16996590.46147  21245134.849    21245144.851
  24505415.788    -1212221.06549   -935881.88544  24505415.083    24505433.551
  20303727.054   -20758677.12749 -16157123.53947  20303726.343    20303735.375
  24591963.740    -2277332.97348  -1759015.72744  24591963.405    24591979.553
  22294885.107   -13124725.40649 -10216370.74846  22294884.803    22294895.546
  21170381.076   -16206718.08949 -12616519.60947  21170380.441    21170389.237
  20500738.961   -26091461.23949 -20307516.78447  20500738.554    20500745.952
 03  3 29  0  8 30.0000000  0  9G14G26G17G 6G15G16G 3G23G18
  22808333.597    -6487221.53549  -5025566.86545  22808333.190    22808344.976
  23986311.047    -1697344.57049  -1306417.02345  23986311.612    23986324.457
  21252044.444   -21790249.24349 -16968299.30247  21252043.836    21252053.791
  24526739.409    -1100166.42449   -848566.89244  24526738.741    24526757.249
  20301066.697   -20772657.12949 -16168017.02447  20301066.024    20301074.986
  24605006.046    -2208798.16648  -1705612.15844  24605005.718    24605022.055
  22283966.442   -13182102.05449 -10261079.72946  22283966.221    22283977.097
  21177986.566   -16166750.59749 -12585376.12047  21177985.985    21177994.723
  20504726.399   -26070506.99549 -20291188.79147  20504725.994    20504733.435
 03  3 29  0  9  0.0000000  0  8G14G26G17G15G16G 3G23G18
  22788514.862    -6591368.40449  -5106720.04045  22788514.460    22788526.238
  24006092.510    -1593391.15849  -1225414.39845  24006093.237    24006106.134
  21259008.964   -21753649.67449 -16939780.16547  21259008.445    21259018.439
  20298463.891   -20786335.15149 -16178675.20447  20298463.216    20298472.113
  24618073.711    -2140128.96648  -1652103.91644  24618073.793    24618089.259
  22273137.171   -13239009.80049 -10305423.32746  22273136.968    22273147.883
  21185628.359   -16126592.09349 -12554083.77647  21185627.835    21185636.686
  20508770.873   -26049253.18949 -20274627.37547  20508770.454    20508777.877
 03  3 29  0  9 30.0000000  0  8G14G26G17G15G16G 3G23G18
  22768739.636    -6695286.63049  -5187695.04045  22768739.260    22768751.023
  24025926.319    -1489162.74349  -1144197.50645  24025927.286    24025940.289
  21266029.876   -21716755.19549 -16911031.23847  21266029.304    21266039.225
  20295919.191   -20799707.87349 -16189095.48347  20295918.468    20295927.379
  24631166.394    -2071326.62848  -1598491.98844  24631166.329    24631181.844
  22262398.067   -13295444.31749 -10349398.18546  22262397.793    22262408.637
  21193306.715   -16086241.92349 -12522642.08047  21193306.189    21193315.140
  20512872.429   -26027699.10549 -20257831.97947  20512872.034    20512879.472
 03  3 29  0 10  0.0000000  0  8G14G26G17G15G16G 3G23G18
  22749007.543    -6798978.81249  -5268493.91145  22749007.081    22749018.816
  24045811.112    -1384667.54049  -1062772.70245  24045811.932    24045825.375
  21273106.075   -21679570.75249 -16882056.36047  21273105.376    21273115.178
  20293431.641   -20812779.39849 -16199281.04947  20293430.980    20293439.943
  24644282.703    -2002399.50948  -1544782.84044  24644283.128    24644298.885
  22251748.328   -13351409.17749 -10393007.07346  22251748.006    22251758.649
  21201020.302   -16045706.88449 -12491056.33947  21201019.759    21201028.715
  20517030.012   -26005851.15149 -20240807.58347  20517029.586    20517037.102
 03  3 29  0 10 30.0000000  0  8G14G26G17G15G16G 3G23G18
  22729318.939    -6902442.54549  -5349114.75645  22729318.390    22729330.043
  24065746.018    -1279909.00049   -981142.70045  24065746.611    24065760.771
  21280237.362   -21642095.74049 -16852855.06347  21280236.659    21280246.397
  20291001.721   -20825549.05649 -16209231.39847  20291001.062    20291010.022
  24657422.336    -1933350.79448  -1490978.89844  24657422.193    24657438.631
  22241188.188   -13406902.87749 -10436248.82946  22241187.886    22241198.417
  21208768.669   -16004988.85149 -12459327.99547  21208768.116    21208777.075
  20521243.097   -25983710.91649 -20223555.43547  20521242.669    20521250.226
 03  3 29  0 11  0.0000000  0  8G14G26G17G15G16G 3G23G18
  22709674.631    -7005672.70849  -5429553.61345  22709674.081    22709685.739
  24085731.073    -1174887.72049   -899307.96545  24085731.534    24085745.908
  21287424.344   -21604327.62349 -16823425.36947  21287423.713    21287433.473
  20288629.923   -20838013.35349 -16218943.80547  20288629.254    20288638.180
  24670584.795    -1864181.23148  -1437080.78744  24670584.700    24670601.498
  22230718.522   -13461921.16449 -10479120.13646  22230718.204    22230728.679
  21216551.960   -15964086.77149 -12427456.23547  21216551.487    21216560.455
  20525512.079   -25961277.19849 -20206074.60547  20525511.674    20525519.179
 03  3 29  0 11 30.0000000  0  8G14G26G17G15G16G 3G23G18
  22690075.072    -7108667.55549  -5509809.10845  22690074.519    22690086.229
  24105765.569    -1069607.64649   -817271.57045  24105765.825    24105780.462
  21294667.189   -21566266.44349 -16793767.31947  21294666.529    21294676.348
  20286316.188   -20850171.88249 -16228417.95047  20286315.476    20286324.420
  24683769.674    -1794894.27448  -1383091.17544  24683769.323
  22220339.488   -13516462.87149 -10521620.08046  22220339.199    22220349.619
  21224370.076   -15923002.95149 -12395442.87247  21224369.564    21224378.474
  20529836.436   -25938552.46749 -20188367.00847  20529836.030    20529843.508
 03  3 29  0 12  0.0000000  0  7G14G26G17G15G 3G23G18
  22670522.167    -7211417.05849  -5589873.43545  22670521.715    22670533.382
  24125850.233     -964064.42149   -735030.11345  24125850.251    24125864.861
  21301967.451   -21527903.95749 -16763874.48947  21301966.735    21301976.534
  20284062.171   -20862016.05649 -16237647.13947  20284061.517    20284070.391
  22210052.963   -13570518.83049 -10563741.51346  22210052.700    22210062.972
  21232223.802   -15881731.50449 -12363283.28547  21232223.248    21232232.225
  20534217.308   -25915530.72949 -20170427.97747  20534216.907    20534224.362
 03  3 29  0 12 30.0000000  0  7G14G26G17G15G 3G23G18
  22651014.981    -7313926.78949  -5669750.92546  22651014.590    22651026.154
  24145982.835     -858269.56149   -652592.57045  24145982.763    24145997.204
  21309323.506   -21489248.17749 -16733753.11647  21309322.763    21309332.474
  20281866.706   -20873553.36349 -16246637.21747  20281866.056    20281874.802
  22199857.609   -13624095.74249 -10605489.66346  22199857.329    22199867.560
  21240111.253   -15840282.45249 -12330985.31747  21240110.717    21240119.673
  20538652.894   -25892221.53949 -20152264.95547  20538652.457    20538659.929
 03  3 29  0 13  0.0000000  0  7G14G26G17G15G 3G23G18
  22631553.794    -7416195.30649  -5749440.46646  22631553.452    22631564.859
  24166162.396     -752227.19749   -569962.17745  24166162.154    24166176.395
  21316735.087   -21450299.88749 -16703403.81247  21316734.382    21316744.026
  20279729.694   -20884783.80249 -16255388.18147  20279728.996    20279737.724
  22189753.543   -13677192.73249 -10646863.86346  22189753.224    22189763.554
  21248032.009   -15798658.43849 -12298551.01347  21248031.494    21248040.445
  20543142.676   -25868627.21849 -20133879.75047  20543142.279    20543149.733
 03  3 29  0 13 30.0000000  0  7G14G26G17G15G 3G23G18
  22612139.362    -7518218.22849  -5828938.62946  22612138.992    22612150.318
  24186388.589     -645938.59449   -487139.89645  24186388.381    24186402.458
  21324202.741   -21411056.69549 -16672824.71847  21324202.072    21324211.733
  20277651.538   -20895704.46449 -16263897.75447  20277650.835    20277659.635
  22179741.334   -13729806.50749 -10687861.53846  22179741.025    22179751.523
  21255986.209   -15756858.94249 -12265979.96647  21255985.647    21255994.720
  20547686.848   -25844747.46949 -20115272.14247  20547686.453    20547693.854
 03  3 29  0 14  0.0000000  0  8G14G26G17G 9G15G 3G23G18
  22592772.287    -7619991.77649  -5908242.48246  22592771.970    22592783.229
  24206661.215     -539405.75849   -404127.25645  24206660.977    24206674.862
  21331726.734   -21371517.17249 -16642014.71347  21331726.133    21331735.925
                   -258517.41549   -192674.39943                  24208221.546
  20275632.696   -20906313.31049 -16272164.35247  20275631.992    20275640.825
  22169821.625   -13781934.14349 -10728480.40446  22169821.332    22169831.980
  21263973.593   -15714884.61249 -12233272.68647  21263973.028    21263982.209
  20552285.215   -25820582.92549 -20096442.60847  20552284.789    20552292.215
 03  3 29  0 14 30.0000000  0  8G14G26G17G 9G15G 3G23G18
  22573453.074    -7721514.08949  -5987350.56846  22573452.704    22573463.915
  24226979.695     -432632.24449   -320927.11345  24226979.561    24226992.709
  21339307.195   -21331681.33849 -16610973.82447  21339306.645    21339316.600
  24196991.165     -317455.20449   -238599.72645  24196990.342    24197005.721
  20273673.273   -20916609.78049 -16280187.54047  20273672.559    20273681.452
  22159994.710   -13833574.55349 -10768719.60546  22159994.415    22160005.105
  21271993.982   -15672737.41549 -12200430.71147  21271993.415    21272002.481
  20556937.441   -25796135.31849 -20077392.50647  20556937.039    20556944.417
 03  3 29  0 15  0.0000000  0  8G14G26G17G 9G15G 3G23G18
  22554182.204    -7822782.90049  -6066261.12346  22554181.825    22554192.906
  24247343.035     -325621.70649   -237542.24844  24247342.955    24247355.800
  21346944.121   -21291549.13349 -16579702.00547  21346943.559    21346953.596
  24185834.994     -376080.88849   -284281.85445  24185833.956    24185849.424
  20271773.346   -20926593.06049 -16287966.69147  20271772.704    20271781.664
  22150260.728   -13884726.44149 -10808578.14646  22150260.454    22150271.124
  21280046.921   -15630419.29749 -12167455.55647  21280046.301    21280055.307
  20561643.210   -25771406.26149 -20058123.09947  20561642.791    20561650.174
 03  3 29  0 15 30.0000000  0  8G14G26G17G 9G15G 3G23G18
  22534960.403    -7923793.96349  -6144970.83446  22534959.922    22534970.951
  24267751.036     -218375.56949   -153973.84344  24267751.165    24267763.605
  21354637.785   -21251118.56549 -16548197.68946  21354637.232    21354647.202
  24174738.858     -434389.95449   -329717.23045  24174737.758    24174753.521
  20269933.776   -20936260.47849 -16295499.72147  20269933.077    20269942.061
  22140620.320   -13935386.44149 -10848053.38846  22140620.078    22140630.712
  21288132.256   -15587930.19149 -12134347.15747  21288131.703    21288140.722
  20566402.595   -25746395.52849 -20038634.20747  20566402.156    20566409.537
 03  3 29  0 16  0.0000000  0  9G14G26G17G 9G31G15G 3G23G18
  22515788.112    -8024544.48349  -6223477.53246  22515787.615    22515798.570
  24288203.291     -110896.72949    -70224.10244  24288203.387    24288215.743
  21362388.358   -21210388.86549 -16516460.29046  21362387.807    21362397.774
  24163703.540     -492379.20149   -374903.41845  24163702.537    24163718.652
                   -259911.60749   -190829.02343
  20268154.496   -20945610.70249 -16302785.58447  20268153.769    20268162.742
  22131073.925   -13985552.62749 -10887143.83846  22131073.737    22131084.244
  21296249.992   -15545271.22149 -12101106.40547  21296249.473    21296258.442
  20571215.314   -25721104.37749 -20018926.80547  20571214.884    20571222.345
 03  3 29  0 16 30.0000000  0  9G14G26G17G 9G31G15G 3G23G18
  22496665.753    -8125032.28749  -6301779.51746  22496665.283    22496676.158
  24308699.204       -3188.38249     13704.48944  24308699.378    24308711.450
  21370195.966   -21169359.57549 -16484489.43946  21370195.392    21370205.346
  24152729.930     -550045.86049   -419838.27045  24152729.033    24152744.894
                   -348721.26749   -260031.04943
  20266435.615   -20954643.09949 -16309823.79647  20266434.959    20266443.857
  22121621.909   -14035223.65849 -10925848.44546  22121621.700    22121632.040
  21304399.769   -15502444.24249 -12067734.72947  21304399.221    21304408.142
  20576081.077   -25695534.39749 -19999002.14047  20576080.706    20576088.129
 03  3 29  0 17  0.0000000  0  8G14G26G17G 9G15G 3G23G18
  22477593.898    -8225254.65349  -6379874.67546  22477593.466    22477604.178
  24329238.227      104746.30949     97809.44544  24329238.558    24329250.355
  21378060.498   -21128031.01349 -16452285.37846  21378059.927    21378070.011
  24141818.319     -607387.00949   -464519.46145  24141817.348    24141832.829
  20264777.618   -20963356.48449 -16316613.43247  20264776.897    20264785.615
  22112264.301   -14084397.93249 -10964165.98046  22112264.068    22112274.409
  21312581.173   -15459450.73249 -12034233.29647  21312580.578    21312589.505
  20580999.665   -25669687.09849 -19978861.38447  20580999.251    20581006.657
 03  3 29  0 17 30.0000000  0  8G14G26G17G 9G15G 3G23G18
  22458573.148    -8325208.85349  -6457760.87146  22458572.704    22458583.336
  24349819.961      212904.15349    182088.29044  24349820.390    24349832.052
  21385982.128   -21086402.18649 -16419847.34846  21385981.593    21385991.799
  24130969.163     -664399.76149   -508944.76145  24130968.119    24130983.350
  20263180.394   -20971749.98349 -16323153.80647  20263179.663    20263188.332
  22103001.477   -14133073.83049 -11002095.18446  22103001.261    22103011.617
  21320793.838   -15416292.16649 -12000603.24147  21320793.312    21320802.308
  20585970.731   -25643563.71249 -19958505.48847  20585970.339    20585977.812
 03  3 29  0 18  0.0000000  0  8G14G26G17G 9G15G 3G23G18
  22439603.776    -8424893.32349  -6535436.89346  22439603.256    22439613.832
  24370443.622      321281.43749    266538.08945  24370444.172    24370455.674
  21393960.752   -21044473.65949 -16387175.78446  21393960.290    21393970.577
  24120182.715     -721081.95249   -553112.49945  24120181.995    24120196.612
  20261643.963   -20979823.18749 -16329444.58547  20261643.247    20261652.064
  22093833.733   -14181250.65249 -11039635.50846  22093833.468    22093843.823
  21329037.621   -15372970.77049 -11966846.30647  21329037.105    21329046.105
  20590993.977   -25617166.43249 -19937936.17747  20590993.572    20591001.014
 03  3 29  0 18 30.0000000  0  8G14G26G17G 9G15G 3G23G18
  22420686.326    -8524305.04949  -6612900.37346  22420685.782    22420696.221
  24391108.542      429875.62949    351156.91145  24391109.046    24391120.830
  21401996.655   -21002244.63549 -16354270.07246  21401996.236    21402006.486
  24109459.766     -777430.10849   -597019.95345  24109459.349    24109473.327
  20260168.901   -20987574.39749 -16335484.47047  20260168.187    20260177.042
  22084761.350   -14228926.39149 -11076785.36646  22084761.028    22084771.341
  21337312.234   -15329487.49649 -11932963.23247  21337311.667    21337320.659
  20596069.125   -25590496.23149 -19917154.19847  20596068.718    20596076.109
 03  3 29  0 19  0.0000000  0  9G14G26G17G 9G31G15G 3G23G18
  22401821.419    -8623440.63649  -6690148.67746  22401820.892    22401831.139
  24411814.308      538684.48049    435943.02345  24411814.942    24411826.808
  21410090.077   -20959713.63549 -16321129.04746  21410089.643    21410099.843
  24098801.105     -833440.30849   -640664.03544  24098800.718    24098814.248
                   -556915.03349   -423946.82845                  23987134.264
  20258755.629   -20995001.75849 -16341272.00847  20258754.886    20258763.688
  22075784.718   -14276098.57049 -11113542.84646  22075784.413    22075794.646
  21345617.519   -15285842.92949 -11898954.47547  21345616.967    21345625.991
  20601196.121   -25563553.61949 -19896159.94347  20601195.739    20601203.152
 03  3 29  0 19 30.0000000  0  8G14G17G 9G31G15G 3G23G18
  22383009.259    -8722298.82449  -6767180.83746  22383008.776    22383018.849
  21418240.781   -20916881.63349 -16287753.47746  21418240.281    21418250.525
  24088207.052     -889111.07149   -684043.64644  24088206.622    24088220.350
  23970594.675     -643770.01749   -491625.87145  23970593.254    23970605.817
  20257403.813   -21002105.86149 -16346807.64847  20257403.052    20257411.792
  22066903.900   -14322766.89749 -11149907.71546  22066903.660    22066913.770
  21353953.028   -15242039.83049 -11864822.18647  21353952.456    21353961.491
  20606374.480   -25536341.08349 -19874955.36247  20606374.114    20606381.578
 03  3 29  0 20  0.0000000  0  8G14G17G 9G31G15G 3G23G18
  22364250.397    -8820876.12749  -6843994.12746  22364249.952    22364259.971
  21426448.879   -20873747.39249 -16254142.39146  21426448.409    21426458.724
  24077678.207     -944438.47549   -727155.66144  24077677.902    24077691.957
  23954129.585     -730290.02649   -559043.89745  23954127.992    23954141.359
  20256113.795   -21008884.48049 -16352089.66147  20256113.065    20256121.849
  22058119.524   -14368928.77349 -11185877.94946  22058119.312    22058129.367
  21362318.481   -15198078.77149 -11830566.81447  21362317.925    21362326.862
  20611604.079   -25508859.29949 -19853540.97347  20611603.694    20611611.116
 03  3 29  0 20 30.0000000  0  8G14G17G 9G31G15G 3G23G18
  22345545.328    -8919170.35949  -6920586.84546  22345544.902    22345554.987
  21434714.449   -20830310.66649 -16220295.61446  21434714.057    21434724.486
  24067215.171     -999420.10749   -769998.26744  24067214.894    24067229.782
  23937728.971     -816472.91449   -626199.25845  23937728.016    23937741.429
  20254885.856   -21015337.05749 -16357117.62047  20254885.165    20254893.959
  22049431.759   -14414583.32249 -11221452.87246  22049431.476    22049441.517
  21370713.713   -15153961.64749 -11796189.84347  21370713.153    21370722.017
  20616884.558   -25481110.04949 -19831918.17447  20616884.178    20616891.604
 03  3 29  0 21  0.0000000  0  8G14G17G 9G31G15G 3G23G18
  22326894.827    -9017178.11149  -6996956.34146  22326894.423    22326904.546
  21443037.910   -20786570.78449 -16186212.60746  21443037.524    21443047.933
  24056819.024    -1054051.74449   -812568.15644  24056818.661    24056833.516
  23921393.642     -902315.11149   -693089.15545  23921392.744    23921406.387
  20253720.486   -21021461.46149 -16361889.85647  20253719.752    20253728.506
  22040840.923   -14459727.94449 -11256630.44346  22040840.624    22040850.744
  21379138.651   -15109688.61649 -11761691.37947  21379138.110    21379146.943
  20622215.979   -25453093.56349 -19810087.14047  20622215.567    20622222.966
 03  3 29  0 21 30.0000000  0  8G14G17G 9G31G15G 3G23G18
  22308299.396    -9114896.57949  -7073100.42446  22308299.057    22308309.105
  21451419.434   -20742526.70949 -16151892.58246  21451418.941    21451429.279
  24046490.267    -1108330.58749   -854863.15744  24046489.712    24046504.188
  23905123.770     -987814.24749   -759711.71845  23905123.037    23905136.385
  20252617.708   -21027256.58049 -16366405.50647  20252616.945    20252625.669
  22032347.370   -14504361.27249 -11291409.61946  22032347.083    22032357.333
  21387592.962   -15065261.40149 -11727072.78147  21387592.338    21387601.128
  20627597.862   -25424811.15749 -19788048.88747  20627597.451    20627604.982
 03  3 29  0 22  0.0000000  0  8G14G17G 9G31G15G 3G23G18
  22289759.312    -9212324.51349  -7149018.11546  22289758.931    22289768.940
  21459858.570   -20698179.49949 -16117336.34946  21459857.999    21459868.244
  24036229.083    -1162254.94849   -896881.92844  24036228.495    24036242.149
  23888919.495    -1072968.78149   -826065.75745  23888918.975    23888931.445
  20251577.447   -21032722.49249 -16370664.63147  20251576.715    20251585.406
  22023951.331   -14548482.87449 -11325790.03046  22023951.046    22023961.242
  21396075.816   -15020682.56849 -11692336.02947  21396075.315    21396084.219
  20633029.989   -25396265.50649 -19765805.52247  20633029.591    20633037.049
 03  3 29  0 22 30.0000000  0  8G14G17G 9G31G15G 3G23G18
  22271275.235    -9309458.46249  -7224706.71046  22271274.837    22271284.770
  21468355.498   -20653527.75049 -16082542.80346  21468354.917    21468365.210
  24026035.801    -1215820.68449   -938621.26144  24026035.372    24026048.283
  23872781.260    -1157775.26849   -892148.57445  23872780.579    23872792.880
  20250600.377   -21037856.99349 -16374665.52147  20250599.642    20250608.276
  22015653.161   -14592090.06349 -11359769.59446  22015652.881    22015662.989
  21404587.831   -14975952.23649 -11657481.23447  21404587.282    21404596.152
  20638512.115   -25367456.77849 -19743357.15947  20638511.696    20638519.068
 03  3 29  0 23  0.0000000  0  8G14G17G 9G31G15G 3G23G18
  22252847.708    -9406295.09449  -7300163.64946  22252847.345    22252857.237
  21476910.573   -20608569.96949 -16047510.78846  21476910.044    21476920.367
  24015910.927    -1269024.33048   -980078.47744  24015910.851    24015923.633
  23856709.697    -1242230.36149   -957957.60345  23856709.134    23856721.291
  20249686.784   -21042658.27749 -16378406.76847  20249686.014    20249694.630
  22007453.256   -14635180.76149 -11393346.70146  22007452.947    22007462.932
  21413128.508   -14931070.99649 -11622508.85047  21413127.900    21413136.743
  20644044.140   -25338385.49949 -19720704.21947  20644043.786    20644051.085
 03  3 29  0 23 30.0000000  0  8G14G17G 9G31G15G 3G23G18
  22234477.304    -9502831.55049  -7375386.68846  22234476.942    22234486.807
  21485524.154   -20563305.77349 -16012240.01146  21485523.581    21485533.874
  24005855.539    -1321862.78349  -1021251.08344  24005855.722    24005868.871
  23840705.666    -1326331.38149  -1023490.72345  23840705.044    23840717.359
  20248836.735   -21047125.14949 -16381887.42647  20248835.953    20248844.683
  21999351.856   -14677753.38149 -11426520.10546  21999351.556    21999361.519
  21421697.552   -14886040.14949 -11587419.88447  21421696.968    21421705.875
  20649625.987   -25309052.81449 -19697847.57447  20649625.592    20649632.931
 03  3 29  0 24  0.0000000  0  8G14G17G 9G31G15G 3G23G18
  22216164.189    -9599066.93849  -7450375.13346  22216163.850    22216173.683
  21494195.699   -20517736.57449 -15976731.58146  21494195.118    21494205.462
  23995870.530    -1374334.63749  -1062138.05745  23995870.864    23995883.680
  23824769.344    -1410077.54049  -1088747.32645  23824768.686    23824781.207
  20248050.103   -21051258.14249 -16385107.91547  20248049.377    20248058.277
  21991348.996   -14719808.04049 -11459289.90146  21991348.726    21991358.735
  21430294.527   -14840862.77949 -11552216.73947  21430293.946    21430302.856
  20655256.970   -25279461.79449 -19674789.63547  20655256.603    20655263.902
 03  3 29  0 24 30.0000000  0  8G14G17G 9G31G15G 3G23G18
  22197908.744    -9694999.17049  -7525127.35246  22197908.368    22197918.258
  21502925.271   -20471861.76849 -15940984.99946  21502924.745    21502935.152
  23985955.932    -1426437.34649  -1102737.39245  23985956.068    23985968.944
  23808900.940    -1493466.57549  -1153725.64745  23808900.341    23808912.801
  20247327.211   -21055056.53649 -16388067.68047  20247326.547    20247335.458
  21983444.919   -14761343.96649 -11491655.49246  21983444.678    21983454.727
  21438919.176   -14795540.43049 -11516900.62847  21438918.575    21438927.442
  20660936.828   -25249613.93749 -19651531.55647  20660936.422    20660943.731
 03  3 29  0 25  0.0000000  0  8G14G17G 9G31G15G 3G23G18
  22179711.624    -9790625.04849  -7599640.85646  22179711.256    22179721.069
  21511713.049   -20425680.66349 -15904999.73346  21511712.691    21511723.150
  23976111.985    -1478167.59049  -1143046.50545  23976112.004    23976124.939
  23793100.961    -1576495.42549  -1218423.27645  23793100.300    23793112.801
  20246668.462   -21058518.83749 -16390765.55847  20246667.774    20246676.585
  21975640.051   -14802358.72349 -11523614.97346  21975639.831    21975649.825
  21447571.081   -14750073.91849 -11481472.16947  21447570.526    21447579.480
  20666665.460   -25219509.89749 -19628073.86147  20666665.065    20666672.343
 03  3 29  0 25 30.0000000  0  8G14G17G 9G31G15G 3G23G18
  22161573.454    -9885941.22249  -7673913.03646  22161573.042    22161582.814
  21520559.472   -20379192.24849 -15868775.00846  21520559.137    21520569.513
  23966339.363    -1529521.47049  -1183062.34345  23966339.419    23966352.576
  23777370.074    -1659160.75549  -1282837.66445  23777369.381    23777381.735
  20246074.016   -21061642.94149 -16393199.90347  20246073.245    20246082.069
  21967934.768   -14842850.35849 -11555166.82146  21967934.515    21967944.449
  21456250.537   -14704463.55049 -11445931.62747  21456249.947    21456258.769
  20672442.726   -25189150.35749 -19604417.06347  20672442.266    20672449.625
 03  3 29  0 26  0.0000000  0  8G14G17G 9G31G15G 3G23G18
  22143494.632    -9980945.55549  -7747942.21546  22143494.209    22143503.881
  21529464.483   -20332396.58249 -15832310.87246  21529464.132    21529474.414
  23956638.780    -1580496.51049  -1222782.96345  23956638.895    23956652.281
  23761708.497    -1741460.27449  -1346966.97745  23761707.733    23761720.294
  20245543.865   -21064428.02849 -16395370.07247  20245543.142    20245552.060
  21960329.195   -14882817.68349 -11586310.12246  21960328.891    21960338.777
  21464956.990   -14658710.88049 -11410280.20147  21464956.360    21464965.140
  20678268.189   -25158536.65749 -19580562.21847  20678267.833    20678275.206
 03  3 29  0 26 30.0000000  0  8G14G17G 9G31G15G 3G23G18
  22125475.498   -10075635.55149  -7821726.46746  22125475.162    22125484.766
  21538428.076   -20285293.23349 -15795606.99246  21538427.667    21538437.899
  23947011.032    -1631089.63349  -1262205.99445  23947011.110    23947024.679
  23746117.041    -1823391.54049  -1410809.37245  23746116.476    23746129.033
  20245078.472   -21066873.09649 -16397275.29247  20245077.814    20245086.708
  21952823.592   -14922259.46849 -11617043.91846  21952823.277    21952833.159
  21473690.093   -14612817.26449 -11374518.93347  21473689.614    21473698.470
  20684142.013   -25127670.11549 -19556510.36047  20684141.567    20684148.846
 03  3 29  0 27  0.0000000  0  8G14G17G 9G31G15G 3G23G18
  22107516.756   -10170008.72949  -7895263.84046  22107516.415    22107526.005
  21547450.266   -20237881.77549 -15758663.01846  21547449.821    21547460.017
  23937456.331    -1681298.37749  -1301329.54645  23937456.305    23937470.183
  23730596.252    -1904952.28849  -1474363.04945  23730595.800    23730608.597
  20244678.146   -21068977.23049 -16398914.85947  20244677.441    20244686.182
  21945418.171   -14961174.73249 -11647367.44246  21945417.863    21945427.862
  21482449.984   -14566784.24249 -11338649.05447  21482449.410    21482458.365
  20690063.549   -25096552.28349 -19532262.68347  20690063.097    20690070.370
 03  3 29  0 27 30.0000000  0  8G14G17G 9G31G15G 3G23G18
  22089618.815   -10264062.72549  -7968552.49546  22089618.396    22089627.950
  21556531.015   -20190162.29749 -15721479.03046  21556530.524    21556540.792
  23927975.056    -1731120.24949  -1340151.58345  23927975.208    23927989.305
  23715147.069    -1986140.07049  -1537626.10345  23715146.585    23715159.004
  20244342.890   -21070739.50449 -16400288.04047  20244342.154    20244350.777
  21938113.246   -14999562.02149 -11677279.55646  21938112.980    21938123.047
  21491236.041   -14520613.26049 -11302671.67347  21491235.477    21491244.392
  20696032.595   -25065184.70449 -19507820.39947  20696032.135    20696039.418
 03  3 29  0 28  0.0000000  0  8G14G17G 9G31G15G 3G23G18
  22071781.960   -10357795.96749  -8041591.22046  22071781.494    22071790.969
  21565670.470   -20142135.11649 -15684055.26746  21565669.897    21565680.086
  23918568.059    -1780552.90049  -1378670.33345  23918568.110    23918582.443
  23699769.276    -2066953.23949  -1600597.23245  23699768.711    23699780.599
  20244072.585   -21072159.72849 -16401394.68747  20244071.861    20244080.476
  21930908.867   -15037421.01949 -11706780.01346  21930908.628    21930918.716
  21500048.090   -14474306.41049 -11266588.42847  21500047.457    21500056.104
  20702048.693   -25033569.41249 -19483185.10247  20702048.300    20702055.571
 03  3 29  0 28 30.0000000  0  8G14G17G 9G31G15G 3G23G18
  22054006.514   -10451205.76849  -8114377.91546  22054006.049    22054015.459
  21574868.603   -20093799.52849 -15646391.19346  21574867.920    21574878.053
  23909236.015    -1829593.15949  -1416883.34045  23909235.801    23909250.239
  23684462.699    -2147389.17949  -1663274.45845  23684462.129    23684474.296
  20243867.640   -21073236.57449 -16402233.77447  20243866.943    20243875.554
  21923805.367   -15074749.94749 -11735867.42046  21923805.106    21923815.198
  21508885.567   -14427864.79149 -11230400.15347  21508884.939    21508893.557
  20708111.944   -25001707.56149 -19458357.69047  20708111.463    20708118.677
 03  3 29  0 29  0.0000000  0  8G14G17G 9G31G15G 3G23G18
  22036293.177   -10544288.75849  -8186909.95146  22036292.742    22036302.148
  21584125.437   -20045154.78549 -15608486.22446  21584124.731    21584134.825
  23899979.321    -1878237.74249  -1454788.03545  23899978.969    23899993.381
  23669228.033    -2227444.62749  -1725655.20645  23669227.576    23669240.408
  20243728.359   -21073968.27549 -16402803.91647  20243727.669    20243736.279
  21916802.964   -15111547.05349 -11764540.43046  21916802.744    21916812.856
  21517748.601   -14381288.78249 -11194107.15947  21517748.073    21517756.777
  20714221.764   -24969599.46849 -19433338.38947  20714221.373    20714228.646
 03  3 29  0 29 30.0000000  0  8G14G17G 9G31G15G 3G23G18
  22018642.353   -10637043.67949  -8259186.35646  22018641.892    22018651.329
  21593440.912   -19996201.34149 -15570340.71146  21593440.282    21593450.333
  23890798.331    -1926484.94349  -1492383.05945  23890797.904    23890812.127
  23654066.397    -2307118.18249  -1787738.37245  23654065.971    23654078.894
  20243654.795   -21074354.59049 -16403104.92547  20243654.090    20243662.746
  21909901.883   -15147812.15149 -11792798.88146  21909901.631    21909911.701
  21526637.057   -14334580.75049 -11157711.29647  21526636.440    21526645.103
  20720378.079   -24937247.66849 -19408129.19447  20720377.711    20720385.047
 03  3 29  0 30  0.0000000  0  8G14G17G 9G31G15G 3G23G18
  22001054.604   -10729467.17349  -8331204.50446  22001054.158    22001063.617
  21602815.492   -19946938.03749 -15531953.74646  21602814.902    21602824.874
  23881693.661    -1974331.12549  -1529665.60345  23881693.147    23881707.082
  23638978.539    -2386406.64249  -1849521.43345  23638978.056    23638990.498
  20243647.280   -21074393.77249 -16403135.44447  20243646.605    20243655.369
  21903102.559   -15183542.99349 -11820641.03246  21903102.308    21903112.222
  21535550.271   -14287741.12749 -11121212.88347  21535549.630    21535558.375
  20726580.828   -24904652.42449 -19382730.30647  20726580.377    20726587.714
 03  3 29  0 30 30.0000000  0  8G14G17G 9G31G15G 3G23G18
  21983530.288   -10821557.29749  -8402962.87246  21983529.859    21983539.329
  21612249.059   -19897365.21749 -15493325.60146  21612248.402    21612258.282
  23872665.611    -2021774.08549  -1566633.95045  23872665.028    23872678.886
  23623964.194    -2465307.99449  -1911002.85045  23623963.700    23623975.721
  20243705.957   -21074085.51149 -16402895.23147  20243705.304    20243714.064
  21896405.045   -15218739.19749 -11848066.56546  21896404.754    21896414.542
  21544488.098   -14240771.70249 -11084613.31947  21544487.502    21544496.305
  20732829.458   -24871815.55749 -19357143.14047  20732829.011    20732836.283
 03  3 29  0 31  0.0000000  0  8G14G17G 9G31G15G 3G23G18
  21966070.146   -10913310.10649  -8474458.41046  21966069.777    21966079.242
  21621741.740   -19847481.06449 -15454454.85146  21621741.070    21621750.983
  23863714.762    -2068809.57649  -1603284.78345  23863714.285    23863728.018
  23609023.927    -2543818.42449  -1972179.65345  23609023.394    23609035.299
  20243831.377   -21073427.07749 -16402382.15047  20243830.658    20243839.356
  21889809.598   -15253398.23449 -11875073.54046  21889809.350    21889819.114
  21553450.867   -14193672.26949 -11047912.46347  21553450.267    21553459.016
  20739124.001   -24838736.84049 -19331367.50647  20739123.633    20739130.943
 03  3 29  0 31 30.0000000  0  8G14G17G 9G31G15G 3G23G18
  21948674.728   -11004723.04949  -8545689.12546  21948674.379    21948683.824
  21631293.503   -19797285.46549 -15415341.41946  21631292.898    21631302.941
  23854841.705    -2115434.34349  -1639615.56945  23854841.588    23854854.996
  23594158.536    -2621935.14849  -2033049.69545  23594157.875    23594170.160
  20244023.604   -21072417.09949 -16401595.14347  20244022.845    20244031.479
  21883316.712   -15287518.22149 -11901660.48246  21883316.445    21883326.264
  21562438.180   -14146443.76449 -11011111.02747  21562437.575    21562446.420
  20745464.584   -24805417.30249 -19305404.22947  20745464.184    20745471.490
 03  3 29  0 32  0.0000000  0  8G14G17G 9G31G15G 3G23G18
  21931344.507   -11095793.89949  -8616653.27746  21931344.137    21931353.521
  21640904.636   -19746777.96449 -15375984.94846  21640904.144    21640914.196
  23846047.118    -2161646.14349  -1675624.52945  23846047.286    23846060.815
  23579368.602    -2699655.98049  -2093611.26145  23579367.933    23579380.242
  20244282.777   -21071054.90749 -16400533.67847  20244282.015    20244290.612
  21876926.474   -15321098.52149 -11927826.88546  21876926.220    21876936.054
  21571449.659   -14099087.68149 -10974210.17747  21571449.067    21571458.005
  20751850.731   -24771858.51049 -19279254.51647  20751850.263    20751857.485
 03  3 29  0 32 30.0000000  0  8G14G17G 9G31G15G 3G23G18
  21914079.608   -11186521.28049  -8687349.79146  21914079.229    21914088.576
  21650575.090   -19695959.35949 -15336386.06146  21650574.569    21650584.600
  23837332.010    -2207443.45249  -1711310.56345  23837332.208    23837345.469
  23564654.372    -2776979.70949  -2153863.37545  23564653.700    23564666.039
  20244608.885   -21069340.58849 -16399197.82847  20244608.189    20244616.782
  21870638.973   -15354139.23349 -11953572.83546  21870638.712    21870648.544
  21580484.980   -14051606.40949 -10937211.78147  21580484.382    21580493.319
  20758281.761   -24738062.67749 -19252920.10147  20758281.351    20758288.527
 03  3 29  0 33  0.0000000  0  8G14G17G 9G31G15G 3G23G18
  21896880.404   -11276903.36849  -8757777.25746  21896880.016    21896889.273
  21660304.822   -19644829.92149 -15296544.96546  21660304.233    21660314.143
  23828696.274    -2252824.17849  -1746671.97845  23828696.357    23828709.497
  23550015.760    -2853904.56749  -2213804.68245  23550015.144    23550027.393
  20245002.086   -21067273.82849 -16397587.34247  20245001.417    20245010.043
  21864454.229   -15386639.99749 -11978898.04146  21864453.964    21864463.723
  21589543.985   -14004001.66449 -10900117.18747  21589543.390    21589552.185
  20764757.533   -24704031.90949 -19226402.60747  20764757.158    20764764.439
 03  3 29  0 33 30.0000000  0  8G14G17G 9G31G15G 3G23G18
  21879747.411   -11366937.34149  -8827933.45346  21879747.017    21879756.259
  21670093.833   -19593388.93749 -15256461.10846  21670093.157    21670103.011
  23820140.493    -2297785.01749  -1781706.22445  23820140.480    23820153.319
  23535453.859    -2930427.58849  -2273432.86245  23535453.404    23535465.279
  20245462.756   -21064853.02849 -16395700.98247  20245462.088    20245470.717
  21858372.663   -15418598.91749 -12003801.03747  21858372.394    21858382.062
  21598626.245   -13956273.97149 -10862926.77747  21598625.643    21598634.474
  20771277.989   -24669766.81849 -19199702.53147  20771277.594    20771284.920
 03  3 29  0 34  0.0000000  0  8G14G17G 9G31G15G 3G23G18
  21862681.018   -11456621.54349  -8897817.10446  21862680.631    21862689.800
  21679941.939   -19541636.78349 -15216134.77946  21679941.269    21679951.135
  23811665.183    -2342324.01349  -1816411.77445  23811665.087    23811677.671
  23520969.057    -3006547.09749  -2332746.62045  23520968.512    23520980.106
  20245990.933   -21062077.67749 -16393538.35147  20245990.223    20245998.768
  21852394.145   -15450015.77049 -12028281.65147  21852393.943    21852403.647
  21607731.364   -13908425.49149 -10825642.24547  21607730.869    21607739.772
  20777842.636   -24635269.30249 -19172821.35747  20777842.239    20777849.538
 03  3 29  0 34 30.0000000  0  8G14G17G 9G31G15G 3G23G18
  21845681.798   -11545953.00749  -8967425.89846  21845681.429    21845690.401
  21689849.462   -19489572.68149 -15175565.37246  21689848.780    21689858.736
  23803270.866    -2386437.63349  -1850785.85145  23803270.628    23803283.162
  23506561.292    -3082259.99849  -2391743.55845  23506560.698    23506572.549
  20246586.920   -21058946.09049 -16391098.13547  20246586.200    20246594.637
  21846519.129   -15480888.79449 -12052338.50847  21846518.930    21846528.708
  21616859.582   -13860456.66049 -10788263.94547  21616859.010    21616867.892
  20784451.286   -24600539.82249 -19145759.41147  20784450.934    20784458.333
 03  3 29  0 35  0.0000000  0  8G14G17G 9G31G15G 3G23G18
  21828750.267   -11634928.77049  -9036757.52246  21828749.801    21828758.661
  21699816.458   -19437196.22749 -15134752.57846  21699815.770    21699825.838
  23794958.009    -2430122.79049  -1884826.06945  23794957.774    23794970.110
  23492231.122    -3157563.58149  -2450421.55845  23492230.607    23492242.660
  20247250.847   -21055457.10949 -16388379.42547  20247250.130    20247258.521
  21840747.835   -15511216.74349 -12075970.63747  21840747.615    21840757.503
  21626010.505   -13812368.19049 -10750792.41947  21626009.975    21626018.827
  20791104.082   -24565579.27449 -19118517.42947  20791103.748    20791111.071
 03  3 29  0 35 30.0000000  0  8G14G17G 9G31G15G 3G23G18
  21811886.816   -11723546.07849  -9105809.83346  21811886.346    21811895.165
  21709843.032   -19384506.37649 -15093695.57846  21709842.359    21709852.553
  23786726.860    -2473376.82549  -1918530.31945  23786726.633    23786739.163
  23477979.624    -3232455.05649  -2508778.40645  23477979.173    23477991.005
  20247983.049   -21051609.30349 -16385381.11447  20247982.314    20247990.782
  21835080.579   -15540998.18949 -12099176.91447  21835080.358    21835090.208
  21635184.150   -13764160.87349 -10713228.28947  21635183.574    21635192.444
  20797800.741   -24530388.73249 -19091096.23047  20797800.352    20797807.661
 03  3 29  0 36  0.0000000  0  8G14G17G 9G31G15G 3G23G18
  21795091.853   -11811803.09049  -9174581.39946  21795091.443    21795100.237
  21719929.027   -19331503.75749 -15052394.86046  21719928.426    21719938.694
  23778577.998    -2516197.61649  -1951896.98745  23778577.854    23778590.501
  23463807.063    -3306932.81249  -2566812.89645  23463806.614    23463818.200
  20248783.573   -21047402.12549 -16382102.77047  20248782.859    20248791.385
  21829517.396   -15570232.66649 -12121956.97947  21829517.190    21829526.978
  21644379.806   -13715836.45149 -10675572.89647  21644379.308    21644388.235
  20804540.697   -24494969.73649 -19063497.00347  20804540.326    20804547.689
 03  3 29  0 36 30.0000000  0  8G14G17G 9G31G15G 3G23G18
  21778366.041   -11899697.16749  -9243070.16746  21778365.591    21778374.384
  21730074.582   -19278187.75849 -15010849.94346  21730074.083    21730084.446
  23770512.217    -2558582.00149  -1984923.61845  23770511.997    23770524.643
  23449713.641    -3380994.00849  -2624522.80745  23449713.122    23449725.021
  20249652.751   -21042834.36449 -16378543.45347  20249652.058    20249660.591
  21824058.558   -15598918.97549 -12144309.90447  21824058.309    21824068.073
  21653597.735   -13667395.72549 -10637826.88847  21653597.257    21653606.185
  20811323.973   -24459323.38049 -19035720.61847  20811323.601    20811330.904
 03  3 29  0 37  0.0000000  0  8G14G17G 9G31G15G 3G23G18
  21761709.686   -11987226.40149  -9311274.62946  21761709.162    21761717.988
  21740279.904   -19224558.50349 -14969060.93046  21740279.447    21740289.825
  23762530.102    -2600527.81449  -2017608.51545  23762529.893    23762542.499
  23435699.705    -3454636.55849  -2681906.51445  23435699.204    23435711.199
  20250590.741   -21037905.11849 -16374702.46347  20250590.048    20250598.552
  21818704.135   -15627056.31449 -12166235.07247  21818703.866    21818713.592
  21662837.735   -13618839.94349 -10599991.22947  21662837.170    21662846.085
  20818150.298   -24423450.94449 -19007768.06947  20818149.945    20818157.241
 03  3 29  0 37 30.0000000  0  8G14G17G 9G31G15G 3G23G18
  21745123.112   -12074388.64249  -9379193.12046  21745122.595    21745131.468
  21750544.882   -19170616.29349 -14927028.06646  21750544.401    21750554.729
  23754631.786    -2642032.89849  -2049949.97645  23754631.482    23754644.395
  23421766.017    -3527858.52349  -2738962.46545  23421765.509    23421777.197
  20251597.661   -21032613.84449 -16370579.37947  20251596.951    20251605.403
  21813454.255   -15654644.12449 -12187732.03147  21813454.040    21813463.702
  21672099.173   -13570170.73249 -10562067.16947  21672098.608    21672107.490
  20825019.300   -24387354.08749 -18979640.64947  20825018.880    20825026.288
 03  3 29  0 38  0.0000000  0  8G14G17G 9G31G15G 3G23G18
  21728606.852   -12161181.31149  -9446823.64946  21728606.399    21728615.318
  21760869.557   -19116360.42549 -14884750.79946  21760869.004    21760879.248
  23746817.762    -2683094.00549  -2081945.50145  23746817.501    23746830.677
  23407913.070    -3600657.11949  -2795688.50745  23407912.599    23407923.825
  20252673.774   -21026959.04449 -16366173.02747  20252673.026    20252681.468
  21808309.279   -15681680.97149 -12208799.66847  21808309.062    21808318.713
  21681382.080   -13521388.68249 -10524055.19047  21681381.522    21681390.488
  20831930.853   -24351033.42749 -18951338.82747  20831930.485    20831937.865
 03  3 29  0 38 30.0000000  0  8G14G17G 9G31G15G 3G23G18
  21712161.324   -12247602.30649  -9514164.55746  21712160.904    21712169.865
  21771253.807   -19061791.06549 -14842229.25146  21771253.225    21771263.375
  23739088.604    -2723709.44749  -2113593.76345  23739088.412    23739101.444
  23394140.724    -3673030.53149  -2852083.27945  23394140.145    23394151.655
  20253819.108   -21020940.28549 -16361483.06847  20253818.363    20253826.823
  21803269.304   -15708166.46949 -12229437.68747  21803269.011    21803278.692
  21690686.094   -13472495.47149 -10485956.58947  21690685.541    21690694.666
  20838884.754   -24314490.54149 -18922863.84347  20838884.351    20838891.769
 03  3 29  0 39  0.0000000  0  8G14G17G 9G31G15G 3G23G18
  21695787.079   -12333648.91949  -9581213.73046  21695786.700    21695795.699
  21781697.809   -19006907.27649 -14799462.70546  21781697.245    21781707.320
  23731445.018    -2763875.86249  -2144892.13245  23731444.763    23731457.605
  23380449.646    -3744975.80649  -2908144.45945  23380448.972    23380461.057
  20255033.993   -21014555.94449 -16356508.24347  20255033.242    20255041.684
  21798334.328   -15734099.17649 -12249644.97347  21798334.068    21798343.821
  21700011.246   -13423491.52549 -10447771.70747  21700010.755    21700019.769
  20845880.735   -24277726.26249 -18894216.35247  20845880.327    20845887.761
 03  3 29  0 39 30.0000000  0  8G14G17G 9G31G15G 3G23G18
  21679484.533   -12419319.15349  -9647969.62646  21679484.126    21679493.121
  21792201.583   -18951709.67749 -14756451.62146  21792201.013    21792211.040
  23723887.450    -2803590.97749  -2175838.82745  23723887.055    23723899.704
  23366840.765    -3816491.06649  -2963870.50545  23366840.143    23366851.906
  20256318.459   -21007805.61049 -16351248.23047  20256317.723    20256326.154
  21793504.777   -15759478.67849 -12269421.18847  21793504.511    21793514.263
  21709357.387   -13374378.36549 -10409501.72947  21709356.745    21709365.623
  20852918.651   -24240742.05649 -18865397.48347  20852918.225    20852925.576
 03  3 29  0 40  0.0000000  0  8G14G17G 9G31G15G 3G23G18
  21663253.840   -12504611.76449  -9714431.27446  21663253.412    21663262.389
  21802764.907   -18896198.76449 -14713196.40046  21802764.331    21802774.392
  23716416.226    -2842853.43949  -2206432.82845  23716415.637    23716427.954
  23353313.903    -3887575.11149  -3019260.55445  23353313.268    23353324.807
  20257672.678   -21000689.11249 -16345702.89547  20257671.975    20257680.327
  21788780.479   -15784305.29949 -12288766.58047  21788780.201    21788789.839
  21718723.642   -13325158.17349 -10371148.33747  21718723.031    21718731.960
  20859997.924   -24203540.16049 -18836408.99147  20859997.514    20860004.843
 03  3 29  0 40 30.0000000  0  8G14G17G 9G31G15G 3G23G18
  21647095.477   -12589524.05549  -9780596.56646  21647095.018    21647103.950
  21813388.003   -18840373.80449 -14669696.46846  21813387.376    21813397.616
  23709032.016    -2881660.35149  -2236671.85045  23709031.039    23709042.828
  23339869.368    -3958225.10049  -3074312.39945  23339868.906    23339880.603
  20259096.955   -20993204.90449 -16339871.03547  20259096.229    20259104.497
  21784161.627   -15808577.73649 -12307680.12747  21784161.359    21784170.894
  21728110.179   -13275831.27949 -10332711.80647  21728109.593    21728118.535
  20867118.437   -24166121.34249 -18807251.46047  20867118.025    20867125.402
 03  3 29  0 41  0.0000000  0  8G14G17G 9G31G15G 3G23G18
  21631009.929   -12674053.42149  -9846463.47846  21631009.504    21631018.402
  21824070.901   -18784234.32449 -14625951.46346  21824070.271    21824080.678
  23701735.053    -2920008.88549  -2266553.69345  23701733.830    23701745.026
  23326508.101    -4028438.58349  -3129024.09445  23326507.625    23326519.328
  20260591.341   -20985351.94649 -16333751.83547  20260590.615    20260598.903
  21779648.358   -15832294.97349 -12326161.06047  21779648.054    21779657.619
  21737516.930   -13226398.48149 -10294192.75747  21737516.351    21737525.239
  20874280.037   -24128486.48749 -18777925.59647  20874279.677    20874287.016
 03  3 29  0 41 30.0000000  0  8G14G17G 9G31G15G 3G23G18
  21614997.607   -12758197.78949  -9912030.39146  21614997.239    21615006.083
  21834813.582   -18727780.90149 -14581961.81746  21834812.944    21834823.509
  23694525.607    -2957896.90749  -2296076.69945  23694524.172    23694535.032
  23313230.323    -4098213.64349  -3183394.15145  23313229.787    23313241.555
  20262155.951   -20977129.36249 -16327344.61147  20262155.242    20262163.615
  21775240.723   -15855456.70049 -12344209.13847  21775240.435    21775250.130
  21746943.470   -13176861.40449 -10255592.43747  21746942.925    21746951.883
  20881482.632   -24090636.98149 -18748432.46747  20881482.251    20881489.553
 03  3 29  0 42  0.0000000  0  8G14G17G 9G31G15G 3G23G18
  21599059.110   -12841954.56749  -9977295.29246  21599058.743    21599067.572
  21845616.133   -18671012.86949 -14537727.01446  21845615.555    21845626.167
  23687404.251    -2995321.49049  -2325238.57645  23687402.642    23687413.346
  23300036.265    -4167547.46449  -3237420.38845  23300035.741    23300047.545
  20263791.200   -20968535.86949 -16320648.36847  20263790.500    20263798.907
  21770939.085   -15878061.68349 -12361823.38747  21770938.843    21770948.643
  21756389.812   -13127220.45349 -10216911.17947  21756389.285    21756398.241
  20888725.870   -24052573.31149 -18718772.45647  20888725.467    20888732.847
 03  3 29  0 42 30.0000000  0  8G14G17G 9G31G15G 3G23G18
  21583194.878   -12925320.98249 -10042256.01847  21583194.505    21583203.341
  21856478.805   -18613929.36249 -14493246.39046  21856478.265    21856488.864
  23680371.531    -3032279.75549  -2354037.08545  23680370.021    23680380.488
  23286926.717    -4236437.30349  -3291100.66645  23286926.246    23286938.039
  20265497.314   -20959570.19849 -16313662.12047  20265496.579    20265504.990
  21766743.663   -15900108.56049 -12379002.73247  21766743.427    21766753.278
  21765855.923   -13077476.16449 -10178149.39947  21765855.332    21765864.369
  20896009.635   -24014296.47649 -18688946.34547  20896009.314    20896016.730
 03  3 29  0 43  0.0000000  0  8G14G17G 9G31G15G 3G23G18
  21567405.232   -13008295.95049 -10106911.72247  21567404.847    21567413.617
  21867401.356   -18556531.21449 -14448520.59346  21867400.843    21867411.428
  23673427.729    -3068770.04349  -2382470.94845  23673426.308    23673436.686
  23273902.112    -4304881.90949  -3344434.00345  23273901.653    23273913.302
  20267274.242   -20950232.11149 -16306385.67747  20267273.519    20267282.024
  21762654.498   -15921597.64049 -12395747.42347  21762654.228    21762663.940
  21775341.256   -13027630.44349 -10139308.58247  21775340.665    21775349.731
  20903333.790   -23975808.20349 -18658955.48447  20903333.394    20903340.814
 03  3 29  0 43 30.0000000  0  8G14G17G 9G31G15G 3G23G18
  21551690.525   -13090876.78849 -10171260.31447  21551690.106    21551698.879
  21878383.840   -18498817.80149 -14403549.12946  21878383.361    21878393.951
  23666573.306    -3104789.71349  -2410538.09945  23666571.784    23666582.400
  23260962.749    -4372878.83149  -3397418.50145  23260962.291    23260973.874
  20269122.245   -20940520.44649 -16298818.12847  20269121.569    20269130.172
  21758671.644   -15942528.00849 -12412056.75147  21758671.345    21758680.938
  21784845.677   -12977683.97549 -10100389.25247  21784845.155    21784854.221
  20910697.833   -23937109.72049 -18628800.82347  20910697.465    20910704.801
 03  3 29  0 44  0.0000000  0  8G14G17G 9G31G15G 3G23G18
  21536051.254   -13173061.01749 -10235299.86147  21536050.862    21536059.660
  21889426.234   -18440789.29349 -14358332.14246  21889425.786    21889436.464
  23659808.404    -3140336.25749  -2438236.56645  23659807.158    23659818.144
  23248108.896    -4440425.63149  -3450052.24145  23248108.380    23248119.996
  20271041.655   -20930434.09249 -16290958.62047  20271040.970    20271049.568
  21754795.209   -15962898.62049 -12427929.91747  21754794.909    21754804.460
  21794369.348   -12927637.49549 -10061392.01047  21794368.752    21794377.656
  20918101.723   -23898201.75749 -18598482.92147  20918101.360    20918108.759
 03  3 29  0 44 30.0000000  0  8G14G17G 9G31G15G 3G23G18
  21520488.093   -13254845.33449 -10299027.79347  21520487.717    21520496.554
  21900528.859   -18382444.31449 -14312868.55246  21900528.419    21900539.118
  23653133.977    -3175405.90749  -2465563.41745  23653133.177    23653144.814
  23235341.360    -4507518.74849  -3502332.45745  23235340.858    23235352.426
  20273032.842   -20919970.81649 -16282805.40547  20273032.112    20273040.616
  21751025.489   -15982707.68649 -12443365.51247  21751025.219    21751034.877
  21803911.881   -12877490.99049 -10022316.81047  21803911.277    21803920.257
  20925545.573   -23859084.05449 -18568001.59847  20925545.236    20925552.632
 03  3 29  0 45  0.0000000  0  8G14G17G 9G31G15G 3G23G18
  21505001.274   -13336228.50849 -10362443.14247  21505000.858    21505009.732
  21911691.691   -18323783.62249 -14267158.96246  21911691.282    21911701.906
  23646550.580    -3209997.53749  -2492517.81945  23646550.135    23646562.365
  23222660.438    -4574157.22249  -3554258.39245  23222659.927    23222671.422
  20275095.595   -20909130.59649 -16274358.46647  20275094.884    20275103.382
  21747362.530   -16001955.80049 -12458363.99947  21747362.344    21747372.093
  21813473.008   -12827246.35049  -9983165.15047  21813472.487    21813481.541
  20933029.044   -23819758.60149 -18537358.39747  20933028.636    20933035.900
 03  3 29  0 45 30.0000000  0  8G14G17G 9G31G15G 3G23G18
  21489590.984   -13417209.12949 -10425544.81147  21489590.556    21489599.529
  21922914.554   -18264807.56349 -14221203.63446  21922914.122    21922924.605
  23640058.373    -3244109.68449  -2519098.60945  23640058.260    23640071.143
  23210066.446    -4640339.57949  -3605828.93845  23210065.876    23210077.397
  20277229.952   -20897913.46949 -16265617.83247  20277229.316    20277237.864
  21743806.389   -16020643.18549 -12472925.57047  21743806.186    21743815.969
  21823052.771   -12776905.43749  -9943938.48447  21823052.165    21823060.958
  20940551.379   -23780227.76949 -18506555.14647  20940551.038    20940558.367
 03  3 29  0 46  0.0000000  0  8G14G17G 9G31G15G 3G23G18
  21474257.732   -13497785.01849 -10488331.10647  21474257.321    21474266.325
  21934197.201   -18205516.57849 -14175002.90946  21934196.772    21934207.259
  23633657.969    -3277739.77749  -2545303.77045  23633658.170    23633671.585
  23197559.408    -4706063.53849  -3657042.27145  23197558.865    23197570.504
  20279436.434   -20886318.32849 -16256582.64347  20279435.799    20279444.336
  21740357.159   -16038768.69049 -12487049.29347  21740357.014    21740366.784
  21832650.492   -12726469.07249  -9904637.40847  21832649.891    21832658.648
  20948112.820   -23740492.28449 -18475592.43547  20948112.463    20948119.741
 03  3 29  0 46 30.0000000  0  8G14G17G 9G31G15G 3G23G18
  21459002.082   -13577953.16649 -10550799.68947  21459001.702    21459010.663
  21945539.827   -18145909.88149 -14128556.18146  21945539.489    21945550.004
  23627349.749    -3310884.92349  -2571131.02845  23627350.286    23627364.105
  23185140.082    -4771326.36349  -3707896.25945  23185139.592    23185151.084
  20281715.278   -20874343.63949 -16247251.70747  20281714.561    20281723.034
  21737015.163   -16056331.47749 -12500734.53747  21737014.938    21737024.624
  21842266.270   -12675937.41949  -9865262.09947  21842265.724    21842274.596
  20955713.170   -23700552.68249 -18444470.66547  20955712.791    20955719.985
 03  3 29  0 47  0.0000000  0  8G14G17G 9G31G15G 3G23G18
  21443824.527   -13657711.50149 -10612948.94247  21443824.119    21443833.004
  21956942.770   -18085986.70449 -14081862.83446  21956942.495    21956953.043
  23621134.344    -3343542.79749  -2596578.59645  23621135.359    23621149.477
  23172808.979    -4836125.69149  -3758389.09945  23172808.489    23172819.921
  20284066.474   -20861988.51049 -16237624.32547  20284065.723    20284074.178
  21733780.294   -16073330.96549 -12513980.84647  21733780.017    21733789.666
  21851900.101   -12625311.42449  -9825813.27347  21851899.505    21851908.358
  20963352.243   -23660410.04049 -18413190.68347  20963351.754    20963358.866
 03  3 29  0 47 30.0000000  0  8G14G17G 9G31G15G 3G23G18
  21428725.057   -13737059.71349 -10674778.62247  21428724.643    21428733.447
  21968405.767   -18025748.85449 -14034924.30146  21968405.459    21968416.029
  23615012.045    -3375712.64049  -2621645.87945  23615013.367    23615027.691
  23160566.142    -4900461.32849  -3808520.63145  23160565.754    23160577.229
  20286489.615   -20849254.09449 -16227701.39047  20286488.896    20286497.456
  21730652.307   -16089768.40149 -12526789.20847  21730652.033    21730661.660
  21861551.560   -12574593.69549  -9786292.97847  21861550.883    21861559.693
  20971029.207   -23620067.06049 -18381754.59247  20971028.769    20971035.861
 03  3 29  0 48  0.0000000  0  8G14G17G 9G31G15G 3G23G18
  21413703.863   -13815996.31049 -10736287.55747  21413703.462    21413712.255
  21979928.586   -17965197.66549 -13987741.59646  21979928.182    21979938.732
  23608983.190    -3407393.08949  -2646331.81845  23608984.680    23608999.087
  23148411.975    -4964331.93549  -3858289.78145  23148411.538    23148423.048
  20288985.007   -20836139.91249 -16217482.53347  20288984.339    20288992.954
  21727631.272   -16105644.01949 -12539159.77747  21727631.014    21727640.600
  21871220.042   -12523786.02349  -9746702.57847  21871219.340    21871228.176
  20978743.990   -23579525.51549 -18350163.77747  20978743.578    20978750.719
 03  3 29  0 48 30.0000000  0  8G14G17G 9G31G15G 3G23G18
  21398761.334   -13894519.25749 -10797474.16047  21398760.926    21398769.756
  21991511.128   -17904332.68649 -13940314.39446  21991510.624    21991521.183
  23603048.212    -3438581.95449  -2670634.68445  23603049.649    23603063.849
  23136346.651    -5027735.38549  -3907694.91545  23136346.192    23136357.676
  20291552.943   -20822645.00349 -16206967.00547  20291552.311    20291560.923
  21724717.234   -16120957.39049 -12551092.24447  21724716.961    21724726.572
  21880905.215   -12472889.27149  -9707042.77147  21880904.625    21880913.448
  20986496.375   -23538786.49249 -18318419.07947  20986495.931    20986503.143
 03  3 29  0 49  0.0000000  0  8G14G17G 9G31G15G 3G23G18
  21383898.132   -13972625.58149 -10858336.12447  21383897.746    21383906.489
  22003153.446   -17843152.97149 -13892641.94146  22003152.934    22003163.410
  23597207.365    -3469276.23649  -2694552.17245  23597208.812    23597222.600
  23124370.688    -5090668.70649  -3956733.72945  23124370.202    23124381.692
  20294193.667   -20808767.73449 -16196153.53447  20294193.043    20294201.619
  21721910.409   -16135707.32849 -12562585.67247  21721910.135    21721919.737
  21890607.420   -12421903.50949  -9667313.61747  21890606.838    21890615.666
  20994286.285   -23497850.18749 -18286520.65447  20994285.838    20994293.031
 03  3 29  0 49 30.0000000  0  8G14G17G 9G31G15G 3G23G18
  21369114.627   -14050313.32449 -10918871.93247  21369114.230    21369122.877
  22014855.489   -17781658.71249 -13844724.38346  22014854.933    22014865.341
  23591461.074    -3499473.68749  -2718082.51345  23591462.570    23591476.010
  23112484.752    -5153129.89249  -4005404.64745  23112484.230    23112495.765
  20296907.323   -20794507.08849 -16185041.33147  20296906.704    20296915.249
  21719210.868   -16149893.36149 -12573639.67947  21719210.584    21719220.138
  21900326.511   -12370829.70549  -9627515.84747  21900325.900    21900334.689
  21002113.498   -23456717.83749 -18254469.47347  21002113.089    21002120.231
 03  3 29  0 50  0.0000000  0  8G14G17G 9G31G15G 3G23G18
  21354411.234   -14127579.86649 -10979079.53247  21354410.839    21354419.446
  22026617.317   -17719849.33049 -13796561.26246  22026616.751    22026627.080
  23585810.041    -3529171.48649  -2741223.50745  23585811.282    23585824.446
  23100689.117    -5215116.25849  -4053705.58345  23100688.506    23100700.075
  20299694.212   -20779861.96849 -16173629.54147  20299693.574    20299702.062
  21716618.801   -16163514.56649 -12584253.56447  21716618.518    21716627.989
  21910062.215   -12319668.07349  -9587649.64946  21910061.580    21910070.411
  21009978.009   -23415389.89149 -18222265.87947  21009977.526    21009984.630
 03  3 29  0 50 30.0000000  0  8G14G17G 9G31G15G 3G23G18
  21339788.327   -14204423.22249 -11038957.38247  21339787.963    21339796.496
  22038438.970   -17657725.42849 -13748153.06646  22038438.437    22038448.727
  23580254.748    -3558367.77949  -2763973.74045  23580255.688    23580268.599
  23088983.945    -5276626.02749  -4101635.14245  23088983.370    23088994.828
  20302554.513   -20764831.58149 -16161917.54247  20302553.804    20302562.255
  21714134.246   -16176570.85749 -12594427.25847  21714133.978    21714143.394
  21919814.216   -12268419.68749  -9547715.85246  21919813.719    21919822.627
  21017879.282   -23373867.57049 -18189910.81647  21017878.875    21017886.026
 03  3 29  0 51  0.0000000  0  8G14G17G 9G31G15G 3G23G18
  21325246.329   -14280841.29149 -11098503.83147  21325245.940    21325254.475
  22050320.781   -17595286.15249 -13699499.13046  22050320.191    22050330.454
  23574795.161    -3587060.50549  -2786331.59545  23574795.848    23574808.313
  23077369.805    -5337657.15749  -4149191.73445  23077369.320    23077380.619
  20305488.272   -20749414.94849 -16149904.57447  20305487.514    20305496.002
  21711757.264   -16189061.74049 -12604160.37747  21711757.014    21711766.432
  21929582.910   -12217085.42149  -9507715.13646  21929582.296    21929591.138
  21025817.616   -23332151.97549 -18157405.15847  21025817.180    21025824.301
 03  3 29  0 51 30.0000000  0  8G14G17G 9G31G15G 3G23G18
  21310785.618   -14356832.17849 -11157717.40747  21310785.221    21310793.795
  22062262.662   -17532531.67149 -13650599.59046  22062262.034    22062272.169
  23569431.577    -3615247.67449  -2808295.52045  23569432.121    23569444.145
  23065847.314    -5398207.75449  -4196373.89745  23065846.866    23065858.149
  20308495.597   -20733611.29449 -16137590.02747  20308494.872    20308503.417
  21709487.900   -16200987.10849 -12613452.84547  21709487.665    21709497.162
  21939367.485   -12165666.11449  -9467648.14746  21939366.982    21939375.817
  21033792.472   -23290244.13349 -18124749.70047  21033791.999    21033799.099
 03  3 29  0 52  0.0000000  0  8G14G17G 9G31G15G 3G23G18
  21296406.485   -14432394.69749 -11216597.19447  21296406.075    21296414.589
  22074264.299   -17469463.22849 -13601455.39346  22074263.665    22074273.634
  23564164.496    -3642927.74249  -2829864.30545  23564164.917    23564176.424
  23054416.825    -5458276.52149  -4243180.60745  23054416.309    23054427.537
  20311576.509   -20717420.56849 -16124973.86947  20311575.819    20311584.399
  21707326.024   -16212347.30249 -12622304.90847  21707325.801    21707335.338
  21949168.220   -12114163.47349  -9427516.22646  21949167.678    21949176.489
  21041803.518   -23248145.55649 -18091945.61947  21041803.083    21041810.132
 03  3 29  0 52 30.0000000  0  8G14G17G 9G31G15G 3G23G18
  21282109.356   -14507526.77149 -11275141.57747  21282108.942    21282117.289
  22086325.664   -17406080.96249 -13552066.66446  22086324.975    22086334.882
  23558994.306    -3670098.74149  -2851036.40845  23558994.607    23559005.751
  23043078.251    -5517861.41449  -4289610.26145  23043077.640    23043088.720
  20314731.268   -20700842.01449 -16112055.50447  20314730.625    20314739.172
  21705271.840   -16223141.94649 -12630716.28547  21705271.623    21705281.097
  21958984.568   -12062578.26249  -9387319.97446  21958984.011    21958992.813
  21049850.597   -23205857.36949 -18058993.77747  21049850.212    21049857.305
 03  3 29  0 53  0.0000000  0  8G14G17G 9G31G15G 3G23G18
  21267894.621   -14582225.57949 -11333348.34747  21267894.193    21267902.480
  22098446.742   -17342383.25149 -13502432.12546  22098446.164    22098456.251
  23553921.562    -3696757.60949  -2871809.43745  23553921.699    23553932.694
  23031831.875    -5576959.54749  -4335660.64445  23031831.306    23031842.456
  20317960.202   -20683873.97249 -16098833.64547  20317959.579    20317967.986
  21703325.548   -16233370.05449 -12638686.20847  21703325.291    21703334.644
  21968816.729   -12010910.49349  -9347059.38946  21968816.115    21968824.891
  21057933.906   -23163379.88849 -18025894.45747  21057933.506    21057940.611
 03  3 29  0 53 30.0000000  0  8G14G17G 9G31G15G 3G23G18
  21253762.852   -14656488.16949 -11391215.20847  21253762.427    21253770.768
  22110627.726   -17278369.98949 -13452551.71846  22110627.381    22110637.732
  23548946.668    -3722901.57649  -2892181.25645  23548946.763    23548957.828
  23020678.733    -5635568.28549  -4381329.68345  23020678.316    23020689.276
  20321263.662   -20666514.63449 -16085306.88747  20321263.002    20321271.339
  21701487.177   -16243030.44549 -12646213.75047  21701486.933    21701496.306
  21978664.380   -11959160.14349  -9306734.44746  21978663.858    21978672.756
  21066053.197   -23120713.04949 -17992647.57347  21066052.716    21066059.933
 03  3 29  0 54  0.0000000  0  8G14G17G 9G31G15G 3G23G18
  21239714.168   -14730313.88949 -11448741.64347  21239713.732    21239722.190
  22122868.816   -17214042.13749 -13402426.18046  22122868.547    22122878.952
  23544069.728    -3748529.83849  -2912151.24045  23544069.780    23544080.936
  23009619.219    -5693686.76249  -4426616.69145  23009618.782    23009629.514
  20324641.459   -20648764.37649 -16071475.51047  20324640.754    20324649.148
  21699756.617   -16252124.17949 -12653299.76047  21699756.401    21699765.812
  21988527.506   -11907329.18049  -9266346.69646  21988526.979    21988535.911
  21074207.727   -23077859.26649 -17959255.00747  21074207.380    21074214.629
 03  3 29  0 54 30.0000000  0  8G14G17G 9G31G15G 3G23G18
  21225748.851   -14803701.50049 -11505926.69347  21225748.410    21225756.915
  22135169.819   -17149400.50949 -13352056.12946  22135169.571    22135179.856
  23539291.135    -3773641.11149  -2931718.36645  23539291.098    23539302.285
  22998653.262    -5751313.82249  -4471520.79545  22998652.734    22998663.338
  20328093.583   -20630623.27349 -16057339.57547  20328092.844    20328101.344
  21698133.807   -16260652.15749 -12659944.91747  21698133.545    21698142.984
  21998405.744   -11855419.12649  -9225897.32146  21998405.171    21998414.082
  21082397.890   -23034820.17949 -17925718.06747  21082397.530    21082404.625
 03  3 29  0 55  0.0000000  0  8G14G17G 9G31G15G 3G23G18
  21211867.339   -14876648.85149 -11562768.68747  21211866.930    21211875.392
  22147530.758   -17084445.14249 -13301441.60946  22147530.363    22147540.415
  23534611.448    -3798233.08749  -2950880.85345  23534611.457    23534622.497
  22987781.107    -5808447.21049  -4516040.22845  22987780.581    22987791.110
  20331620.354   -20612090.10549 -16042898.13647  20331619.593    20331628.083
  21696618.746   -16268613.53149 -12666148.56947  21696618.494    21696627.986
  22008298.666   -11803430.47849  -9185386.68846  22008298.183    22008307.189
  21090623.360   -22991596.24549 -17892037.08947  21090622.885    21090629.887
 03  3 29  0 55 30.0000000  0  8G14G17G 9G31G15G 3G23G18
  21198070.076   -14949153.91449 -11619266.04947  21198069.662    21198078.019
  22159951.354   -17019176.22649 -13250582.76946  22159950.825    22159960.728
  23530030.765    -3822303.90649  -2969637.23545  23530030.759    23530041.843
  22977003.176    -5865085.06549  -4560173.52545  22977002.692    22977013.120
  20335221.872   -20593164.06549 -16028150.56947  20335221.089    20335229.537
  21695211.492   -16276008.38749 -12671910.77547  21695211.288    21695220.761
  22018206.675   -11751363.86649  -9144815.32346  22018206.133    22018215.122
  21098883.470   -22948188.64849 -17858212.98447  21098882.998    21098890.142
 03  3 29  0 56  0.0000000  0  8G14G17G 9G31G15G 3G23G18
  21184357.320   -15021214.77549 -11675417.27947  21184356.895    21184365.178
  22172431.595   -16953593.03149 -13199479.03946  22172430.985    22172440.904
  23525549.509    -3845851.66049  -2987986.05145  23525549.661    23525560.832
  22966319.735    -5921225.56649  -4603919.29145  22966319.289    22966329.734
  20338898.229   -20573844.61849 -16013096.44647  20338897.464    20338905.816
  21693912.143   -16282836.50149 -12677231.36047  21693911.947    21693921.363
  22028129.469   -11699220.27349  -9104183.97146  22028128.804    22028137.702
  21107178.190   -22904598.41349 -17824246.55547  21107177.845    21107185.058
 03  3 29  0 56 30.0000000  0  8G14G17G 9G31G15G 3G23G18
  21170729.405   -15092829.36849 -11731220.76547  21170729.000    21170737.277
  22184971.459   -16887696.07649 -13148130.83046  22184970.784    22184980.846
  23521168.164    -3868874.29049  -3005925.69645  23521168.404    23521179.661
  22955731.448    -5976866.66249  -4647275.91045  22955731.018    22955741.469
  20342649.587   -20554130.90549 -15997735.10347  20342648.837    20342657.186
  21692720.728   -16289097.69749 -12682110.19547  21692720.542    21692729.839
  22038066.558   -11647000.31149  -9063493.10046  22038065.915    22038074.825
  21115507.856   -22860826.27149 -17790138.40047  21115507.468    21115514.543
 03  3 29  0 57  0.0000000  0  8G14G17G 9G31G15G 3G23G18
  21157186.734   -15163996.25449 -11786675.38847  21157186.325    21157194.578
  22197570.941   -16821485.54949 -13096538.27246  22197570.272    22197580.316
  23516887.189    -3891370.15049  -3023454.85945  23516887.568    23516898.681
  22945238.778    -6032006.93249  -4690242.28146  22945238.242    22945248.690
  20346476.047   -20534022.33749 -15982066.07847  20346475.348    20346483.721
  21691637.092   -16294792.39249 -12686547.60247  21691636.862    21691646.119
  22048017.928   -11594705.04349  -9022743.55446  22048017.395    22048026.283
  21123871.899   -22816873.60049 -17755889.56847  21123871.438    21123878.476
 03  3 29  0 57 30.0000000  0  8G14G17G 9G31G15G 3G23G18
  21143729.519   -15234714.05049 -11841780.07147  21143729.121    21143737.332
  22210230.017   -16754962.25249 -13044701.99946  22210229.318    22210239.331
  23512706.690    -3913337.78049  -3040572.41445  23512707.072    23512718.434
  22934841.457    -6086644.89749  -4732817.25446  22934840.851    22934851.420
  20350377.735   -20513518.54949 -15966089.08447  20350377.097    20350385.497
  21690661.186   -16299920.73849 -12690543.69647  21690660.908    21690670.236
  22057983.464   -11542335.58549  -8981936.19746  22057982.976    22057991.795
  21132269.827   -22772741.81949 -17721501.15847  21132269.365    21132276.584
 03  3 29  0 58  0.0000000  0  8G14G17G 9G31G15G 3G23G18
  21130358.177   -15304980.15849 -11896532.79147  21130357.818    21130365.988
  22222948.709   -16688125.78849 -12992621.69746  22222947.983    22222957.998
  23508626.959    -3934774.71849  -3057276.45945  23508627.437    23508639.016
  22924540.003    -6140778.13349  -4774998.93045  22924539.452    22924550.149
  20354354.903   -20492618.27049 -15949803.13747  20354354.284    20354362.732
  21689793.162   -16304482.12149 -12694098.00047  21689792.889    21689802.266
  22067963.238   -11489892.04349  -8941071.11946  22067962.697    22067971.551
  21140701.686   -22728431.34449 -17686973.50047  21140701.297    21140708.598
 03  3 29  0 58 30.0000000  0  8G14G17G 9G31G15G 3G23G18
  21117073.131   -15374793.00749 -11950932.32647  21117072.785    21117080.911
  22235726.943   -16620976.40849 -12940297.55646  22235726.137    22235736.182
  23504648.485    -3955679.76649  -3073566.04145  23504649.071    23504660.962
  22914335.186    -6194405.14149  -4816786.11446  22914334.586    22914345.032
  20358407.621   -20471321.10549 -15933207.92647  20358407.008    20358415.449
  21689032.969   -16308476.95949 -12697210.83947  21689032.675    21689042.044
  22077956.962   -11437375.48249  -8900149.13346  22077956.329    22077965.245
  21149167.581   -22683943.08849 -17652307.32347  21149167.166    21149174.401
 03  3 29  0 59  0.0000000  0  8G14G17G 9G31G15G 3G23G18
  21103874.700   -15444150.99749 -12004977.42447  21103874.322    21103882.418
  22248564.536   -16553514.09149 -12887729.57646  22248563.750    22248573.913
  23500771.725    -3976051.02849  -3089439.67945  23500772.335    23500784.557
  22904226.968    -6247524.19249  -4858177.48446  22904226.374    22904236.664
  20362536.012   -20449626.10749 -15916302.71947  20362535.390    20362543.815
  21688380.583   -16311905.23149 -12699882.19647  21688380.287    21688389.628
  22087964.186   -11384786.67949  -8859170.85546  22087963.611    22087972.655
  21157667.052   -22639278.18949 -17617503.51047  21157666.632    21157673.815
 03  3 29  0 59 30.0000000  0  8G14G17G 9G31G15G 3G23G18
  21090763.109   -15513052.52849 -12058666.83847  21090762.729    21090770.781
  22261461.502   -16485739.34349 -12834918.14446  22261460.741    22261471.093
  23496996.879    -3995886.65549  -3104895.92345  23496997.428    23497009.994
  22894215.597    -6300133.46849  -4899171.64546  22894215.015    22894225.409
  20366740.208   -20427532.83449 -15899087.16447  20366739.560    20366747.933
  21687836.033   -16314766.96349 -12702112.09447  21687835.704    21687845.025
  22097985.077   -11332126.36149  -8818136.84846  22097984.514    22097993.545
  21166200.049   -22594437.54949 -17582562.75247  21166199.575    21166206.752
 03  3 29  1  0  0.0000000  0  8G14G17G 9G31G15G 3G23G18
  21077738.810   -15581495.52349 -12111998.95447  21077738.416    21077746.426
  22274417.755   -16417652.47249 -12781863.51346  22274417.142    22274427.747
  23493324.515    -4015184.88349  -3119933.44445  23493324.999    23493337.621
  22884301.654    -6352231.36249  -4939767.32646  22884300.978    22884311.489
  20371020.336   -20405040.62449 -15881560.75047  20371019.657    20371027.975
  21687399.239   -16317062.29649 -12703900.64347  21687398.916    21687408.204
  22108019.515   -11279395.26849  -8777047.70146  22108018.917    22108027.908
  21174766.095   -22549422.09249 -17547485.76647  21174765.715    21174772.886
 03  3 29  1  0 30.0000000  0  8G14G17G 9G31G15G 3G23G18
  21064802.039   -15649478.56049 -12164972.66047  21064801.661    21064809.637
  22287433.268   -16349254.01749 -12728566.08646  22287432.811    22287443.672
  23489754.682    -4033944.40349  -3134551.18245  23489755.081    23489767.715
  22874485.229    -6403816.39249  -4979963.36346  22874484.574    22874495.125
  20375376.508   -20382149.17149 -15863723.24447  20375375.781    20375384.055
  21687070.197   -16318791.69749 -12705248.21047  21687069.844    21687079.121
  22118067.177   -11226594.34449  -8735904.13846  22118066.631    22118075.601
  21183365.374   -22504233.17849 -17512273.63247  21183364.951    21183372.035
 03  3 29  1  1  0.0000000  0  8G14G17G 9G31G15G 3G23G18
  21051953.142   -15716999.91549 -12217586.61247  21051952.727    21051960.686
  22300508.239   -16280543.98849 -12675025.87546  22300507.849    22300518.947
  23486287.807    -4052163.44549  -3148747.76145  23486288.031    23486300.749
  22864766.633    -6454886.79049  -5019758.39046  22864766.022    22864776.716
  20379808.856   -20358857.64049 -15845573.99747  20379808.082    20379816.284
  21686848.756   -16319955.38549 -12706154.95947  21686848.417    21686857.673
  22128128.119   -11173724.13249  -8694706.58246  22128127.556    22128136.505
  21191997.445   -22458871.53049 -17476926.89447  21191996.976    21192004.123
 03  3 29  1  1 30.0000000  0  8G14G17G 9G31G15G 3G23G18
  21039192.320   -15784058.22849 -12269839.75347  21039191.911    21039199.871
  22313642.641   -16211522.50549 -12621242.97746  22313642.327    22313653.448
  23482924.160    -4069840.49949  -3162522.00245  23482924.060    23482936.781
  22855146.235    -6505441.26949  -5059151.41246  22855145.652    22855156.442
  20384317.375   -20335165.70949 -15827112.74647  20384316.551    20384324.749
  21686734.926   -16320553.63449 -12706621.11147  21686734.586    21686743.858
  22138202.114   -11120785.68349  -8653455.85946  22138201.442    22138210.439
  21200661.967   -22413338.65649 -17441446.73347  21200661.538    21200668.750
 03  3 29  1  2  0.0000000  0  8G14G17G 9G31G15G 3G23G18
  21026519.588   -15850653.15249 -12321731.81847  21026519.234    21026527.134
  22326836.145   -16142191.39549 -12567218.81146  22326835.773    22326846.781
  23479663.786    -4086975.27649  -3175873.69945  23479663.487    23479675.797
  22845624.328    -6555479.50349  -5098142.13546  22845623.763    22845634.351
  20388901.833   -20311074.17749 -15808340.11647  20388901.018    20388909.200
  21686728.382   -16320588.13749 -12706647.98047  21686728.001    21686737.221
  22148288.507   -11067781.18149  -8612153.66346  22148287.879    22148296.884
  21209358.756   -22367636.61449 -17405834.75447  21209358.367    21209365.570
 03  3 29  1  2 30.0000000  0  8G14G17G 9G31G15G 3G23G18
  21013935.577   -15916782.74549 -12373261.28447  21013935.175    21013943.033
  22340088.533   -16072551.19749 -12512953.79546  22340088.039    22340098.830
  23476507.005    -4103566.14449  -3188801.57945  23476506.473    23476518.416
  22836201.106    -6604999.88449  -5136729.34646  22836200.547    22836210.955
  20393562.487   -20286582.13149 -15789255.39747  20393561.721    20393569.866
  21686828.994   -16320059.17449 -12706235.77947  21686828.611    21686837.808
  22158387.431   -11014711.33549  -8570800.56346  22158386.818    22158395.730
  21218087.678   -22321766.14949 -17370091.54247  21218087.244    21218094.457
 03  3 29  1  3  0.0000000  0  8G14G17G 9G31G15G 3G23G18
  21001440.414   -15982444.98549 -12424426.58247  21001439.996    21001447.833
  22353399.733   -16002601.28349 -12458447.43346  22353399.163    22353409.852
  23473454.024    -4119611.13049  -3201304.09645  23473453.316    23473464.945
  22826876.706    -6654000.19549  -5174911.31546  22826876.162    22826886.458
  20398299.507   -20261688.62749 -15769857.85747  20398298.772    20398306.935
  21687036.861   -16318966.29949 -12705384.17247  21687036.517    21687045.719
  22168498.810   -10961576.10249  -8529396.51246  22168498.178    22168506.970
  21226848.531   -22275727.54949 -17334217.32347  21226848.059    21226855.269
 03  3 29  1  3 30.0000000  0  8G14G17G 9G31G15G 3G23G18
  20989034.531   -16047637.73749 -12475226.04247  20989034.104    20989041.980
  22366769.769   -15932341.01049 -12403699.23446  22366769.178    22366779.970
  23470505.289    -4135107.78649  -3213379.33745  23470504.458    23470515.891
  22817651.570    -6702477.96549  -5212686.10846  22817651.019    22817661.336
  20403113.161   -20236392.10849 -15750146.28247  20403112.479    20403120.682
  21687352.215   -16317308.82249 -12704092.61247  21687351.899    21687361.103
  22178622.496   -10908375.19449  -8487941.27746  22178621.940    22178630.727
  21235641.161   -22229521.29449 -17298212.45547  21235640.762    21235648.050
 03  3 29  1  4  0.0000000  0  8G14G17G 9G31G15G 3G23G18
  20976718.443   -16112358.67849 -12525657.85747  20976718.021    20976725.924
  22380198.708   -15861770.20949 -12348709.07546  22380198.321    22380209.176
  23467661.093    -4150054.37149  -3225025.95445  23467660.137    23467671.507
  22808526.140    -6750431.33049  -5250052.27446  22808525.687    22808535.952
  20408003.633   -20210691.72649 -15730120.00147  20408003.014    20408011.320
  21687775.018   -16315086.82449 -12702361.16747  21687774.706    21687783.878
  22188758.831   -10855109.17349  -8446435.31646  22188758.163    22188766.943
  21244465.826   -22183147.55849 -17262077.09447  21244465.433    21244472.650
 03  3 29  1  4 30.0000000  0  8G14G17G 9G31G15G 3G23G18
  20964492.477   -16176606.21649 -12575720.79047  20964492.084    20964499.971
  22393686.794   -15790889.69249 -12293477.56546  22393686.493    22393697.392
  23464921.932    -4164449.57949  -3236242.94745  23464920.773    23464932.132
  22799500.773    -6797859.08249  -5287008.86246  22799500.315    22799510.559
  20412971.077   -20184587.13249 -15709778.75447  20412970.485    20412978.857
  21688305.133   -16312300.98449 -12700190.36347  21688304.819    21688313.990
  22198907.178   -10801778.92249  -8404879.28046  22198906.537    22198915.405
  21253322.137   -22136607.39849 -17225812.05147  21253321.702    21253328.904
 03  3 29  1  5  0.0000000  0  8G14G17G 9G31G15G 3G23G18
  20952356.815   -16240379.36049 -12625414.07047  20952356.415    20952364.255
  22407233.814   -15719700.36349 -12238005.42446  22407233.535    22407244.384
  23462287.844    -4178292.28049  -3247029.41845  23462286.587    23462297.884
  22790575.725    -6844759.98349  -5323554.91546  22790575.333    22790585.582
  20418015.708   -20158077.99249 -15689122.27647  20418015.062    20418023.367
  21688942.310   -16308952.26849 -12697580.96347  21688942.028    21688951.240
  22209067.610   -10748385.43849  -8363273.98846  22209066.963    22209075.788
  21262209.755   -22089902.21249 -17189418.41647  21262209.369    21262216.695
 03  3 29  1  5 30.0000000  0  8G14G17G 9G31G15G 3G23G18
  20940311.815   -16303676.19349 -12674736.19847  20940311.384    20940319.117
  22420839.644   -15648201.94149 -12182292.43846  22420839.316    22420850.275
  23459759.088    -4191580.88949  -3257384.11645  23459757.778    23459769.098
  22781751.260    -6891132.34749  -5359689.12746  22781750.872    22781761.126
  20423137.401   -20131163.74449 -15668150.13747  20423136.707    20423144.927
  21689686.705   -16305040.59149 -12694532.88647  21689686.422    21689695.639
  22219239.947   -10694929.04449  -8321619.66246  22219239.301    22219248.161
  21271128.721   -22043032.69249 -17152896.71847  21271128.364    21271135.729
 03  3 29  1  6  0.0000000  0  8G14G17G 9G31G15G 3G23G18
  20928357.634   -16366495.74649 -12723686.42447  20928357.190    20928364.822
  22434504.131   -15576395.30349 -12126339.29046  22434503.716    22434514.894
  23457336.067    -4204314.23949  -3267306.14845  23457334.556    23457346.012
  22773027.598    -6936975.01749  -5395410.58646  22773027.221    22773037.526
  20428336.207   -20103844.01449 -15646862.03447  20428335.488    20428343.679
  21690538.076   -16300566.64749 -12691046.68447  21690537.793    21690547.005
  22229424.082   -10641410.63849  -8279917.03146  22229423.500    22229432.419
  21280078.834   -21996000.01449 -17116247.89547  21280078.388    21280085.726
 03  3 29  1  6 30.0000000  0  8G14G17G 9G31G15G 3G23G18
  20916494.466   -16428836.67849 -12772263.68947  20916494.003    20916501.643
  22448227.227   -15504280.75749 -12070146.21345  22448226.756    22448238.030
  23455018.951    -4216490.90949  -3276794.40745  23455017.270    23455028.876
  22764405.036    -6982286.49449  -5430718.14946  22764404.631    22764414.961
  20433612.135   -20076118.37549 -15625257.63647  20433611.455    20433619.685
  21691496.348   -16295530.94449 -12687122.74447  21691496.070    21691505.266
  22239620.073   -10587830.95349  -8238166.64446  22239619.412    22239628.387
  21289059.672   -21948805.32049 -17079472.81947  21289059.251    21289066.602
 03  3 29  1  7  0.0000000  0  8G14G17G 9G31G15G 3G23G18
  20904722.535   -16490698.14049 -12820467.35247  20904722.092    20904729.739
  22462008.883   -15431859.25449 -12013713.93945  22462008.245    22462019.383
  23452807.905    -4228110.32249  -3285848.43145  23452806.270    23452817.763
  22755883.655    -7027066.33749  -5465611.44446  22755883.220    22755893.458
  20438965.282   -20047986.99749 -15603337.08147  20438964.609    20438972.886
  21692561.267   -16289934.84749 -12682762.14747  21692560.972    21692570.191
  22249827.237   -10534191.44249  -8196369.63446  22249826.705    22249835.657
  21298071.069   -21901450.12649 -17042572.67647  21298070.662    21298078.001
 03  3 29  1  7 30.0000000  0  8G14G17G 9G31G15G 3G23G18
  20893042.341   -16552078.05749 -12868295.78347  20893041.918    20893049.500
  22475848.897   -15359130.87049 -11957042.53545  22475848.134    22475859.009
  23450703.292    -4239170.42149  -3294466.64545  23450701.677    23450713.019
  22747463.931    -7071312.34249  -5500088.74346  22747463.449    22747473.589
  20444396.014   -20019448.74749 -15581099.47847  20444395.289    20444403.522
  21693732.843   -16283778.04249 -12677964.61847  21693732.542    21693741.798
  22260046.040   -10480492.16449  -8154526.07546  22260045.431    22260054.252
  21307112.859   -21853934.78849 -17005547.73647  21307112.503    21307119.939
 03  3 29  1  8  0.0000000  0  8G14G17G 9G31G15G 3G23G18
  20881454.182   -16612974.47049 -12915747.46347  20881453.720    20881461.204
  22489747.127   -15286095.37549 -11900131.82245  22489746.372    22489757.034
  23448705.302    -4249669.69249  -3302647.85345  23448703.700    23448714.960
  22739146.051    -7115022.85849  -5534148.78046  22739145.538    22739155.657
  20449904.420   -19990502.84149 -15558544.22547  20449903.566    20449911.713
  21695011.107   -16277060.57249 -12672730.21547  21695010.807    21695019.999
  22270275.907   -10426733.33249  -8112636.08446  22270275.339    22270284.188
  21316185.142   -21806259.84949 -16968398.44347  21316184.772    21316192.136
 03  3 29  1  8 30.0000000  0  8G14G17G 9G31G15G 3G23G18
  20869958.310   -16673385.38049 -12962820.83147  20869957.859    20869965.269
  22503703.705   -15212752.96949 -11842981.96345  22503702.901    22503713.551
  23446814.443    -4259606.10849  -3310390.48045  23446812.849    23446824.092
  22730930.096    -7158195.86349  -5567790.00346  22730929.675    22730940.000
  20455490.529   -19961148.16349 -15535670.45247  20455489.619    20455497.705
  21696396.018   -16269782.60749 -12667059.05547  21696395.748    21696404.870
  22280517.316   -10372914.86849  -8070699.65146  22280516.719    22280525.437
  21325287.900   -21758425.31449 -16931124.78847  21325287.451    21325294.765
 03  3 29  1  9  0.0000000  0  8G14G17G 9G31G15G 3G23G18
  20858554.918   -16733309.83849 -13009515.13847  20858554.504    20858561.935
  22517718.649   -15139104.04549 -11785593.26745  22517717.818    22517728.560
  23445030.713    -4268978.87349  -3317693.88345  23445029.194    23445040.342
  22722816.886    -7200830.50749  -5601011.72646  22722816.521    22722826.862
  20461154.219   -19931384.86549 -15512478.27147  20461153.358    20461161.501
  21697887.468   -16261945.02549 -12660951.83747  21697887.215    21697896.264
  22290769.983   -10319037.80749  -8028717.55646  22290769.251    22290777.859
  21334420.610   -21710432.67649 -16893727.93747  21334420.198    21334427.413
 03  3 29  1  9 30.0000000  0  8G14G17G 9G31G15G 3G23G18
  20847244.199   -16792747.58449 -13055830.19247  20847243.754    20847251.270
  22531791.676   -15065150.32649 -11727967.09245  22531790.855    22531801.636
  23443354.252    -4277787.88649  -3324558.01045  23443352.874    23443363.933
  22714806.445    -7242926.59949  -5633813.76746  22714805.947    22714816.047
  20466895.437   -19901213.70049 -15488968.27047  20466894.664    20466902.864
  21699485.148   -16253549.49649 -12654409.85547  21699484.869    21699493.883
  22301033.063   -10265103.84749  -7986691.12146  22301032.476    22301041.207
  21343583.047   -21662283.89949 -16856209.42247  21343582.595    21343589.762
 03  3 29  1 10  0.0000000  0  8G14G17G 9G31G15G 3G23G18
  20836026.245   -16851697.45349 -13101765.08347  20836025.820    20836033.419
  22545922.466   -14990892.82649 -11670104.19145  22545921.673    22545932.433
  23441785.150    -4286032.15949  -3330982.07545  23441783.971    23441794.867
  22706898.520    -7284482.96449  -5666195.25146  22706897.982    22706908.009
  20472714.379   -19870634.38749 -15465140.23147  20472713.695    20472721.940
  21701188.738   -16244597.18349 -12647434.01747  21701188.440    21701197.480
  22311306.983   -10211113.95549  -7944621.09646  22311306.384    22311315.206
  21352774.974   -21613979.89549 -16818569.94447  21352774.522    21352781.770
 03  3 29  1 10 30.0000000  0  8G14G17G 9G31G15G 3G23G18
  20824901.729   -16910156.70949 -13147317.67447  20824901.331    20824909.031
  22560111.276   -14916329.60549 -11612003.04845  22560110.540    22560121.323
  23440323.982    -4293709.27449  -3336964.22145  23440323.062    23440333.784
  22699093.567    -7325497.00049  -5698154.17246  22699093.105    22699103.349
  20478611.379   -19839645.12649 -15440992.75247  20478610.733    20478618.988
  21702998.462   -16235087.07149 -12640023.53147  21702998.137    21703007.202
  22321591.736   -10157067.26649  -7902506.81246  22321591.124    22321599.988
  21361996.436   -21565520.40249 -16780809.29947  21361995.998    21362003.353
 03  3 29  1 11  0.0000000  0  8G14G17G 9G31G15G 3G23G18
  20813870.675   -16968124.75849 -13192487.50747  20813870.277    20813878.057
  22574357.923   -14841462.26149 -11553664.93045  22574357.258    22574368.015
  23438970.852    -4300818.72449  -3342504.01245  23438970.099    23438980.702
  22691392.053    -7365968.28649  -5729690.16846  22691391.607    22691401.953
  20484586.376   -19808246.10749 -15416525.98447  20484585.726    20484593.985
  21704913.941   -16225020.63549 -12632179.55047  21704913.651    21704922.819
  22331887.193   -10102965.04549  -7860349.27046  22331886.507    22331895.304
  21371247.272   -21516906.75749 -16742928.55247  21371246.893    21371254.212
 03  3 29  1 11 30.0000000  0  8G14G17G 9G31G15G 3G23G18
  20802933.473   -17025600.04449 -13237273.37347  20802933.079    20802940.806
  22588662.353   -14766291.16849 -11495090.13545  22588661.774    22588672.595
  23437726.091    -4307359.20749  -3347600.46545  23437725.480    23437735.992
  22683794.278    -7405895.17549  -5760801.93846  22683793.816    22683804.068
  20490639.449   -19776436.82749 -15391739.53447  20490638.796    20490647.036
  21706935.251   -16214398.39949 -12623902.48347  21706934.982    21706944.207
  22342193.040   -10048807.62449  -7818148.71046  22342192.372    22342201.094
  21380527.351   -21468139.69149 -16704928.24447  21380526.959    21380534.320
 03  3 29  1 12  0.0000000  0  8G14G17G 9G31G15G 3G23G18
  20792090.242   -17082581.80349 -13281674.67647  20792089.796    20792097.397
  22603024.441   -14690817.36949 -11436279.47445  22603024.002    22603034.886
  23436589.677    -4313329.91749  -3352252.96045  23436589.197    23436599.794
  22676300.146    -7445277.00349  -5791488.99546  22676299.685    22676309.831
  20496770.619   -19744217.20549 -15366633.33547  20496769.961    20496778.160
  21709062.082   -16203221.57349 -12615193.26447  21709061.819    21709071.041
  22352509.162    -9994596.00049  -7775905.91046  22352508.510    22352517.167
  21389836.462   -21419220.23149 -16666809.19347  21389836.084    21389843.336
 03  3 29  1 12 30.0000000  0  8G14G17G 9G31G15G 3G23G18
  20781341.297   -17139067.87049 -13325689.73347  20781340.837    20781348.299
  22617444.282   -14615041.18049 -11377233.17645  22617443.869    22617454.741
  23435561.841    -4318729.05249  -3356460.05745  23435561.628    23435572.189
  22668909.933    -7484111.88549  -5821749.86446  22668909.511    22668919.776
  20502980.067   -19711586.32649 -15341206.67947  20502979.383    20502987.605
  21711294.533   -16191490.30149 -12606052.00247  21711294.244    21711303.416
  22362835.467    -9940330.05949  -7733620.78546  22362834.911    22362843.724
  21399174.586   -21370148.69949 -16628571.64947  21399174.130    21399181.328
 03  3 29  1 13  0.0000000  0  8G14G17G 9G31G15G 3G23G18
  20770686.714   -17195057.68249 -13369318.09247  20770686.273    20770693.609
  22631921.721   -14538963.20649 -11317951.71545  22631921.216    22631932.106
  23434642.870    -4323556.42449  -3360221.62945  23434642.945    23434653.635
  22661623.899    -7522399.31649  -5851584.15946  22661623.495    22661633.938
  20509267.784   -19678544.32649 -15315459.66747  20509267.080    20509275.365
  21713632.206   -16179205.88249 -12596479.71347  21713631.905    21713641.017
  22373172.012    -9886011.06049  -7691294.32246  22373171.466    22373180.389
  21408541.142   -21320926.55849 -16590216.74047  21408540.756    21408548.084
 03  3 29  1 13 30.0000000  0  8G14G17G 9G31G15G 3G23G18
  20760126.664   -17250550.72749 -13412559.35847  20760126.214    20760133.479
  22646456.422   -14462584.40349 -11258435.84245  22646455.774    22646466.910
  23433832.786    -4327811.56149  -3363537.30645  23433833.066    23433843.967
  22654442.287    -7560138.73249  -5880991.41646  22654441.946    22654452.278
  20515633.615   -19645091.53049 -15289392.55747  20515632.923    20515641.313
  21716074.945   -16166369.38649 -12586477.23947  21716074.634    21716083.719
  22383518.594    -9831640.15549  -7648927.41846  22383517.913    22383526.836
  21417936.366   -21271555.01349 -16551745.41747  21417935.911    21417943.185
 03  3 29  1 14  0.0000000  0  8G14G17G 9G31G15G 3G23G18
  20749661.478   -17305545.11549 -13455412.05747  20749661.039    20749668.304
  22661048.249   -14385904.55349 -11198685.39345  22661047.623    22661058.950
  23433131.978    -4331492.94049  -3366405.90045  23433132.370    23433143.536
  22647365.396    -7597328.46249  -5909970.34446  22647365.005    22647375.274
  20522077.758   -19611226.92349 -15263004.55447  20522077.092    20522085.578
  21718622.582   -16152981.28749 -12576044.94647  21718622.301    21718631.393
  22393874.888    -9777217.21149  -7606519.95446  22393874.233    22393883.150
  21427359.690   -21222034.53049 -16513158.04247  21427359.268    21427366.574
 03  3 29  1 14 30.0000000  0  8G14G17G 9G31G15G 3G23G18
  20739291.299   -17360040.11849 -13497875.62247  20739290.878    20739298.204
  22675697.080   -14308925.14149 -11138701.52445  22675696.352    22675707.807
  23432540.578    -4334599.96949  -3368826.94445  23432541.119    23432552.339
  22640393.224    -7633967.79449  -5938520.40146  22640392.762    22640402.970
  20528600.230   -19576950.70049 -15236295.81047  20528599.586    20528608.121
  21721274.901   -16139042.84049 -12565183.81247  21721274.625    21721283.782
  22404240.880    -9722743.11949  -7564072.62746  22404240.277    22404249.244
  21436811.219   -21172366.27149 -16474455.51447  21436810.805    21436818.156
 03  3 29  1 15  0.0000000  0  8G14G17G 9G31G15G 3G23G18
  20729016.485   -17414034.26149 -13539948.90947  20729016.051    20729023.455
  22690402.947   -14231646.08849 -11078484.17145  22690402.161    22690413.510
  23432058.840    -4337131.61149  -3370799.64045  23432059.453    23432070.620
  22633525.839    -7670055.31649  -5966640.49046  22633525.377    22633535.568
  20535201.166   -19542262.38049 -15209265.95047  20535200.547    20535209.079
  21724031.854   -16124554.71549 -12553894.35747  21724031.616    21724040.781
  22414616.643    -9668217.99749  -7521585.55046  22414616.044    22414625.072
  21446290.704   -21122550.54249 -16435638.07047  21446290.362    21446297.784
 03  3 29  1 15 30.0000000  0  8G14G17G 9G31G15G 3G23G18
  20718837.199   -17467526.03749 -13581630.74247  20718836.778    20718844.258
  22705165.650   -14154067.56649 -11018033.47245  22705164.961    22705176.152
  23431686.979    -4339086.49649  -3372322.91745  23431687.570    23431698.672
  22626763.632    -7705589.86049  -5994329.66546  22626763.228    22626773.411
  20541880.672   -19507161.40149 -15181914.53947  20541880.062    20541888.541
  21726893.353   -16109517.52249 -12542177.04947  21726893.095    21726902.257
  22425002.119    -9613642.16549  -7479058.95746  22425001.534    22425010.577
  21455798.453   -21072588.00749 -16396706.25347  21455798.029    21455805.262
 03  3 29  1 16  0.0000000  0  8G14G17G 9G31G15G 3G23G18
  20708753.815   -17520514.37349 -13622920.28347  20708753.428    20708760.890
  22719985.264   -14076190.16049 -10957349.86645  22719984.602    22719995.680
  23431425.206    -4340463.45749  -3373395.85845  23431425.621    23431436.469
  22620107.126    -7740570.11749  -6021586.92746  22620106.726    22620116.819
  20548638.900   -19471647.19449 -15154241.12947  20548638.243    20548646.644
  21729859.208   -16093932.14849 -12530032.58947  21729858.872    21729868.030
  22435397.290    -9559016.06549  -7436493.18846  22435396.658    22435405.673
  21465333.921   -21022479.47049 -16357660.65247  21465333.439    21465340.584
 03  3 29  1 16 30.0000000  0  8G14G17G 9G31G15G 3G23G18
  20698766.421   -17572999.01749 -13663817.34247  20698765.963    20698773.316
  22734861.537   -13998015.60149 -10896434.70945  22734860.823    22734871.803
  23431273.625    -4341262.84549  -3374018.73745  23431273.776    23431284.341
  22613555.965    -7774996.26349  -6048412.43046  22613555.531    22613565.748
  20555475.578   -19435720.69949 -15126246.46247  20555474.891    20555483.222
  21732928.894   -16077800.76549 -12517462.66947  21732928.547    21732937.680
  22445801.666    -9504341.29149  -7393889.49146  22445800.995    22445809.961
  21474896.580   -20972226.61549 -16318502.59047  21474896.229    21474903.420
 03  3 29  1 17  0.0000000  0  8G14G17G 9G31G15G 3G23G18
  20688875.085   -17624978.45149 -13704320.73247  20688874.610    20688881.857
  22749794.393   -13919543.79249 -10835287.92845  22749793.646    22749804.680
  23431232.215    -4341483.37449  -3374190.56245  23431232.115    23431242.390
  22607110.536    -7808866.89449  -6074805.07546  22607110.133    22607120.367
  20562390.683   -19399381.25649 -15097930.01247  20562390.014    20562398.356
  21736102.416   -16061123.44349 -12504467.33547  21736102.100    21736111.211
  22456215.167    -9449617.91149  -7351247.92646  22456214.506    22456223.424
  21484486.868   -20921829.91849 -16279232.45747  21484486.469    21484493.691
 03  3 29  1 17 30.0000000  0  8G14G17G 9G31G15G 3G23G18
  20679079.920   -17676452.25349 -13744430.12347  20679079.441    20679086.595
  22764783.506   -13840776.00049 -10773910.51945  22764782.659    22764793.943
  23431300.810    -4341124.98149  -3373911.28245  23431300.498    23431310.467
  22600771.007    -7842181.57049  -6100764.49746  22600770.572    22600780.761
  20569384.237   -19362629.04549 -15069291.92347  20569383.662    20569392.041
  21739379.514   -16043901.84849 -12491047.89947  21739379.211    21739388.331
  22466637.762    -9394846.94049  -7308569.27746  22466637.091    22466646.041
  21494104.253   -20871290.40049 -16239851.03747  21494103.822    21494111.129
 03  3 29  1 18  0.0000000  0  8G14G17G 9G31G15G 3G23G18
  20669381.473   -17727417.90549 -13784143.55347  20669380.995    20669388.071
  22779828.809   -13761711.59849 -10712301.99945  22779828.043    22779839.755
  23431479.850    -4340185.36249  -3373179.07845  23431479.364    23431489.163
  22594537.613    -7874937.92049  -6126288.84446  22594537.198    22594547.301
  20576456.680   -19325462.30249 -15040330.81847  20576456.176    20576464.589
  21742760.368   -16026135.60949 -12477204.06047  21742760.030    21742769.092
  22477069.608    -9340027.27449  -7265852.67246  22477068.949    22477077.973
  21503748.822   -20820607.62149 -16200357.97947  21503748.415    21503755.857
 03  3 29  1 18 30.0000000  0  8G14G17G 9G31G15G 3G23G18
  20659779.826   -17777874.47649 -13823460.29847  20659779.373    20659786.432
  22794930.440   -13682351.29649 -10650462.89945  22794929.738    22794941.673
  23431769.318    -4338663.99949  -3371993.59245  23431768.914    23431778.608
  22588410.625    -7907135.22349  -6151377.57146  22588410.229    22588420.272
  20583608.144   -19287881.15549 -15011046.80847  20583607.645    20583616.033
  21746244.587   -16007826.03549 -12462936.83947  21746244.268    21746253.250
  22487510.603    -9285159.56649  -7223098.63246  22487509.990    22487519.019
  21513420.522   -20769782.31849 -16160753.86247  21513420.109    21513427.577
 03  3 29  1 19  0.0000000  0  8G14G17G 9G31G15G 3G23G18
  20650275.208   -17827820.77949 -13862379.43047  20650274.772    20650281.876
  22810088.665   -13602695.28949 -10588393.36045  22810087.924    22810099.789
  23432169.516    -4336559.67349  -3370353.83345  23432169.117    23432179.071
  22582390.215    -7938772.22849  -6176029.71846  22582389.728    22582399.848
  20590838.711   -19249885.04149 -14981439.44847  20590838.149    20590846.494
  21749832.020   -15988973.87049 -12448246.82147  21749831.665    21749840.660
  22497960.710    -9230244.01549  -7180307.32746  22497960.067    22497969.010
  21523119.095   -20718815.13049 -16121039.17947  21523118.745    21523126.254
 03  3 29  1 19 30.0000000  0  8G14G17G 9G31G15G 3G23G18
  20640867.809   -17877256.47849 -13900900.68847  20640867.365    20640874.556
  22825302.859   -13522745.09949 -10526094.58845  22825302.202    22825313.880
  23432680.705    -4333872.47349  -3368259.89145  23432680.393    23432690.513
  22576476.416    -7969848.72349  -6200245.11946  22576475.951    22576486.104
  20598148.246   -19211474.27149 -14951508.98447  20598147.599    20598155.860
  21753522.400   -15969580.75449 -12433135.28847  21753522.030    21753531.037
  22508419.652    -9175281.76249  -7137479.62246  22508419.035    22508427.909
  21532844.544   -20667707.42849 -16081215.01347  21532844.212    21532851.812
 03  3 29  1 20  0.0000000  0  8G14G17G 9G31G15G 3G23G18
  20631557.950   -17926179.82249 -13939022.71247  20631557.510    20631564.772
  22840572.820   -13442500.63149 -10463566.51745  22840572.311    22840583.934
  23433303.041    -4330601.15949  -3365710.80545  23433302.702    23433312.972
  22570669.718    -8000363.36449  -6224022.69846  22570669.221    22570679.304
  20605536.717   -19172648.34749 -14921255.02947  20605536.014    20605544.206
  21757315.594   -15949647.19949 -12417602.63347  21757315.224    21757324.274
  22518887.709    -9120272.65249  -7094615.40946  22518887.048    22518895.846
  21542597.022   -20616459.28749 -16041281.41647  21542596.551    21542603.962
 03  3 29  1 20 30.0000000  0  8G14G17G 9G31G15G 3G23G18
  20622345.700   -17974590.25249 -13976745.06647  20622345.268    20622352.497
  22855898.550   -13361962.67849 -10400809.76945  22855898.051    22855909.908
  23434036.524    -4326745.16249  -3362706.11945  23434036.284    23434046.725
  22564970.108    -8030315.36249  -6247361.84946  22564969.577    22564979.566
  20613004.093   -19133407.24149 -14890677.55447  20613003.375    20613011.569
  21761211.324   -15929174.55849 -12401649.91347  21761211.017    21761220.109
  22529364.489    -9065217.19649  -7051715.08746  22529363.836    22529372.613
  21552375.782   -20565071.69749 -16001239.15447  21552375.331    21552382.668
 03  3 29  1 21  0.0000000  0  8G14G17G 9G31G15G 3G23G18
  20613231.168   -18022487.22549 -14014067.31847  20613230.717    20613237.918
  22871279.832   -13281133.02949 -10337825.72445  22871279.223    22871291.466
  23434881.179    -4322304.69049  -3359245.98345  23434881.060    23434891.803
  22559377.334    -8059704.68849  -6270262.55446  22559376.809    22559386.787
  20620550.261   -19093751.37049 -14859776.88347  20620549.561    20620557.862
  21765209.397   -15908164.47249 -12385278.40447  21765209.099    21765218.225
  22539849.715    -9010116.47849  -7008779.49446  22539849.157    22539857.931
  21562180.864   -20513545.57249 -15961088.93847  21562180.463    21562187.757
 03  3 29  1 21 30.0000000  0  8G14G17G 9G31G15G 3G23G18
  20604214.546   -18069869.65549 -14050988.63347  20604214.109    20604221.276
  22886716.608   -13200011.70649 -10274614.40845  22886715.986    22886728.523
  23435837.371    -4317278.72749  -3355329.64045  23435837.308    23435848.263
  22553891.966    -8088530.20649  -6292723.92546  22553891.476    22553901.421
  20628175.471   -19053680.15549 -14828552.57647  20628174.822    20628183.200
  21769309.593   -15886617.73849 -12368488.72747  21769309.311    21769318.457
  22550343.591    -8954970.59049  -6965808.70946  22550343.062    22550351.857
  21572012.182   -20461881.63149 -15920831.33647  21572011.747    21572018.997
 03  3 29  1 22  0.0000000  0  8G14G17G 9G31G15G 3G23G18
  20595295.973   -18116736.92749 -14087508.52947  20595295.534    20595302.646
  22902208.836   -13118599.85949 -10211176.69845  22902208.250    22902220.703
  23436905.098    -4311667.28549  -3350957.06845  23436905.039    23436916.071
  22548514.045    -8116791.60549  -6314745.72646  22548513.519    22548523.481
  20635879.738   -19013193.91849 -14797004.86947  20635879.078    20635887.491
  21773511.535   -15864536.27949 -12351282.39047  21773511.252    21773520.392
  22560846.075    -8899780.38249  -6922803.38946  22560845.481    22560854.259
  21581869.661   -20410080.94049 -15880467.19047  21581869.133    21581876.346
 03  3 29  1 22 30.0000000  0  8G14G17G 9G31G15G 3G23G18
  20586475.445   -18163088.80749 -14123626.81647  20586475.000    20586482.115
  22917756.424   -13036898.06549 -10147513.05945  22917755.827    22917767.938
  23438084.266    -4305470.06849  -3346128.05945  23438084.232    23438095.402
  22543243.386    -8144488.52949  -6336327.69546  22543242.868    22543252.832
  20643662.997   -18972292.92049 -14765133.97347  20643662.290    20643670.665
  21777815.043   -15841921.39049 -12333660.39746  21777814.713    21777823.864
  22571356.969    -8844546.55749  -6879764.08446  22571356.245    22571365.048
  21591752.679   -20358144.65149 -15839997.36547  21591752.221    21591759.600
 03  3 29  1 23  0.0000000  0  8G14G17G 9G31G15G 3G23G18
  20577753.148   -18208924.24749 -14159342.68447  20577752.738    20577759.804
  22933358.896   -12954907.64349 -10083624.52145  22933358.187    22933370.056
  23439374.853    -4298686.73349  -3340842.34245  23439374.859    23439386.165
  22538080.444    -8171620.28949  -6357469.26346  22538079.932    22538089.588
  20651525.253   -18930977.10049 -14732939.84347  20651524.507    20651532.815
  21782219.674   -15818774.62549 -12315623.95446  21782219.343    21782228.546
  22581875.733    -8789269.50949  -6836691.08446  22581875.063    22581884.132
  21601661.469   -20306073.46949 -15799422.43547  21601661.101    21601668.463
 03  3 29  1 23 30.0000000  0  8G14G17G 9G31G15G 3G23G18
  20569129.477   -18254241.84649 -14194655.04347  20569129.038    20569136.033
  22949016.123   -12872628.14549 -10019510.73145  22949015.527    22949027.225
  23440777.244    -4291316.15349  -3335099.02745  23440777.288    23440788.665
  22533025.315    -8198185.58949  -6378169.40546  22533024.771    22533034.110
  20659466.515   -18889245.75649 -14700421.92247  20659465.749    20659474.013
  21786725.459   -15795096.25449 -12297173.27546  21786725.194    21786734.405
  22592402.725    -8733949.07549  -6793584.27146  22592402.145    22592411.376
  21611596.036   -20253867.30349 -15758742.32347  21611595.594    21611602.979
 03  3 29  1 24  0.0000000  0  8G14G17G 9G31G15G 3G23G18
  20560604.453   -18299040.87049 -14229563.32247  20560604.040    20560610.947
  22964728.153   -12790060.90849  -9955172.74145  22964727.560    22964739.161
  23442291.598    -4283357.70549  -3328897.61945  23442291.650    23442303.082
  22528077.917    -8224183.69949  -6398427.59746  22528077.427    22528086.714
  20667486.797   -18847098.79049 -14667580.13647  20667486.047    20667494.306
  21791332.209   -15770887.70849 -12278309.46946  21791331.925    21791341.122
  22602938.052    -8678585.63349  -6750443.95646  22602937.432    22602946.622
  21621556.081   -20201527.09649 -15717957.77047  21621555.648    21621563.027
 03  3 29  1 24 30.0000000  0  8G14G17G 9G31G15G 3G23G18
  20552178.380   -18343320.03649 -14264066.51347  20552177.973    20552184.859
  22980494.883   -12707206.53949  -9890611.01445  22980494.234    22980505.788
  23443917.950    -4274810.82049  -3322237.68445  23443918.013    23443929.378
  22523238.547    -8249613.66349  -6418243.11246  22523238.077    22523247.591
  20675586.223   -18804535.85449 -14634414.22047  20675585.510    20675593.768
  21796039.593   -15746150.05149 -12259033.36946  21796039.306    21796048.473
  22613481.540    -8623179.17549  -6707270.11146  22613480.943    22613490.093
  21631541.699   -20149052.96449 -15677068.86047  21631541.236    21631548.548
 03  3 29  1 25  0.0000000  0  8G14G17G 9G31G15G 3G23G18
  20543851.226   -18387079.47949 -14298164.72347  20543850.788    20543857.733
  22996316.360   -12624066.04749  -9825826.30845  22996315.591    22996326.863
  23445656.438    -4265675.84649  -3315119.50145  23445656.530    23445667.655
  22518507.448    -8274475.72649  -6437616.08846  22518506.972    22518516.527
  20683764.756   -18761557.68249 -14600924.74247  20683764.028    20683772.296
  21800847.270   -15720885.55549 -12239346.74546  21800846.968    21800856.107
  22624032.978    -8567730.91949  -6664063.70446  22624032.388    22624041.497
  21641552.373   -20096446.36949 -15636076.72747  21641551.916    21641559.236
 03  3 29  1 25 30.0000000  0  8G14G17G 9G31G15G 3G23G18
  20535622.804   -18430319.67849 -14331858.32647  20535622.385    20535629.460
  23012191.919   -12540641.56249  -9760820.31245  23012191.121    23012202.154
  23447506.763    -4255953.67349  -3307543.75945  23447506.739    23447517.627
  22513884.301    -8298770.64849  -6456547.11846  22513883.782    22513893.319
  20692022.074   -18718165.45449 -14567112.62347  20692021.342    20692029.588
  21805754.728   -15695096.72549 -12219251.55146  21805754.401    21805763.558
  22634592.081    -8512242.45149  -6620825.96546  22634591.538    22634600.502
  21651587.792   -20043709.46449 -15594983.05047  21651587.378    21651594.739
 03  3 29  1 26  0.0000000  0  8G14G17G 9G31G15G 3G23G18
  20527493.530   -18473038.69149 -14365145.81147  20527493.132    20527500.321
  23028121.512   -12456932.51849  -9695592.58645  23028120.713    23028131.706
  23449469.247    -4245642.47149  -3299509.02745  23449469.090    23449479.644
  22509369.262    -8322496.40549  -6475034.64646  22509368.808    22509378.315
  20700358.420   -18674357.88449 -14532976.86047  20700357.661    20700365.937
  21810761.952   -15668783.48449 -12198747.71746  21810761.614    21810770.799
  22645159.157    -8456712.76749  -6577556.11746  22645158.553    22645167.388
  21661648.178   -19990841.42449 -15553787.19147  21661647.813    21661655.190
 03  3 29  1 26 30.0000000  0  8G14G17G 9G31G15G 3G23G18
  20519463.774   -18515235.15549 -14398026.11547  20519463.391    20519470.616
  23044104.862   -12372939.25549  -9630143.40045  23044104.059    23044115.181
  23451543.924    -4234741.64749  -3291014.85545  23451543.704    23451553.719
  22504962.787    -8345652.16349  -6493078.01646  22504962.359    22504971.758
  20708773.792   -18630134.58649 -14498517.15547  20708773.035    20708781.385
  21815868.684   -15641946.86149 -12177836.06646  21815868.399    21815877.629
  22655733.956    -8401141.68649  -6534253.99046  22655733.392    22655742.346
  21671733.697   -19937842.41449 -15512489.29047  21671733.241    21671740.623
 03  3 29  1 27  0.0000000  0  8G14G17G 9G31G15G 3G23G18
  20511533.710   -18556907.92749 -14430498.35247  20511533.301    20511540.448
  23060142.098   -12288662.27149  -9564473.14345  23060141.436    23060152.712
  23453730.758    -4223250.36549  -3282060.58145  23453730.480    23453740.174
  22500665.118    -8368236.83649  -6510676.38146  22500664.604    22500674.009
  20717268.350   -18585495.06849 -14463733.11947  20717267.614    20717276.058
  21821074.937   -15614587.72149 -12156517.25646  21821074.674    21821083.826
  22666316.664    -8345529.06049  -6490919.51046  22666316.096    22666325.102
  21681843.844   -19884712.40549 -15471089.29247  21681843.452    21681850.898
 03  3 29  1 27 30.0000000  0  8G14G17G 9G31G15G 3G23G18
  20503703.274   -18598057.17249 -14462562.64947  20503702.852    20503709.860
  23076233.058   -12204102.82349  -9498582.78245  23076232.517    23076243.860
  23456029.644    -4211169.03149  -3272646.52445  23456029.558    23456039.064
  22496475.920    -8390250.60849  -6527829.89646  22496475.454    22496484.874
  20725842.050   -18540439.71349 -14428625.06347  20725841.349    20725849.849
  21826380.383   -15586708.11449 -12134792.87847  21826380.071    21826389.121
  22676907.206    -8289875.90649  -6447553.44346  22676906.544    22676915.495
  21691978.771   -19831452.72349 -15429588.25547  21691978.416    21691985.904
 03  3 29  1 28  0.0000000  0  8G14G17G 9G31G15G 3G23G18
  20495972.760   -18638681.51849 -14494217.93447  20495972.304    20495979.215
  23092377.822   -12119261.10749  -9432472.46345  23092377.320    23092388.748
  23458440.894    -4198496.79349  -3262772.05245  23458440.790    23458450.450
  22492395.655    -8411692.40549  -6544537.72446  22492395.159    22492404.569
  20734495.018   -18494968.08249 -14393192.64047  20734494.328    20734502.840
  21831784.650   -15558309.00849 -12112663.69547  21831784.320    21831793.327
  22687505.159    -8234181.98249  -6404155.60646  22687504.618    22687513.765
  21702138.272   -19778063.62449 -15387986.37447  21702137.933    21702145.533
 03  3 29  1 28 30.0000000  0  8G14G17G 9G31G15G 3G23G18
  20488342.026   -18678780.98749 -14525464.22347  20488341.586    20488348.439
  23108576.229   -12034138.73849  -9366143.46345  23108575.695    23108586.970
  23460964.267    -4185234.27149  -3252437.58745  23460964.333    23460974.323
  22488424.170    -8432562.35249  -6560799.94346  22488423.688    22488433.097
  20743227.058   -18449080.87849 -14357436.39447  20743226.373    20743234.853
  21837287.377   -15529392.33649 -12090131.22447  21837287.011    21837296.036
  22698110.825    -8178448.15549  -6360726.68346  22698110.315    22698119.725
  21712322.374   -19724546.21049 -15346284.51747  21712322.062    21712329.542
 03  3 29  1 29  0.0000000  0  8G14G17G 9G31G15G 3G23G18
  20480811.286   -18718355.05749 -14556301.10647  20480810.850    20480817.689
  23124828.015   -11948736.28749  -9299596.20745  23124827.484    23124838.755
  23463600.016    -4171381.41749  -3241643.16745  23463600.178    23463610.534
  22484561.470    -8452860.30849  -6576616.46146  22484561.062    22484570.465
  20752038.220   -18402778.42649 -14321356.57647  20752037.503    20752045.867
  21842888.191   -15499959.82749 -12067196.80147  21842887.823    21842896.856
  22708724.150    -8122674.90749  -6317267.05046  22708723.558    22708733.034
  21722530.895   -19670901.23549 -15304483.25847  21722530.445    21722537.869
 03  3 29  1 29 30.0000000  0  8G14G17G 9G31G15G 3G23G18
  20473380.537   -18757403.42549 -14586728.35447  20473380.124    20473386.982
  23141132.654   -11863055.32849  -9232831.94845  23141132.128    23141143.616
  23466348.212    -4156938.17849  -3230388.67445  23466348.495    23466359.054
  22480807.714    -8472585.95749  -6591987.02546  22480807.331    22480816.682
  20760928.393   -18356060.74849 -14284953.20447  20760927.599    20760935.889
  21848586.806   -15470013.16949 -12043861.74447  21848586.498    21848595.544
  22719344.903    -8066862.61549  -6273776.97846  22719344.315    22719353.675
  21732763.273   -19617129.43649 -15262583.17347  21732762.901    21732770.442
 03  3 29  1 30  0.0000000  0  8G14G17G 9G31G15G 3G23G18
  20466050.057   -18795925.12949 -14616745.21647  20466049.649    20466056.465
  23157490.124   -11777096.41649  -9165851.08945  23157489.494    23157501.343
  23469209.133    -4141904.21949  -3218673.89045  23469209.335    23469219.938
  22477162.975    -8491738.80849  -6606911.23946  22477162.574    22477171.928
  20769897.527   -18308927.79449 -14248226.25147  20769896.720    20769904.906
  21854382.997   -15439553.82949 -12020127.19846  21854382.706    21854391.744
  22729973.064    -8011011.34749  -6230256.54246  22729972.508    22729981.867
  21743019.765   -19563231.25949 -15220584.61347  21743019.401    21743027.002
 03  3 29  1 30 30.0000000  0  8G14G17G 9G31G15G 3G23G18
  20458819.758   -18833920.57949 -14646352.01247  20458819.314    20458826.072
  23173900.523   -11690861.13149  -9098654.89145  23173899.693    23173911.668
  23472182.610    -4126280.17549  -3206499.28245  23472182.655    23472193.078
  22473627.209    -8510319.17149  -6621389.37846  22473626.792    22473636.238
  20778945.488   -18261380.38949 -14211176.34447  20778944.666    20778952.776
  21860276.406   -15408583.85049 -11995994.75346  21860276.116    21860285.136
  22740608.486    -7955122.13149  -6186706.53946  22740607.925    22740617.306
  21753300.015   -19509208.01949 -15178488.60747  21753299.684    21753307.309
 03  3 29  1 31  0.0000000  0  8G14G17G 9G31G15G 3G23G18
  20451689.685   -18871389.03649 -14675548.16747  20451689.250    20451695.984
  23190363.119   -11604350.36149  -9031244.03545  23190362.286    23190374.233
  23475268.584    -4110066.13049  -3193864.94245  23475268.439    23475278.358
  22470200.422    -8528326.79449  -6635421.25246  22470199.984    22470209.489
  20788072.370   -18213418.59149 -14173803.53147  20788071.557    20788079.606
  21866266.606   -15377105.00549 -11971465.78846  21866266.309    21866275.345
  22751251.431    -7899195.09449  -6143127.07446  22751250.617    22751259.943
  21763604.117   -19455060.30549 -15136295.61346  21763603.681    21763611.276
 03  3 29  1 31 30.0000000  0  8G14G17G 9G31G15G 3G23G18
  20444660.155   -18908329.31549 -14704332.74947  20444659.697    20444666.453
  23206877.979   -11517563.93249  -8963618.36745  23206877.313    23206889.147
  23478466.888    -4093260.93149  -3180769.96345  23478466.356    23478476.306
  22466882.852    -8545760.50749  -6649005.91646  22466882.451    22466891.928
  20797278.168   -18165041.68649 -14136107.25347  20797277.384    20797285.416
  21872353.555   -15345117.96749 -11946540.83146  21872353.265    21872362.255
  22761901.211    -7843229.79449  -6099517.77146  22761900.474    22761909.920
  21773931.666   -19400787.66949 -15094005.26446  21773931.281    21773939.036
 03  3 29  1 32  0.0000000  0  8G14G17G 9G31G15G 3G23G18
  20437731.127   -18944740.94749 -14732705.39647  20437730.704    20437737.551
  23223445.189   -11430502.84949  -8895778.65845  23223444.434    23223456.388
  23481777.285    -4075864.88449  -3167214.58345  23481776.744    23481786.622
  22463674.619    -8562620.20449  -6662143.28046  22463674.212    22463683.508
  20806563.005   -18116249.83949 -14098087.64547  20806562.237    20806570.289
  21878536.912   -15312624.45449 -11921221.21546  21878536.624    21878545.651
  22772558.040    -7787226.64949  -6055878.98546  22772557.526    22772566.949
  21784283.013   -19346391.00449 -15051618.28546  21784282.644    21784290.350
 03  3 29  1 32 30.0000000  0  8G14G17G 9G31G15G 3G23G18
  20430902.820   -18980623.50949 -14760665.78447  20430902.421    20430909.357
  23240064.372   -11343168.19849  -8827725.79545  23240063.679    23240075.838
  23485200.025    -4057877.73049  -3153198.60845  23485199.416    23485209.440
  22460575.555    -8578905.46649  -6674833.02546  22460575.128    22460584.303
  20815926.759   -18067043.27249 -14059744.88447  20815925.974    20815934.083
  21884816.327   -15279626.07649 -11895508.20346  21884815.987    21884825.137
  22783222.721    -7731185.66949  -6012210.72746  22783222.003    22783231.146
  21794658.097   -19291870.68149 -15009134.93846  21794657.593    21794665.210
 03  3 29  1 33  0.0000000  0  8G14G17G 9G31G15G 3G23G18
  20424175.509   -19015975.87249 -14788213.03347  20424175.098    20424181.988
  23256735.509   -11255560.16149  -8759459.90045  23256734.927    23256747.268
  23488735.196    -4039299.19649  -3138721.81945  23488734.568    23488744.848
  22457585.864    -8594615.58449  -6687074.63646  22457585.457    22457594.716
  20825369.542   -18017421.57449 -14021078.64447  20825368.727    20825376.937
  21891191.619   -15246123.74549 -11869402.49247  21891191.294    21891200.472
  22793894.194    -7675106.51349  -5968512.70446  22793893.516    22793902.672
  21805056.417   -19237226.58849 -14966555.14746  21805055.964    21805063.568
 03  3 29  1 33 30.0000000  0  8G14G17G 9G31G15G 3G23G18
  20417549.172   -19050797.80749 -14815346.96447  20417548.735    20417555.501
  23273458.593   -11167679.68249  -8690981.71545  23273458.060    23273470.512
  23492382.614    -4020129.44349  -3123784.34345  23492382.133    23492392.643
  22454705.730    -8609750.44749  -6698867.99946  22454705.291    22454714.678
  20834891.204   -17967384.80449 -13982088.97047  20834890.366    20834898.718
  21897662.469   -15212119.32049 -11842905.54547  21897662.124    21897671.283
  22804572.794    -7618989.56749  -5924785.25446  22804572.173    22804581.346
  21815478.192   -19182459.58249 -14923879.58146  21815477.799    21815485.389
 03  3 29  1 34  0.0000000  0  8G14G17G 9G31G15G 3G23G18
  20411023.569   -19085090.01249 -14842068.12447  20411023.133    20411029.831
  23290233.287   -11079529.13749  -8622293.08645  23290232.906    23290245.235
  23496142.474    -4000369.77949  -3108387.19545  23496142.060    23496152.720
  22451934.952    -8624311.06349  -6710213.90246  22451934.489    22451943.998
  20844491.553   -17916934.30149 -13942776.91247  20844490.730    20844499.177
  21904228.296   -15177615.59049 -11816019.52547  21904227.919    21904237.102
  22815258.518    -7562836.22349  -5881029.42946  22815257.786    22815266.929
  21825923.138   -19127571.38149 -14881109.57446  21825922.768    21825930.320
 03  3 29  1 34 30.0000000  0  8G14G17G 9G31G15G 3G23G18
  20404598.834   -19118852.13649 -14868376.22647  20404598.371    20404605.016
  23307059.361   -10991108.87649  -8553394.30545  23307058.909    23307070.952
  23500014.791    -3980019.86549  -3092530.09045  23500014.548    23500025.120
  22449273.553    -8638297.17549  -6721112.13346  22449273.032    22449282.494
  20854170.520   -17866070.35549 -13903142.68547  20854169.749    20854178.251
  21910888.824   -15142614.30549 -11788745.79847  21910888.497    21910897.646
  22825950.748    -7506646.40049  -5837245.17946  22825950.194    22825959.463
  21836391.125   -19072562.20049 -14838245.29446  21836390.751    21836398.255
 03  3 29  1 35  0.0000000  0  8G14G17G 9G31G15G 3G23G18
  20398274.910   -19152084.15749 -14894271.25947  20398274.459    20398281.127
  23323936.491   -10902420.51849  -8484286.60045  23323935.875    23323947.683
  23503999.551    -3959080.33249  -3076213.56345  23503999.409    23504009.867
  22446721.427    -8651709.04449  -6731562.88946  22446720.898    22446730.173
  20863928.063   -17814793.58649 -13863186.77747  20863927.354    20863935.838
  21917643.588   -15107117.82149 -11761086.20947  21917643.261    21917652.389
  22836650.212    -7450420.79949  -5793433.06546  22836649.686    22836658.822
  21846881.684   -19017433.05949 -14795287.54546  21846881.389    21846889.031
 03  3 29  1 35 30.0000000  0  8G14G17G 9G31G15G 3G23G18
  20392051.939   -19184785.83649 -14919753.03947  20392051.507    20392058.199
  23340864.434   -10813465.30649  -8414970.95545  23340863.566    23340875.184
  23508096.460    -3937551.61449  -3059437.91845  23508096.323    23508106.828
  22444278.589    -8664546.81949  -6741566.29446  22444278.000    22444287.071
  20873764.143   -17763104.33449 -13822909.45747  20873763.444    20873771.871
  21924492.227   -15071127.85049 -11733042.07646  21924491.890    21924501.009
  22847356.430    -7394159.83949  -5749593.38646  22847355.884    22847364.852
  21857395.271   -18962184.75049 -14752236.94046  21857394.890    21857402.470
 03  3 29  1 36  0.0000000  0  8G14G17G 9G31G15G 3G23G18
  20385930.197   -19216955.67849 -14944820.40047  20385929.745    20385936.461
  23357843.023   -10724242.94149  -8345447.16645  23357842.182    23357853.716
  23512305.564    -3915432.84649  -3042202.49845  23512305.460    23512316.058
  22441944.962    -8676809.21749  -6751121.37846  22441944.385    22441953.487
  20883678.961   -17711001.58549 -13782309.92847  20883678.290    20883686.593
  21931434.614   -15034644.94949 -11704613.84446  21931434.314    21931443.441
  22858069.500    -7337862.59749  -5705725.42846  22858069.017    22858077.853
  21867931.477   -18906816.49449 -14709092.86746  21867931.077    21867938.645
 03  3 29  1 36 30.0000000  0  8G14G17G 9G31G15G 3G23G18
  20379909.775   -19248593.14849 -14969472.93047  20379909.322    20379916.018
  23374872.093   -10634754.17049  -8275715.77445  23374871.224    23374882.933
  23516626.697    -3892723.92549  -3024507.23445  23516626.818    23516637.583
  22439720.886    -8688495.83849  -6760227.82246  22439720.355    22439729.578
  20893672.579   -17658485.33849 -13741388.19947  20893671.892    20893680.057
  21938470.552   -14997670.43149 -11675802.53246  21938470.263    21938479.372
  22868789.870    -7281528.79249  -5661829.00746  22868789.166    22868797.959
  21878490.415   -18851328.58249 -14665855.56146  21878490.106    21878497.712
 03  3 29  1 37  0.0000000  0  8G14G17G 9G31G15G 3G23G18
  20373990.772   -19279697.73449 -14993710.23047  20373990.330    20373996.955
  23391951.360   -10544999.67049  -8205777.31745  23391950.780    23391962.756
  23521060.135    -3869424.79449  -3006352.06945  23521060.379    23521071.333
  22437606.562    -8699606.42749  -6768885.38346  22437606.038    22437615.266
  20903744.842   -17605555.67649 -13700144.32547  20903744.129    20903752.209
  21945599.859   -14960205.84649 -11646609.34546  21945599.568    21945608.624
  22879516.715    -7225158.51749  -5617904.14846  22879516.061    22879525.108
  21889072.389   -18795721.11249 -14622525.09446  21889071.951    21889079.541
 03  3 29  1 37 30.0000000  0  8G14G17G 9G31G15G 3G23G18
  20368172.985   -19310270.02849 -15017532.75347  20368172.568    20368179.145
  23409081.005   -10454981.09349  -8135633.07845  23409080.610    23409093.045
  23525605.485    -3845536.56449  -2987737.85845  23525605.982    23525617.128
  22435601.843    -8710141.85049  -6777094.75846  22435601.266    22435610.534
  20913895.605   -17552213.34949 -13658578.89647  20913894.882    20913902.956
  21952821.887   -14922253.96349 -11617036.44046  21952821.598    21952830.607
  22890250.205    -7168752.62049  -5573951.52446  22890249.730    22890258.978
  21899676.603   -18739995.43649 -14579102.52246  21899676.199    21899683.740
 03  3 29  1 38  0.0000000  0  8G14G17G 9G31G15G 3G23G18
  20362456.598   -19340309.89649 -15040940.40247  20362456.175    20362462.716
  23426261.066   -10364699.96449  -8065284.25845  23426260.757    23426273.246
  23530263.074    -3821059.78849  -2968665.03245  23530263.657    23530274.666
  22433706.428    -8720102.30449  -6784856.11146  22433705.838    22433715.128
  20924124.744   -17498459.03049 -13616692.43747  20924123.990    20924132.065
  21960136.177   -14883817.03949 -11587085.57846  21960135.914    21960144.951
  22900990.694    -7112311.43149  -5529971.40746  22900990.185    22900999.442
  21910303.337   -18684152.05349 -14535588.22646  21910302.913    21910310.398
 03  3 29  1 38 30.0000000  0  8G14G17G 9G31G15G 3G23G18
  20356841.362   -19369817.98249 -15063933.67747  20356840.922    20356847.502
  23443490.873   -10274158.13949  -7994732.29145  23443490.528    23443502.948
  23535032.616    -3795995.64049  -2949134.52145  23535033.245    23535044.159
  22431920.152    -8729488.63049  -6792170.10946  22431919.636    22431928.946
  20934431.965   -17444294.02049 -13574485.95347  20934431.215    20934439.330
  21967542.315   -14844897.63949 -11556758.76446  21967542.027    21967551.097
  22911737.659    -7055835.99749  -5485964.60746  22911737.084    22911746.381
  21920952.172   -18628192.35949 -14491983.30346  21920951.761    21920959.231
 03  3 29  1 39  0.0000000  0  8G14G17G 9G31G15G 3G23G18
  20351327.472   -19398793.63649 -15086512.06447  20351327.030    20351333.657
  23460770.233   -10183356.21649  -7923977.65345  23460769.916    23460781.986
  23539914.115    -3770343.82049  -2929146.07845  23539914.776    23539925.343
  22430243.221    -8738300.46649  -6799036.44646  22430242.686    22430252.049
  20944817.394   -17389717.89849 -13531959.11747  20944816.655    20944824.865
  21975040.088   -14805496.76849 -11526056.78146  21975039.747    21975048.876
  22922491.044    -6999325.97749  -5441930.85546  22922490.550    22922499.868
  21931623.159   -18572116.47149 -14448287.84846  21931622.753    21931630.064
 03  3 29  1 39 30.0000000  0  8G14G17G 9G31G15G 3G23G18
  20345914.795   -19427237.10349 -15108675.76247  20345914.357    20345920.972
  23478098.914   -10092295.35449  -7853021.24645  23478098.361    23478110.408
  23544907.468    -3744104.99249  -2908700.21145  23544907.959    23544918.278
  22428675.606    -8746538.17649  -6805455.39846  22428675.082    22428684.408
  20955280.871   -17334731.46449 -13489112.56247  20955280.152    20955288.530
  21982628.892   -14765616.94749 -11494981.60046  21982628.553    21982637.751
  22933251.193    -6942781.67949  -5397870.39446  22933250.591    22933259.923
  21942315.947   -18515925.17449 -14404502.44146  21942315.521    21942322.856
 03  3 29  1 40  0.0000000  0  8G14G17G 9G31G15G 3G23G18
  20340603.513   -19455147.92949 -15130424.41747  20340603.093    20340609.572
  23495476.569   -10000976.42949  -7781863.75745  23495475.940    23495488.009
  23550012.280    -3717279.73849  -2887797.39645  23550012.805    23550022.756
  22427217.233    -8754201.95149  -6811427.13746  22427216.761    22427226.015
  20965822.393   -17279335.09249 -13445946.57547  20965821.704    20965830.254
  21990308.449   -14725260.24049 -11463534.82446  21990308.126    21990317.388
  22944017.923    -6886203.23849  -5353783.34046  22944017.207    22944026.504
  21953030.609   -18459618.75649 -14360627.33746  21953030.194    21953037.731
 03  3 29  1 40 30.0000000  0  8G14G17G 9G31G15G 3G23G18
  20335393.844   -19482525.15849 -15151757.28947  20335393.400    20335399.762
  23512903.086    -9909399.76749  -7710505.41745  23512902.326    23512914.911
  23555228.442    -3689867.58849  -2866437.26045  23555228.945    23555239.081
  22425868.330    -8761290.77449  -6816950.85546  22425867.845    22425877.023
  20976442.180   -17223527.88849 -13402460.46347  20976441.501    20976450.152
  21998078.573   -14684427.46549 -11431717.07746  21998078.287    21998087.589
  22954791.147    -6829589.73949  -5309668.96346  22954790.429    22954799.891
  21963767.461   -18403196.71749 -14316662.14246  21963766.950    21963774.551
 03  3 29  1 41  0.0000000  0  8G14G17G 9G31G15G 3G23G18
  20330285.711   -19509368.52349 -15172674.15647  20330285.236    20330291.568
  23530378.394    -9817566.00049  -7638946.76745  23530377.649    23530390.559
  23560556.439    -3661868.82849  -2844620.01345  23560556.796    23560566.997
  22424628.762    -8767804.86149  -6822026.73846  22424628.173    22424637.375
  20987140.139   -17167310.17449 -13358654.46947  20987139.456    20987148.134
  22005938.963   -14643120.38349 -11399529.74146  22005938.715    22005948.024
  22965570.827    -6772941.17649  -5265527.25246  22965570.217    22965580.005
  21974526.005   -18346659.53549 -14272607.21746  21974525.593    21974533.110
 03  3 29  1 41 30.0000000  0  8G14G17G 9G31G15G 3G23G18
  20325279.065   -19535678.38349 -15193175.30347  20325278.593    20325284.980
  23547902.370    -9725476.46549  -7567188.84145  23547901.757    23547914.776
  23565995.705    -3633284.47549  -2822346.46145  23565996.120    23566006.477
  22423498.323    -8773744.85749  -6826655.27246  22423497.766    22423506.912
  20997916.118   -17110682.52149 -13314529.04247  20997915.405    20997924.041
  22013889.294   -14601341.37849 -11366974.67246  22013888.992    22013898.303
  22976357.104    -6716258.15149  -5221358.68646  22976356.520    22976366.490
  21985306.629   -18290007.72049 -14228462.99546  21985306.149    21985313.496
 03  3 29  1 42  0.0000000  0  8G14G17G 9G31G15G 3G23G18
  20320373.740   -19561455.82749 -15213261.58247  20320373.288    20320379.678
  23565474.517    -9633133.57349  -7495233.48445  23565473.951    23565487.011
  23571546.567    -3604116.01149  -2799617.77045  23571546.798    23571557.010
  22422476.963    -8779111.92949  -6830837.36846  22422476.452    22422485.492
  21008769.776   -17053646.60649 -13270085.49147  21008769.042    21008777.577
  22021928.886   -14559093.35749 -11334054.14346  22021928.616    22021937.847
  22987150.015    -6659541.74149  -5177164.14246  22987149.358    22987159.219
  21996108.509   -18233243.04149 -14184230.80246  21996108.051    21996115.541
 03  3 29  1 42 30.0000000  0  8G14G17G 9G31G15G 3G23G18
  20315570.076   -19586699.34849 -15232931.81847  20315569.574    20315575.958
  23583094.860    -9540537.89049  -7423081.12045  23583094.314    23583107.238
  23577208.701    -3574362.70749  -2776433.35145  23577208.758    23577219.005
  22421564.976    -8783905.04849  -6834572.22846  22421564.384    22421573.430
  21019701.363   -16996201.57349 -13225323.14747  21019700.584    21019709.017
  22030057.525   -14516377.13349 -11300768.76946  22030057.278    22030066.438
  22997949.422    -6602790.92249  -5132942.77446  22997948.781    22997958.448
  22006932.181   -18176364.51549 -14139909.89946  22006931.728    22006939.269
 03  3 29  1 43  0.0000000  0  8G14G17G 9G31G15G 3G23G18
  20310867.707   -19611409.98549 -15252186.82047  20310867.249    20310873.677
  23600763.171    -9447690.69349  -7350732.78845  23600762.612    23600775.357
  23582981.882    -3544025.96749  -2752794.30445  23582981.801    23582991.740
  22420761.811    -8788125.48149  -6837860.82146  22420761.210    22420770.284
  21030710.463   -16938349.03849 -13180243.26847  21030709.672    21030718.007
  22038274.747   -14473195.69149 -11267120.89946  22038274.450    22038283.573
  23008755.267    -6546006.40449  -5088695.13446  23008754.650    23008764.092
  22017777.261   -18119373.47349 -14095501.32346  22017776.741    22017784.423
 03  3 29  1 43 30.0000000  0  8G14G17G 9G31G15G 3G23G18
  20306266.660   -19635588.05549 -15271026.83447  20306266.224    20306272.714
  23618479.398    -9354593.22749  -7278189.42045  23618478.756    23618491.162
  23588865.861    -3513106.81749  -2728701.43545  23588865.618    23588875.356
  22420067.521    -8791773.88349  -6840703.68646  22420067.001    22420076.020
  21041796.884   -16880089.48349 -13134846.23547  21041796.108    21041804.404
  22046579.955   -14429551.54649 -11233112.48546  22046579.651    22046588.807
  23019567.673    -6489188.76749  -5044421.70346  23019566.965    23019576.021
  22028643.484   -18062270.83949 -14051005.79546  22028643.028    22028650.749
 03  3 29  1 44  0.0000000  0  8G14G17G 9G31G15G 3G23G18
  20301767.112   -19659233.15349 -15289451.54847  20301766.689    20301773.161
  23636243.147    -9261246.39249  -7205451.73245  23636242.409    23636254.423
  23594860.385    -3481605.36249  -2704154.81945  23594860.158    23594870.171
  22419482.091    -8794850.13049  -6843100.70546  22419481.556    22419490.618
  21052960.636   -16821422.75949 -13089131.92747  21052959.959    21052968.239
  22054972.937   -14385446.24749 -11198744.73046  22054972.660    22054981.783
  23030386.379    -6432337.66149  -5000122.19046  23030385.566    23030394.321
  22039531.255   -18005056.35649 -14006423.11146  22039530.680    22039538.343
 03  3 29  1 44 30.0000000  0  8G14G17G 9G31G15G 3G23G18
  20297369.070   -19682345.17449 -15307460.88547  20297368.614    20297375.016
  23654053.974    -9167651.23449  -7132520.56045  23654053.150    23654064.919
  23600965.525    -3449522.28149  -2679154.97845  23600965.222    23600975.569
  22419005.412    -8797354.43049  -6845052.08246  22419004.926    22419014.050
  21064201.842   -16762349.24049 -13043100.63947  21064201.237    21064209.550
  22063453.385   -14340881.65449 -11164019.07746  22063453.079    22063462.162
  23041211.341    -6375453.03649  -4955796.54046  23041210.382    23041219.180
  22050439.722   -17947730.36449 -13961753.52046  22050439.359    22050447.004
 03  3 29  1 45  0.0000000  0  8G14G17G 9G31G15G 3G23G18
  20293072.538   -19704923.39349 -15325054.26947  20293072.079    20293078.444
  23671911.546    -9073808.60849  -7059396.56445  23671910.678    23671922.621
  23607181.501    -3416857.33749  -2653701.76745  23607181.198    23607191.361
  22418637.738    -8799286.54649  -6846557.58746  22418637.251    22418646.359
  21075520.548   -16702868.75349 -12996752.22947  21075519.941    21075528.392
  22072020.870   -14295859.10849 -11128936.58146  22072020.568    22072029.676
  23052042.602    -6318534.26749  -4911444.28046  23052041.624    23052050.669
  22061369.808   -17890292.58349 -13916996.84346  22061369.452    22061376.855
 03  3 29  1 45 30.0000000  0  8G14G17G 9G31G15G 3G23G18
  20288877.560   -19726967.76949 -15342231.66947  20288877.123    20288883.518
  23689815.941    -8979719.21748  -6986080.28345  23689814.923    23689827.444
  23613507.921    -3383611.06849  -2627795.58445  23613507.670    23613517.932
  22418378.940    -8800646.66949  -6847617.37246  22418378.390    22418387.461
  21086916.657   -16642981.72649 -12950087.03647  21086916.022    21086924.604
  22080675.044   -14250380.70549 -11093498.88146  22080674.767    22080683.917
  23062880.111    -6261581.04249  -4867065.17246  23062879.231    23062888.509
  22072321.273   -17832743.12049 -13872153.12846  22072320.780    22072327.985
 03  3 29  1 46  0.0000000  0  8G14G17G 9G31G15G 3G23G18
  20284784.063   -19748478.86449 -15358993.52547  20284783.647    20284790.076
  23707767.096    -8885384.03749  -6912572.50845  23707766.434    23707778.982
  23619944.556    -3349784.64049  -2601437.30545  23619944.263    23619954.917
  22418228.756    -8801435.49549  -6848232.00346  22418228.214    22418237.275
  21098390.018   -16582689.03149 -12903105.73947  21098389.329    21098397.995
  22089415.640   -14204448.84149 -11057707.82846  22089415.336    22089424.480
  23073723.861    -6204593.83949  -4822659.57746  23073723.325    23073732.909
  22083293.717   -17775082.79249 -13827223.01646  22083293.264    22083300.525
 03  3 29  1 46 30.0000000  0  8G14G17G 9G31G15G 3G23G18
  20280791.953   -19769457.52749 -15375340.50347  20280791.520    20280797.952
  23725765.112    -8790804.75349  -6838874.48045  23725764.355    23725776.980
  23626491.348    -3315379.63749  -2574628.19845  23626491.291    23626501.856
  22418187.070    -8801654.26649  -6848402.44546  22418186.532    22418195.653
  21109940.348   -16521991.77349 -12855809.20547  21109939.583    21109948.381
  22098241.989   -14158066.32749 -11021565.62246  22098241.666    22098250.782
  23084574.329    -6147573.44449  -4778228.11646  23084573.862    23084583.738
  22094287.166   -17717312.77549 -13782207.43946  22094286.594    22094294.006
 03  3 29  1 47  0.0000000  0  8G14G17G 9G31G15G 3G23G18
  20276901.120   -19789904.10949 -15391272.87647  20276900.704    20276907.061
  23743809.337    -8695983.94648  -6764988.26444  23743808.293    23743820.922
  23633148.001    -3280397.23749  -2547369.17845  23633148.322    23633158.568
  22418253.731    -8801303.71449  -6848129.26846  22418253.147    22418262.340
  21121567.487   -16460890.86149 -12808198.12847  21121566.694    21121575.527
  22107153.520   -14111235.61049 -10985074.16646  22107153.176    22107162.361
  23095431.314    -6090520.14249  -4733771.01946  23095430.766    23095440.729
  22105300.819   -17659433.67149 -13737106.83746  22105300.469    22105308.102
 03  3 29  1 47 30.0000000  0  8G14G17G 9G31G15G 3G23G18
  20273111.608   -19809818.37149 -15406790.45147  20273111.137    20273117.445
  23761898.975    -8600922.25649  -6690914.34044  23761897.861    23761910.455
  23639914.666    -3244837.85649  -2519660.55945  23639914.978    23639925.073
  22418428.616    -8800384.04249  -6847412.62146  22418428.075    22418437.280
  21133271.344   -16399386.58349 -12760272.74647  21133270.551    21133279.368
  22116149.999   -14063958.58349 -10948234.93846  22116149.728    22116158.875
  23106294.808    -6033433.65449  -4689288.07046  23106294.095    23106303.805
  22116335.786   -17601445.53949 -13691921.30246  22116335.349    22116342.975
 03  3 29  1 48  0.0000000  0  8G14G17G 9G31G15G 3G23G18
  20269423.242   -19829200.47749 -15421893.36147  20269422.801    20269429.118
  23780034.642    -8505620.29349  -6616653.16144  23780033.665    23780045.648
  23646791.256    -3208702.13149  -2491502.82745  23646791.327    23646801.312
  22418711.843    -8798895.71649  -6846252.84646  22418711.299    22418720.452
  21145051.815   -16337479.26449 -12712033.30147  21145051.106    21145059.918
  22125231.051   -14016237.46949 -10911049.66346  22125230.771    22125239.858
  23117164.768    -5976313.90349  -4644779.19646  23117163.900    23117173.284
  22127391.528   -17543348.54149 -13646650.93446  22127390.876    22127398.545
 03  3 29  1 48 30.0000000  0  8G14G17G 9G31G15G 3G23G18
  20265835.885   -19848051.72149 -15436582.60947  20265835.444    20265841.793
  23798215.675    -8410080.53749  -6542206.69144  23798214.649    23798226.348
  23653777.349    -3171991.90049  -2462897.41445  23653777.180    23653787.138
  22419103.071    -8796840.31949  -6844651.21646  22419102.498    22419111.554
  21156908.719   -16275170.38849 -12663480.95847  21156908.087    21156916.837
  22134396.113   -13968075.24449 -10873520.67246  22134395.776    22134404.851
  23128040.535    -5919161.89749  -4600245.19146  23128039.681    23128049.024
  22138467.278   -17485143.99849 -13601296.74546  22138466.838    22138474.567
 03  3 29  1 49  0.0000000  0  8G14G17G 9G31G15G 3G23G18
  20262349.685   -19866371.71649 -15450857.90047  20262349.248    20262355.600
  23816441.507    -8314303.46149  -6467575.29344  23816440.333    23816452.546
  23660872.480    -3134707.53349  -2433844.65245  23660872.199    23660882.044
  22419602.095    -8794217.87149  -6842607.73046  22419601.543    22419610.609
  21168842.084   -16212460.16349 -12614615.87447  21168841.476    21168850.196
  22143644.726   -13919473.43849 -10835649.14846  22143644.384    22143653.528
  23138922.003    -5861977.09349  -4555685.61346  23138921.478    23138930.901
  22149563.883   -17426831.65649 -13555858.56746  22149563.367    22149571.156
 03  3 29  1 49 30.0000000  0  8G14G17G 9G31G15G 3G23G18
  20258964.779   -19884159.43449 -15464718.43047  20258964.341    20258970.675
  23834712.131    -8218289.35849  -6392759.22644  23834710.933    23834723.791
  23668076.814    -3096848.42149  -2404344.01945  23668076.492    23668086.464
  22420209.226    -8791027.49949  -6840121.71246  22420208.682    22420217.699
  21180852.027   -16149347.83049 -12565437.45847  21180851.382    21180860.146
  22152976.756   -13870433.01849 -10797435.84246  22152976.484    22152985.645
  23149810.311    -5804758.05249  -4511099.36146  23149809.900    23149819.265
  22160680.866   -17368410.73249 -13510335.78346  22160680.390    22160688.280
 03  3 29  1 50  0.0000000  0  8G14G17G 9G31G15G 3G23G18
  20255680.946   -19901416.08349 -15478165.14247  20255680.514    20255686.801
  23853027.588    -8122040.06249  -6317759.86445  23853026.723    23853039.521
  23675389.939    -3058416.53549  -2374397.07745  23675389.649    23675399.862
  22420924.139    -8787270.84849  -6837194.43246  22420923.558    22420932.510
  21192938.174   -16085834.72349 -12515946.76247  21192937.515    21192946.358
  22162391.680   -13820957.22249 -10758883.28446  22162391.396    22162400.549
  23160705.401    -5747505.73049  -4466487.19346  23160704.738    23160713.955
  22171818.308   -17309882.54949 -13464729.42046  22171817.890    22171825.710
 03  3 29  1 50 30.0000000  0  8G14G17G 9G31G15G 3G23G18
  20252498.213   -19918141.56849 -15491197.95647  20252497.778    20252504.048
  23871387.812    -8025556.81249  -6242578.19945  23871386.822    23871400.056
  23682811.927    -3019412.61149  -2344004.40145  23682811.970    23682822.117
  22421746.608    -8782948.35649  -6833826.22646  22421746.098    22421755.016
  21205100.448   -16021921.39549 -12466144.20747  21205099.765    21205108.719
  22171889.170   -13771048.28849 -10719993.22346  22171888.831    22171897.926
  23171606.562    -5690219.94749  -4421848.94246  23171605.831    23171615.106
  22182976.446   -17251247.02449 -13419039.42346  22182975.915    22182983.632
 03  3 29  1 51  0.0000000  0  8G14G17G 9G31G15G 3G23G18
  20249416.355   -19934336.87349 -15503817.64047  20249415.901    20249422.195
  23889792.259    -7928841.22649  -6167215.48345  23889791.451    23889804.430
  23690342.551    -2979838.41249  -2313167.36245  23690342.627    23690352.963
  22422676.470    -8778061.20349  -6830018.02946  22422675.995    22422684.973
  21217338.703   -15957609.08249 -12416030.75047  21217338.032    21217347.057
  22181468.545   -13720708.74049 -10680767.62246  22181468.189    22181477.257
  23182513.916    -5632901.18049  -4377184.99346  23182513.320    23182522.541
  22194154.572   -17192505.19449 -13373266.58146  22194154.097    22194161.815
 03  3 29  1 51 30.0000000  0  8G14G17G 9G31G15G 3G23G18
  20246435.330   -19950002.21249 -15516024.37047  20246434.895    20246441.144
  23908240.677    -7831894.30749  -6091672.51945  23908240.080    23908252.889
  23697981.820    -2939694.65349  -2281886.50345  23697981.869    23697992.370
  22423713.757    -8772610.06549  -6825770.36246  22423713.256    22423722.324
  21229652.875   -15892898.17849 -12365606.70447  21229652.217    21229661.181
  22191129.272   -13669940.94849 -10641208.32246  22191128.991    22191137.998
  23193427.812    -5575549.13649  -4332495.09445  23193427.104    23193436.183
  22205352.951   -17133657.03149 -13327410.88346  22205352.475    22205360.114
 03  3 29  1 52  0.0000000  0  8G14G17G 9G31G15G 3G23G18
  20243555.096   -19965138.04049 -15527818.49547  20243554.619    20243560.826
  23926733.003    -7734717.62449  -6015950.50545  23926732.447    23926745.099
  23705729.334    -2898982.54849  -2250162.78845  23705729.134    23705739.860
  22424858.211    -8766595.86549  -6821083.94246  22424857.704    22424866.815
  21242042.834   -15827789.58149 -12314872.75947  21242042.150    21242050.962
  22200871.127   -13618747.48149 -10601317.32046  22200870.857    22200879.764
  23204347.672    -5518164.16149  -4287779.55745  23204347.075    23204356.177
  22216571.436   -17074702.98549 -13281472.67346  22216571.058    22216578.695
 03  3 29  1 52 30.0000000  0  8G14G17G 9G31G15G 3G23G18
  20240775.411   -19979745.08349 -15539200.57547  20240774.953    20240781.130
  23945268.627    -7637312.46649  -5940050.48245  23945268.025    23945280.845
  23713584.740    -2857703.36049  -2217997.18045  23713584.577    23713595.110
  22426109.677    -8760019.39349  -6815959.39546  22426109.138    22426118.211
  21254508.179   -15762284.27449 -12263829.68947  21254507.520    21254516.199
  22210693.559   -13567130.53349 -10561096.34746  22210693.227    22210702.090
  23215273.705    -5460746.34149  -4243038.41045  23215273.291    23215282.387
  22227810.305   -17015643.46249 -13235452.29246  22227809.847    22227817.461
 03  3 29  1 53  0.0000000  0  8G14G17G 9G31G15G 3G23G18
  20238096.380   -19993823.41249 -15550170.67947  20238095.918    20238102.064
  23963847.632    -7539679.71149  -5863973.12345  23963847.134    23963859.869
  23721547.677    -2815857.94849  -2185390.35745  23721547.484    23721558.220
  22427467.936    -8752881.41049  -6810397.30246  22427467.437    22427476.465
  21267048.932   -15696382.69949 -12212477.83347  21267048.249    21267056.879
  22220596.026   -13515092.30549 -10520547.08646  22220595.742    22220604.664
  23226206.309    -5403295.52449  -4198271.55845  23226205.812    23226214.826
  22239069.065   -16956478.90249 -13189350.05746  22239068.523    22239076.111
 03  3 29  1 53 30.0000000  0  8G14G17G 9G31G15G 3G23G18
  20235517.922   -20007373.11149 -15560728.86547  20235517.463    20235523.587
  23982469.824    -7441821.12449  -5787719.76145  23982468.893    23982481.629
  23729617.996    -2773447.41649  -2152343.20745  23729617.907    23729628.872
  22428932.998    -8745182.39049  -6804398.03446  22428932.483    22428941.491
  21279664.887   -15630085.38249 -12160817.61947  21279664.245    21279672.863
  22230578.348   -13462634.97049 -10479671.24646  22230578.071    22230587.026
  23237145.229    -5345811.36749  -4153478.73745  23237144.719    23237153.486
  22250347.540   -16897209.22949 -13143165.91346  22250347.145    22250354.690
 03  3 29  1 54  0.0000000  0  8G14G17G 9G31G15G 3G23G18
  20233039.916   -20020394.95749 -15570875.72747  20233039.448    20233045.595
  24001134.404    -7343737.83749  -5711291.32345  24001133.571    24001146.241
  23737795.786    -2730472.80149  -2118856.51045  23737795.696    23737806.680
  22430504.648    -8736923.41049  -6797962.44546  22430504.095    22430513.074
  21292356.005   -15563393.19449 -12108849.71347  21292355.359    21292364.005
  22240639.961   -13409761.15449 -10438470.88446  22240639.656    22240648.608
  23248090.435    -5288293.99049  -4108660.01845  23248089.812    23248098.572
  22261646.317   -16837835.13449 -13096900.41346  22261645.774    22261653.346
 03  3 29  1 54 30.0000000  0  8G14G17G 9G31G15G 3G23G18
  20230662.218   -20032889.49849 -15580611.70647  20230661.764    20230667.970
  24019841.549    -7245431.04749  -5634688.72645  24019840.800    24019853.429
  23746080.781    -2686935.46749  -2084931.31545  23746080.481    23746091.522
  22432182.679    -8728105.37949  -6791091.21746  22432182.153    22432191.023
  21305122.101   -15496307.01349 -12056574.79847  21305121.481    21305130.135
  22250780.279   -13356473.38849 -10396947.96146  22250779.965    22250788.965
  23259042.179    -5230743.45649  -4063815.47845  23259041.451    23259050.117
  22272964.652   -16778356.68249 -13050553.58046  22272964.118    22272971.883
 03  3 29  1 55  0.0000000  0  8G14G17G 9G31G15G 3G23G18
  20228384.877   -20044856.95649 -15589936.96947  20228384.411    20228390.659
  24038591.230    -7146902.14249  -5557913.01045  24038590.380    24038603.142
  23754472.753    -2642836.55249  -2050568.48345  23754472.390    23754483.242
  22433966.974    -8718728.97549  -6783784.91046  22433966.408    22433975.362
  21317963.180   -15428827.04349 -12003993.03447  21317962.582    21317971.178
  22260998.940   -13302773.93149 -10355104.25146  22260998.601    22261007.700
  23270000.325    -5173159.45249  -4018944.86145  23269999.385    23270008.029
  22284302.669   -16718773.85949 -13004125.43346  22284302.298    22284310.170
 03  3 29  1 55 30.0000000  0  8G14G17G 9G31G15G 3G23G18
  20226207.571   -20056298.63949 -15598852.53547  20226207.108    20226213.353
  24057382.894    -7048153.29149  -5480965.93945  24057381.761    24057394.574
  23762971.172    -2598177.87349  -2015769.51045  23762970.658    23762981.508
  22435857.130    -8708795.88549  -6776044.82446  22435856.570    22435865.629
  21330878.827   -15360954.88749 -11951105.67347  21330878.200    21330886.788
  22271295.474   -13248665.62249 -10312941.94446  22271295.143    22271304.236
  23280964.368    -5115542.76249  -3974048.77045  23280963.535    23280972.193
  22295660.837   -16659087.87449 -12957616.90346  22295660.265    22295668.163
 03  3 29  1 56  0.0000000  0  8G14G17G 9G31G15G 3G23G18
  20224130.462   -20067213.97649 -15607357.96147  20224129.996    20224136.228
  24076216.098    -6949184.91649  -5403847.80845  24076214.743    24076227.798
  23771576.156    -2552959.39649  -1980534.30745  23771575.590    23771586.156
  22437853.346    -8698305.87549  -6767870.78146  22437852.738    22437861.828
  21343869.107   -15292690.25849 -11897912.48747  21343868.507    21343877.076
  22281669.538   -13194149.82649 -10270462.11846  22281669.172    22281678.282
  23291934.615    -5057892.21749  -3929126.28445  23291933.990    23291942.788
  22307038.480   -16599298.00149 -12911027.41146  22307037.919    22307045.969
 03  3 29  1 56 30.0000000  0  8G14G17G 9G31G15G 3G23G18
  20222153.260   -20077603.97349 -15615454.03947  20222152.815    20222159.010
  24095090.500    -6849998.57448  -5326559.82544  24095089.438    24095102.770
  23780287.217    -2507183.13749  -1944864.48945  23780286.580    23780297.059
  22439955.050    -8687260.65449  -6759264.09046  22439954.542    22439963.638
  21356933.691   -15224034.91549 -11844414.84547  21356933.083    21356941.760
  22292120.578   -13139229.49649 -10227667.05946  22292120.216    22292129.270
  23302911.482    -5000208.23049  -3884177.75545  23302910.901    23302919.788
  22318435.633   -16539405.04449 -12864357.59246  22318435.169    22318443.240
 03  3 29  1 57  0.0000000  0  8G14G17G 9G31G15G 3G23G18
  20220276.093   -20087468.55149 -15623140.69647  20220275.635    20220281.809
  24114006.118    -6750594.78849  -5249102.38944  24114005.301    24114019.004
  23789104.303    -2460849.42149  -1908760.27245  23789103.387    23789114.055
  22442162.519    -8675660.18949  -6750224.75646  22442161.985    22442171.062
  21370072.794   -15154988.23149 -11790612.26547  21370072.207    21370080.962
  22302648.139   -13083906.43249 -10184558.19646  22302647.818    22302656.822
  23313895.006    -4942489.77549  -3839202.37745  23313894.377    23313903.378
  22329852.626   -16479408.27149 -12817606.89446  22329852.125    22329860.096
 03  3 29  1 57 30.0000000  0  8G14G17G 9G31G15G 3G23G18
  20218498.545   -20096809.25749 -15630419.14547  20218498.105    20218504.289
  24132962.806    -6650975.69749  -5171477.16444  24132962.278    24132975.964
  23798027.000    -2413960.52549  -1872223.47045  23798026.129    23798036.795
  22444475.258    -8663506.39149  -6740754.24846  22444474.754    22444483.821
  21383286.116   -15085552.34149 -11736506.40347  21383285.469    21383294.268
  22313251.731   -13028184.13649 -10141138.24146  22313251.437    22313260.422
  23324884.733    -4884737.70549  -3794200.80145  23324884.259    23324893.308
  22341289.031   -16419308.99149 -12770776.30746  22341288.608    22341296.544
 03  3 29  1 58  0.0000000  0  8G14G17G 9G31G15G 3G23G18
  20216820.755   -20105626.22849 -15637289.48447  20216820.326    20216826.471
  24151960.146    -6551142.94349  -5093685.44544  24151959.606    24151973.090
  23807054.919    -2366517.52249  -1835254.89045  23807054.180    23807064.976
  22446893.143    -8650800.12649  -6730853.25646  22446892.600    22446901.690
  21396573.447   -15015727.70249 -11682097.62347  21396572.731    21396581.554
  22323930.947   -12972064.69949 -10097408.84046  22323930.645    22323939.641
  23335881.060    -4826951.82849  -3749172.87545  23335880.586    23335889.616
  22352744.972   -16359107.19049 -12723865.83546  22352744.587    22352752.691
 03  3 29  1 58 30.0000000  0  9G14G25G17G 9G31G15G 3G23G18
  20215242.471   -20113920.16549 -15643752.26447  20215242.009    20215248.149
                   -849113.99749   -639037.06344                  24422770.690
  24170997.854    -6451097.69849  -5015728.13444  24170997.636    24171011.598
  23816187.758    -2318521.97849  -1797855.75445  23816187.307    23816198.344
  22449415.962    -8637542.31849  -6720522.48446  22449415.443    22449424.569
  21409934.572   -14945515.11149 -11627386.55447  21409933.801    21409942.596
  22334685.233   -12915550.41449 -10053371.76146  22334684.960    22334693.981
  23346884.113    -4769131.94149  -3704118.46545  23346883.418    23346892.492
  22364220.248   -16298802.99949 -12676875.57546  22364220.062    22364228.342
 03  3 29  1 59  0.0000000  0  9G14G25G17G 9G31G15G 3G23G18
  20213763.247   -20121693.15449 -15649809.11447  20213762.803    20213768.967
  24404053.571     -947396.40449   -715620.41845  24404055.104    24404068.439
  24190075.843    -6350842.88349  -4937607.54844  24190075.569    24190089.619
  23825425.221    -2269976.56549  -1760028.14945  23825425.012    23825436.210
  22452043.265    -8623735.70949  -6709764.06846  22452042.744    22452051.899
  21423369.103   -14874916.95549 -11572375.03847  21423368.271    21423376.939
  22345513.770   -12858645.52949 -10009030.31046  22345513.563    22345522.642
  23357893.056    -4711279.36749  -3659038.57645  23357892.407    23357901.600
  22375715.005   -16238398.26149 -12629806.97246  22375714.774    22375722.899
 03  3 29  1 59 30.0000000  0  9G14G25G17G 9G31G15G 3G23G18
  20212383.017   -20128945.89049 -15655460.57147  20212382.579    20212388.755
  24385343.064    -1045722.68149   -792237.93745  24385343.518    24385357.135
  24209193.660    -6250379.41049  -4859324.34444  24209193.244    24209207.199
  23834767.065    -2220882.92249  -1721773.34945  23834767.174    23834778.305
  22454774.850    -8609381.45749  -6698578.93946  22454774.303    22454783.369
  21436876.768   -14803934.27749 -11517063.88946  21436875.899    21436884.423
  22356416.196   -12801352.51349  -9964386.42846  22356416.005    22356425.160
  23368907.981    -4653394.18049  -3613933.25945  23368907.562    23368916.918
  22387229.121   -16177893.16649 -12582660.17046  22387228.654    22387236.571
 03  3 29  2  0  0.0000000  0  9G14G25G17G 9G31G15G 3G23G18
  20211101.959   -20135677.94549 -15660706.31247  20211101.535    20211107.615
  24366624.854    -1144089.09449   -868886.73945  24366625.087    24366638.393
  24228350.827    -6149707.87749  -4780879.02944  24228350.292    24228364.566
  23844213.319    -2171241.18549  -1683091.45145  23844213.485    23844224.712
  22457610.633    -8594479.41449  -6686966.95246  22457610.070    22457619.087
  21450457.497   -14732566.94949 -11461453.02446  21450456.668    21450465.072
  22367392.231   -12743672.77349  -9919441.20446  22367392.057    22367401.242
  23379929.714    -4595474.98149  -3568801.44845  23379929.212    23379938.678
  22398761.965   -16117286.87649 -12535434.49346  22398761.660    22398769.540
 03  3 29  2  0 30.0000000  0  9G14G25G17G 9G31G15G 3G23G18
  20209920.038   -20141889.35249 -15665546.35647  20209919.584    20209925.588
  24347899.326    -1242492.28749   -945564.18245  24347899.470    24347912.676
  24247547.279    -6048828.71349  -4702271.94444  24247546.813    24247561.584
  23853763.772    -2121051.89749  -1643982.90645  23853764.013    23853775.263
  22460550.562    -8579029.95049  -6674928.39846  22460550.045    22460559.048
  21464111.344   -14660814.84749 -11405542.32546  21464110.565    21464118.974
  22378441.625   -12685607.82049  -9874195.80946  22378441.447    22378450.646
  23390958.127    -4537520.90049  -3523642.45345  23390957.477    23390967.045
  22410314.047   -16056578.84149 -12488129.54346  22410313.903    22410321.904
 03  3 29  2  1  0.0000000  0  9G14G25G17G 9G31G15G 3G23G18
  20208837.089   -20147580.09149 -15669980.67247  20208836.624    20208842.684
  24329167.386    -1340929.05149  -1022267.78245  24329167.478    24329180.540
  24266783.225    -5947743.13749  -4623504.00744  24266782.734    24266797.545
  23863418.255    -2070316.09649  -1604448.52145  23863418.569    23863429.923
  22463594.609    -8563033.64849  -6662463.73846  22463594.067    22463603.029
  21477838.454   -14588678.09149 -11349331.89746  21477837.732    21477846.159
  22389563.988   -12627159.74749  -9828651.89346  22389563.738    22389573.016
  23401992.967    -4479531.15949  -3478455.65745  23401992.468    23402002.374
  22421885.944   -15995768.61149 -12440744.96546  22421885.691    22421893.737
 03  3 29  2  1 30.0000000  0  9G14G25G17G 9G31G15G 3G23G18
  20207852.779   -20152752.17849 -15674010.84747  20207852.335    20207858.469
  24310429.334    -1439398.30149  -1098996.69345  24310429.350    24310442.239
  24286058.211    -5846454.21648  -4544577.60844  24286057.632    24286072.391
  23873176.392    -2019036.45849  -1564490.34645  23873176.704    23873188.021
  22466742.074    -8546493.05849  -6649574.95846  22466741.529    22466750.578
  21491638.309   -14516159.16249 -11292823.68146  21491637.579    21491646.100
  22400758.486   -12568332.61649  -9782812.59846  22400758.178    22400767.501
  23413034.402    -4421507.02349  -3433242.06145  23413034.014    23413044.102
  22433476.928   -15934857.64949 -12393281.89146  22433476.677    22433484.627
 03  3 29  2  2  0.0000000  0  8G14G25G 9G31G15G 3G23G18
  20206967.007   -20157407.10849 -15677638.04147  20206966.568    20206972.706
  24291685.355    -1537898.15949  -1175749.42945  24291685.138    24291698.114
  23883037.946    -1967215.34849  -1524110.26345  23883038.017    23883049.303
  22469992.683    -8529410.16449  -6636263.60046  22469992.178    22470001.270
  21505510.596   -14443259.70949 -11236018.95046  21505509.925    21505518.501
  22412024.447   -12509129.61549  -9736680.40946  22412024.139    22412033.545
  23424082.625    -4363449.14349  -3388002.17645  23424082.025    23424092.194
  22445087.081   -15873846.90349 -12345741.06846  22445086.709    22445094.505
 03  3 29  2  2 30.0000000  0  8G14G25G 9G31G15G 3G23G18
  20206179.770   -20161544.61149 -15680862.04547  20206179.303    20206185.372
  24272936.093    -1636424.77249  -1252523.01645  24272935.917    24272949.019
  23893002.426    -1914853.04349  -1483308.44745  23893002.428    23893013.588
  22473346.648    -8511785.01949  -6622529.71046  22473346.176    22473355.160
  21519455.499   -14369979.43649 -11178917.47846  21519454.761    21519463.351
  22423361.798   -12449552.09949  -9690256.38546  22423361.460    22423370.842
  23435137.294    -4305356.23949  -3342734.99945  23435136.712    23435146.854
  22456716.316   -15812735.81749 -12298122.04946  22456715.779    22456723.654
 03  3 29  2  3  0.0000000  0  8G14G25G 9G31G15G 3G23G18
  20205490.870   -20165164.95149 -15683683.06347  20205490.370    20205496.410
  24254182.335    -1734975.05149  -1329315.05945  24254182.050    24254195.271
  23903069.612    -1861950.63949  -1442085.78045  23903069.699    23903080.747
  22476803.701    -8493618.33149  -6608373.84346  22476803.223    22476812.154
  21533472.790   -14296318.63949 -11121519.48346  21533472.047    21533480.608
  22434769.911   -12389602.07049  -9643542.11046  22434769.553    22434778.964
  23446198.430    -4247227.43049  -3297439.83045  23446198.145    23446208.286
  22468364.276   -15751523.78049 -12250424.35246  22468363.925    22468372.178
 03  3 29  2  3 30.0000000  0  8G14G25G 9G31G15G 3G23G18
  20204900.047   -20168269.30649 -15686102.01747  20204899.569    20204905.615
  24235424.278    -1833547.06749  -1406124.03545  24235423.946    24235437.114
  23913239.014    -1808510.33549  -1400443.97645  23913239.159    23913250.155
  22480363.360    -8474911.90849  -6593797.40346  22480362.929    22480371.914
  21547562.099   -14222279.09449 -11063826.36546  21547561.374    21547569.935
  22446248.207   -12329282.91749  -9596540.19646  22446247.866    22446257.316
  23457266.743    -4189063.15949  -3252117.04845  23457266.392    23457276.572
  22480031.343   -15690211.61249 -12202648.65046  22480031.158    22480039.592
 03  3 29  2  4  0.0000000  0  8G14G25G 9G31G15G 3G23G18
  20204407.141   -20170859.16349 -15688120.06247  20204406.660    20204412.765
  24216662.733    -1932138.27949  -1482947.96545  24216662.384    24216675.600
  23923510.170    -1754533.93249  -1358384.42545  23923510.379    23923521.593
  22484025.493    -8455667.52649  -6578801.76946  22484025.034    22484034.052
  21561723.115   -14147862.15449 -11005839.17246  21561722.430    21561731.089
  22457796.248   -12268597.49249  -9549252.88146  22457795.941    22457805.368
  23468342.111    -4130863.79449  -3206766.93645  23468341.435    23468351.474
  22491717.776   -15628799.86349 -12154795.35646  22491717.428    22491725.778
 03  3 29  2  4 30.0000000  0  8G14G25G 9G31G15G 3G23G18
  20204012.126   -20172935.33449 -15689737.83547  20204011.604    20204017.722
  24197897.809    -2030746.03149  -1559784.79245  24197897.585    24197910.786
  23933882.885    -1700023.18949  -1315908.52545  23933883.118    23933894.731
  22487789.699    -8435886.52849  -6563387.99846  22487789.158    22487798.232
  21575955.755   -14073068.88349 -10947558.73746  21575955.097    21575963.963
  22469413.640   -12207548.14849  -9501681.98946  22469413.289    22469422.700
  23479423.884    -4072629.11549  -3161389.28945  23479423.174    23479433.037
  22503423.031   -15567288.53849 -12106864.46446  22503422.664    22503430.852
 03  3 29  2  5  0.0000000  0  8G14G25G 9G31G15G 3G23G18
  20203714.759   -20174497.78349 -15690955.30347  20203714.260    20203720.355
  24179130.158    -2129366.88649  -1636631.81045  24179130.227    24179143.521
  23944356.997    -1644979.08549  -1273017.00945  23944357.237    23944369.284
  22491655.713    -8415569.54149  -6547556.56446  22491655.211    22491664.330
  21590259.946   -13997899.44349 -10888985.18546  21590259.345    21590268.441
  22481099.878   -12146136.84449  -9453829.05046  22481099.469    22481108.890
  23490512.070    -4014358.24349  -3115983.42845  23490511.678    23490521.538
  22515147.192   -15505677.09849 -12058855.57246  22515146.908    22515155.139
 03  3 29  2  5 30.0000000  0  8G14G25G 9G31G15G 3G23G18
  20203514.862   -20175548.07749 -15691773.68947  20203514.378    20203520.403
  24160360.550    -2227999.09649  -1713487.67245  24160360.642    24160374.107
  23954932.384    -1589403.68649  -1229711.51645  23954932.656    23954944.757
  22495623.511    -8394718.51149  -6531308.99846  22495623.034    22495632.095
  21604635.478   -13922355.44849 -10830119.76446  21604634.892    21604644.134
  22492854.213   -12084367.03949  -9405696.73646  22492853.872    22492863.257
  23501607.492    -3956051.62649  -3070549.73245  23501607.146    23501616.829
  22526890.201   -15443966.51649 -12010769.42346  22526890.009    22526898.339
 03  3 29  2  6  0.0000000  0  8G14G25G 9G31G15G 3G23G18
  20203412.159   -20176087.81749 -15692194.25047  20203411.659    20203417.603
  24141589.510    -2326640.58449  -1790350.77245  24141589.366    24141602.928
  23965608.765    -1533299.38649  -1185993.87245  23965609.034    23965620.895
  22499692.722    -8373335.38249  -6514646.80446  22499692.167    22499701.197
  21619082.087   -13846438.54349 -10770963.76746  21619081.451    21619090.745
  22504676.206   -12022241.89049  -9357287.53346  22504675.887    22504685.289
  23512710.129    -3897709.71249  -3025088.55245  23512709.529    23512718.933
  22538652.057   -15382157.68349 -11962606.72646  22538651.896    22538660.233
 03  3 29  2  6 30.0000000  0  8G14G25G 9G31G15G 3G23G18
  20203406.354   -20176118.37649 -15692218.04247  20203405.843    20203411.765
  24122817.105    -2425289.05549  -1867219.32145  24122816.932    24122830.399
  23976385.648    -1476668.53149  -1141865.91945  23976385.793    23976397.059
  22503862.705    -8351422.21649  -6497571.61146  22503862.101    22503871.197
  21633599.204   -13770150.43749 -10711518.53246  21633598.592    21633607.923
  22516565.199   -11959764.70249  -9308604.03046  22516564.876    22516574.346
  23523819.331    -3839332.89249  -2979600.16945  23523818.519    23523827.908
  22550432.755   -15320251.12049 -11914367.87046  22550432.441    22550440.708
 03  3 29  2  7  0.0000000  0  8G14G25G 9G31G15G 3G23G18
  20203497.234   -20175640.33749 -15691845.52047  20203496.750    20203502.728
  24104044.047    -2523941.38849  -1944090.90545  24104043.838    24104057.002
  23987262.594    -1419512.01749  -1097328.35845  23987262.623    23987273.357
  22508133.273    -8328979.95849  -6480084.14546  22508132.694    22508141.786
  21648186.831   -13693491.56649 -10651784.39146  21648186.253    21648195.620
  22528520.755   -11896937.80749  -9259648.02846  22528520.380    22528529.944
  23534935.048    -3780920.42349  -2934083.99345  23534934.214    23534943.588
  22562231.797   -15258246.56249 -11866052.65946  22562231.572    22562239.738
 03  3 29  2  7 30.0000000  0  8G14G25G 9G31G15G 3G23G18
  20203684.868   -20174654.01049 -15691076.93247  20203684.430    20203690.433
  24085270.711    -2622594.78449  -2020963.30145  24085270.485    24085283.332
  23998239.007    -1361831.38349  -1052382.39145  23998239.015    23998249.230
  22512504.319    -8306009.60849  -6462185.17946  22512503.777    22512512.823
  21662844.935   -13616462.61149 -10591761.86546  21662844.345    21662853.723
  22540542.523   -11833763.12949  -9210421.03746  22540542.137    22540551.726
  23546057.344    -3722471.67849  -2888539.55645  23546056.624    23546065.977
  22574049.779   -15196143.52149 -11817660.70946  22574049.530    22574057.535
 03  3 29  2  8  0.0000000  0  9G14G25G 9G11G31G15G 3G23G18
  20203969.131   -20173160.28849 -15689912.97647  20203968.683    20203974.653
  24066497.517    -2721246.12349  -2097834.10745  24066497.392    24066510.177
  24009314.577    -1303628.15449  -1007029.20245  24009314.618    24009324.589
                  -1120742.40649   -861606.17543
  22516975.780    -8282512.43249  -6443875.70246  22516975.182    22516984.108
  21677573.410   -13539064.38149 -10531451.59746  21677572.758    21677582.043
  22552629.951   -11770243.41449  -9160925.19246  22552629.579    22552639.065
  23557186.616    -3663986.23849  -2842966.52245  23557186.099    23557195.317
  22585887.018   -15133942.10649 -11769192.11846  22585886.386    22585894.137
 03  3 29  2  8 30.0000000  0  9G14G25G 9G11G31G15G 3G23G18
  20204349.789   -20171160.13049 -15688354.39447  20204349.300    20204355.230
  24047725.157    -2819892.72049  -2174701.22445  24047725.038    24047737.872
  24020489.140    -1244904.03449   -961270.12545  24020489.342    24020499.247
                  -1220854.93749   -740503.95343
  22521547.087    -8258489.94949  -6425156.88046  22521546.548    22521555.355
  21692371.998   -13461298.14549 -10470854.56846  21692371.274    21692380.447
  22564782.640   -11706381.16949  -9111162.42746  22564782.266    22564791.586
  23568323.146    -3605463.84749  -2797364.69845  23568322.620    23568331.753
  22597742.485   -15071642.42449 -11720646.94346  22597741.739    22597749.473
 03  3 29  2  9  0.0000000  0  8G14G25G 9G31G15G 3G23G18
  20204826.999   -20168652.38949 -15686400.29247  20204826.520    20204832.446
  24028954.551    -2918529.92349  -2251561.03845  24028954.621    24028967.325
  24031762.623    -1185658.78149   -915104.99445  24031763.077    24031773.505
  22526218.527    -8233941.66249  -6406028.34146  22526217.994    22526226.622
  21707240.745   -13383162.87149 -10409969.97746  21707240.010    21707249.124
  22577000.352   -11642176.90749  -9061133.15346  22576999.968    22577009.161
  23579467.124    -3546902.20449  -2751732.30445  23579466.395    23579475.688
  22609616.290   -15009242.56049 -11672023.67946  22609615.839    22609623.581
 03  3 29  2  9 30.0000000  0  8G14G25G 9G31G15G 3G23G18
  20205400.166   -20165639.96449 -15684052.93647  20205399.693    20205405.663
  24010186.327    -3017156.59449  -2328412.64845  24010186.414    24010198.981
  24043134.718    -1125896.05249   -868536.64845  24043135.214    24043146.395
  22530989.445    -8208870.84149  -6386492.63446  22530988.881    22530997.375
  21722179.130   -13304661.46049 -10348800.08446  21722178.389    21722187.530
  22589282.183   -11577635.27749  -9010841.01246  22589281.786    22589290.992
  23590618.260    -3488302.91949  -2706070.55745  23590617.475    23590626.820
  22621509.021   -14946744.38649 -11623323.82546  22621508.626    22621516.399
 03  3 29  2 10  0.0000000  0  8G14G25G 9G31G15G 3G23G18
  20206068.700   -20162126.49149 -15681315.15047  20206068.240    20206074.221
  23991420.238    -3115772.75049  -2405256.05845  23991420.256    23991432.605
  24054604.326    -1065620.32349   -821568.56645  24054605.024    24054617.007
  22535858.941    -8183281.62149  -6366552.98946  22535858.380    22535866.881
  21737186.533   -13225797.52349 -10287347.70646  21737185.719    21737194.935
  22601627.193   -11512761.44749  -8960290.02946  22601626.849    22601636.081
  23601775.745    -3429668.31049  -2660381.27645  23601775.231    23601784.708
  22633419.917   -14884150.72449 -11574549.55346  22633419.560    22633427.544
 03  3 29  2 10 30.0000000  0  8G14G25G 9G31G15G 3G23G18
  20206832.474   -20158112.85249 -15678187.61947  20206832.011    20206837.960
  23972656.685    -3214375.59849  -2482089.12145  23972656.715    23972668.750
  24066171.763    -1004833.41349   -774202.14545  24066172.246    24066184.654
  22540826.739    -8157175.49649  -6346210.56946  22540826.141    22540834.767
  21752262.705   -13146571.95849 -10225613.53946  21752261.833    21752271.050
  22614035.014   -11447558.28049  -8909482.41946  22614034.669    22614043.882
  23612940.217    -3370998.07249  -2614664.22345  23612939.772    23612949.217
  22645349.393   -14821461.30049 -11525700.66446  22645348.991    22645357.104
 03  3 29  2 11  0.0000000  0  8G14G25G 9G31G15G 3G23G18
  20207691.547   -20153598.23849 -15674669.71947  20207691.077    20207697.077
  23953896.562    -3312960.37249  -2558908.09645  23953896.633    23953908.518
  24077837.024     -943535.18249   -726437.30345  24077837.150    24077849.664
  22545892.927    -8130552.21749  -6325465.17046  22545892.374    22545901.078
  21767407.679   -13066984.12549 -10163597.08446  21767406.898    21767416.058
  22626505.357   -11382026.55849  -8858418.78646  22626504.987    22626514.240
  23624112.191    -3312290.02149  -2568917.71545  23624111.538    23624120.955
  22657297.821   -14758674.77049 -11476776.12646  22657297.080    22657305.095
 03  3 29  2 11 30.0000000  0  9G14G25G 9G11G31G15G 3G23G18
  20208645.654   -20148584.32549 -15670762.75447  20208645.176    20208651.194
  23935140.310    -3411524.72749  -2635711.16145  23935140.268    23935152.027
  24089599.348     -881727.77749   -678275.64345  24089599.096    24089611.358
  24480290.804    -1299956.68949   -993827.76944  24480288.219    24480300.744
  22551057.155    -8103413.85449  -6304318.40046  22551056.648    22551065.357
  21782621.403   -12987035.59449 -10101299.56446  21782620.635    21782629.666
  22639037.579   -11316169.44649  -8807101.60146  22639037.250    22639046.438
  23635291.147    -3253544.50949  -2523142.00645  23635290.509    23635299.987
  22669264.029   -14695791.51349 -11427776.19146  22669263.366    22669271.452
 03  3 29  2 12  0.0000000  0  9G14G25G 9G11G31G15G 3G23G18
  20209694.459   -20143072.56749 -15666467.85647  20209694.020    20209699.984
  23916388.254    -3510066.82849  -2712496.88745  23916388.130    23916399.868
  24101458.163     -819413.72649   -629719.21945  24101457.687    24101469.274
  24461335.030    -1399570.74149  -1071448.91745  24461333.811    24461345.118
  22556319.154    -8075762.50849  -6282771.91046  22556318.586    22556327.218
  21797903.447   -12906728.28349 -10038722.46646  21797902.696    21797911.603
  22651631.060   -11249990.09349  -8755533.31646  22651630.753    22651639.971
  23646476.819    -3194761.73549  -2477337.25945  23646476.406    23646486.242
  22681248.198   -14632812.07049 -11378701.29946  22681247.889    22681256.046
 03  3 29  2 12 30.0000000  0  9G14G25G 9G11G31G15G 3G23G18
  20210837.854   -20137064.11249 -15661785.93347  20210837.418    20210843.262
  23897640.701    -3608584.30549  -2789263.41445  23897640.548    23897652.361
  24113412.699     -756595.10049   -580769.60745  24113412.081    24113422.950
  24442393.350    -1499106.35049  -1149008.94045  24442391.244    24442403.169
  22561678.311    -8047599.93549  -6260827.06446  22561677.706    22561686.450
  21813253.465   -12826063.26849  -9975866.64946  21813252.710    21813261.606
  22664285.309   -11183491.24249  -8703716.07746  22664285.062    22664294.342
  23657669.799    -3135941.53249  -2431503.35745  23657669.496    23657679.595
  22693251.397   -14569736.49449 -11329551.51846  22693250.939    22693258.978
 03  3 29  2 13  0.0000000  0  9G14G25G 9G11G31G15G 3G23G18
  20212075.691   -20130559.37449 -15656717.29247  20212075.202    20212081.066
  23878898.642    -3707073.07349  -2866007.57245  23878898.434    23878910.282
  24125462.653     -693273.09849   -531427.74145  24125461.881    24125472.290
  24423467.459    -1598560.61949  -1226505.61545  24423466.645    24423477.462
  22567134.474    -8018927.09549  -6238484.60746  22567133.918    22567142.722
  21828671.340   -12745040.96149  -9912732.42346  21828670.646    21828679.653
  22677000.095   -11116674.91049  -8651651.45146  22676999.869    22677009.071
  23668870.618    -3077082.93049  -2385639.53745  23668870.022    23668880.095
  22705272.936   -14506564.34549 -11280326.46846  22705272.357    22705280.240
 03  3 29  2 13 30.0000000  0  9G14G25G 9G11G31G15G 3G23G18
  20213407.859   -20123558.44949 -15651262.00847  20213407.399    20213413.275
  23860162.656    -3805529.82649  -2942726.79745  23860162.404    23860174.377
  24137607.653     -629448.75749   -481694.44345  24137606.973    24137617.458
  24404557.650    -1697930.49149  -1303936.46445  24404557.027    24404568.039
  22572687.654    -7989744.72749  -6215745.09846  22572687.134    22572695.933
  21844157.060   -12663661.69249  -9849320.04546  21844156.495    21844165.615
  22689774.973   -11049543.00249  -8599340.91046  22689774.696    22689783.911
  23680078.898    -3018184.79449  -2339744.89745  23680078.153    23680088.078
  22717312.566   -14443294.88249 -11231025.59346  22717312.182    22717319.992
 03  3 29  2 14  0.0000000  0  9G14G25G 9G11G31G15G 3G23G18
  20214834.309   -20116062.37549 -15645420.90547  20214833.852    20214839.731
  23841433.242    -3903951.18149  -3019418.44745  23841432.941    23841445.204
  24149848.011     -565123.34949   -431570.71645  24149847.430    24149857.782
  24385664.718    -1797213.46749  -1381299.67645  24385664.245    24385675.265
  22578337.604    -7960054.16049  -6192609.61546  22578337.092    22578345.845
  21859710.763   -12581926.16249  -9785630.05746  21859710.207    21859719.430
  22702609.343   -10982097.69449  -8546786.18946  22702609.071    22702618.335
  23691294.456    -2959246.35949  -2293818.85445  23691293.819    23691303.745
  22729371.324   -14379927.38149 -11181648.33746  22729370.793    22729378.457
 03  3 29  2 14 30.0000000  0  9G14G25G 9G11G31G15G 3G23G18
  20216354.650   -20108072.99549 -15639195.39947  20216354.169    20216360.063
  23822710.899    -4002335.41349  -3096081.19145  23822710.760    23822722.873
  24162183.382     -500299.89049   -381058.85245  24162182.669    24162193.436
  24366788.719    -1896408.34849  -1458594.21745  24366788.273    24366799.399
  22584083.851    -7929857.94949  -6169080.09746  22584083.334    22584092.032
  21875331.970   -12499836.74249  -9721664.30046  21875331.393    21875340.564
  22715502.590   -10914342.92049  -8493990.31346  22715502.305    22715511.661
  23702517.419    -2900268.12449  -2247861.80245  23702516.959    23702527.048
  22741448.542   -14316463.02549 -11132195.60846  22741447.813    22741455.276
 03  3 29  2 15  0.0000000  0  9G14G25G 9G11G31G15G 3G23G18
  20217968.514   -20099591.82249 -15632586.68247  20217968.052    20217973.972
  23803996.293    -4100679.91549  -3172712.98545  23803996.257    23804008.125
  24174613.455     -434980.70049   -330160.70945  24174612.803    24174623.829
  24347929.805    -1995513.48949  -1535818.88745  24347929.399    24347939.866
  22589925.793    -7899158.27249  -6145158.28146  22589925.260    22589933.977
  21891020.291   -12417394.87449  -9657423.91646  21891019.702    21891028.847
  22728454.239   -10846281.70649  -8440955.66946  22728454.019    22728463.345
  23713748.032    -2841250.16049  -2201873.79445  23713747.644    23713757.797
  22753543.447   -14252902.20049 -11082667.71046  22753542.920    22753550.418
 03  3 29  2 15 30.0000000  0  9G14G25G 9G11G31G15G 3G23G18
  20219675.785   -20090620.14149 -15625595.75347  20219675.330    20219681.234
  23785289.779    -4198982.21849  -3249311.90345  23785289.727    23785301.449
  24187137.494     -369168.00549   -278878.02345  24187136.624    24187147.941
  24329088.240    -2094526.88549  -1612971.99945  24329087.853    24329098.141
  22595863.244    -7867956.91049  -6120845.54046  22595862.690    22595871.446
  21906775.316   -12334601.80749  -9592909.88146  21906774.745    21906783.991
  22741463.812   -10777916.75949  -8387684.30846  22741463.532    22741472.819
  23724986.303    -2782192.39049  -2155854.77545  23724985.844    23724996.095
  22765656.866   -14189244.97349 -11033064.68346  22765656.454    22765664.011
 03  3 29  2 16  0.0000000  0  9G14G25G 9G11G31G15G 3G23G18
  20221476.066   -20081159.57049 -15618223.87147  20221475.594    20221481.487
  23766591.919    -4297239.64249  -3325875.85245  23766591.732    23766603.478
  24199754.805     -302864.07049   -227212.55145  24199753.859    24199765.460
  24310264.416    -2193446.86149  -1690052.34945  24310264.054    24310274.071
  22601895.744    -7836256.10149  -6096143.63246  22601895.154    22601903.906
  21922596.874   -12251459.11649  -9528123.41846  21922596.252    21922605.707
  22754530.499   -10709251.38249  -8334178.86346  22754530.186    22754539.556
  23736232.299    -2723094.91249  -2109804.80345  23736231.709    23736241.889
  22777788.755   -14125491.86149 -10983386.95146  22777788.215    22777795.981
 03  3 29  2 16 30.0000000  0  9G14G25G 9G11G31G15G 3G23G18
  20223369.182   -20071211.03449 -15610471.74847  20223368.703    20223374.596
  23747903.083    -4395449.52949  -3402402.77345  23747902.770    23747914.532
  24212465.212     -236070.72749   -175165.70345  24212464.390    24212475.879
  24291458.816    -2292270.85149  -1767057.87045  24291458.453    24291468.390
  22608022.986    -7804057.30849  -6071053.67846  22608022.342    22608031.108
  21938484.818   -12167967.74549  -9463065.25546  21938484.203    21938493.783
  22767653.822   -10640287.84049  -8280441.09146  22767653.531    22767662.984
  23747486.132    -2663957.00849  -2063723.33545  23747485.487    23747495.411
  22789938.418   -14061642.65249 -10933634.32146  22789938.125    22789946.167
 03  3 29  2 17  0.0000000  0  9G14G25G 9G11G31G15G 3G23G18
  20225354.930   -20060775.72949 -15602340.32747  20225354.468    20225360.388
  23729223.756    -4493608.80349  -3478890.25545  23729223.401    23729235.235
  24225268.255     -168790.06049   -122739.13245  24225267.387    24225278.717
  24272671.874    -2390996.71749  -1843986.95045  24272671.430    24272681.315
  22614244.575    -7771362.34949  -6045577.09946  22614243.965    22614252.781
  21954438.848   -12084129.06349  -9397736.45646  21954438.239    21954447.836
  22780833.293   -10571028.98349  -8226473.21246  22780833.067    22780842.641
  23758747.471    -2604778.24349  -2017610.03545  23758746.911    23758756.673
  22802106.483   -13997697.20049 -10883806.70446  22802106.460    22802114.476
 03  3 29  2 17 30.0000000  0  9G14G25G 9G11G31G15G 3G23G18
  20227433.082   -20049854.97849 -15593830.63647  20227432.640    20227438.523
  23710554.424    -4591714.75649  -3555336.18445  23710554.146    23710566.157
  24238163.310     -101024.00449    -69934.33545  24238162.361    24238174.074
  24253903.837    -2489622.49749  -1920837.98845  24253903.372    24253913.316
  22620560.205    -7738173.01449  -6019715.29246  22620559.673    22620568.510
  21970458.763   -11999944.37549  -9332138.04046  21970458.168    21970467.662
  22794068.594   -10501477.88349  -8172277.60346  22794068.314    22794077.888
  23770016.549    -2545558.53049  -1971464.82345  23770016.100    23770025.889
  22814293.790   -13933655.72349 -10833904.27646  22814293.422    22814301.039
 03  3 29  2 18  0.0000000  0  9G14G25G 9G11G31G15G 3G23G18
  20229603.319   -20038450.35949 -15584943.90047  20229602.837    20229608.708
  23691895.868    -4689765.00549  -3631738.72645  23691895.592    23691907.699
  24251149.895      -32775.05249    -16753.22744  24251149.360    24251161.271
  24235155.092    -2588146.39749  -1997609.66245  24235154.643    24235164.678
  22626969.586    -7704491.74949  -5993470.16446  22626969.025    22626977.872
  21986544.288   -11915415.27049  -9266271.24446  21986543.652    21986553.011
  22807359.009   -10431637.51249  -8117856.58246  22807358.653    22807368.135
  23781293.578    -2486297.99749  -1925287.82345  23781292.924    23781303.073
  22826499.195   -13869518.71449 -10783927.42046  22826498.494    22826505.919
 03  3 29  2 18 30.0000000  0  9G14G25G 9G11G31G15G 3G23G18
  20231865.398   -20026563.12249 -15575681.10047  20231864.931    20231870.752
  23673248.553    -4787756.64949  -3708095.60845  23673248.242    23673260.230
  24264228.264       35954.80249     36802.60944  24264227.845    24264239.698
  24216426.145    -2686566.08049  -2074300.10745  24216425.629    24216436.025
  22633472.290    -7670320.13349  -5966842.94746  22633471.704    22633480.531
  22002695.173   -11830542.88749  -9200136.95446  22002694.442    22002703.683
  22820703.808   -10361510.56949  -8063212.26946  22820703.456    22820712.930
  23792578.609    -2426996.05349  -1879078.54445  23792577.801    23792588.057
  22838722.167   -13805286.03049 -10733875.99045  22838721.562    22838729.103
 03  3 29  2 19  0.0000000  0  9G14G25G 9G11G31G15G 3G23G18
  20234219.104   -20014194.09649 -15566042.88047  20234218.642    20234224.509
  23654612.882    -4885686.57549  -3784404.40945  23654612.563    23654624.325
  24277398.146      105163.73449     90731.79344  24277397.667    24277409.257
  24197717.387    -2784879.03049  -2150907.39545  24197716.950    24197727.568
  22640067.902    -7635659.79549  -5939834.91046  22640067.328    22640076.237
  22018911.075   -11745328.43649  -9133736.14046  22018910.315    22018919.463
  22834102.596   -10291099.41949  -8008346.48046  22834102.300    22834111.804
  23803871.458    -2367652.02849  -1832836.46945  23803870.533    23803881.095
  22850963.029   -13740957.09149 -10683749.55345  22850962.718    22850970.485
 03  3 29  2 19 30.0000000  0  9G14G25G 9G11G31G15G 3G23G18
  20236664.158   -20001345.07649 -15556030.63947  20236663.719    20236669.597
  23635989.315    -4983552.29849  -3860663.17045  23635989.036    23636000.637
  24290658.984      174849.11249    145032.27045  24290658.496    24290669.599
  24179029.454    -2883083.59649  -2227430.23545  24179028.977    24179039.805
  22646756.031    -7600513.09849  -5912447.90746  22646755.448    22646764.481
  22035191.813   -11659773.40249  -9067069.92946  22035190.984    22035200.166
  22847554.869   -10220407.58149  -7953261.97346  22847554.557    22847564.087
  23815171.941    -2308266.01449  -1786561.67145  23815171.280    23815182.108
  22863222.416   -13676532.53049 -10633548.61145  22863222.191    22863230.025
 03  3 29  2 20  0.0000000  0  9G14G25G 9G11G31G15G 3G23G18
  20239200.316   -19988017.54749 -15545645.53347  20239199.824    20239205.686
  23617378.485    -5081350.99349  -3936869.70845  23617378.320    23617389.688
  24304010.324      245008.77849    199702.31945  24304009.744    24304020.411
  24160362.437    -2981177.61549  -2303866.94245  24160362.090    24160372.901
  22653536.329    -7564882.01349  -5884683.44446  22653535.804    22653544.845
  22051537.026   -11573879.22149  -9000139.43346  22051536.129    22051545.317
  22861060.035   -10149437.86349  -7897960.93946  22861059.678    22861069.203
  23826480.575    -2248837.83149  -1740254.02945  23826480.131    23826491.088
  22875500.262   -13612012.52249 -10583273.30645  22875499.891    22875507.725
 03  3 29  2 20 30.0000000  0  9G14G25G 9G11G31G15G 3G23G18
  20241827.191   -19974213.24349 -15534888.91747  20241826.705    20241832.496
  23598780.916    -5179080.42549  -4013022.28745  23598780.735    23598791.992
  24317451.371      315640.06949    254739.85045  24317450.748    24317461.044
  24141716.880    -3079159.61049  -2380216.36445  24141716.468    24141727.506
  22660408.467    -7528769.05249  -5856543.48746  22660407.965    22660416.915
  22067946.322   -11487647.88049  -8932946.23146  22067945.420    22067954.566
  22874617.496   -10078193.45149  -7842445.85246  22874617.132    22874626.686
  23837797.455    -2189367.69249  -1693913.69045  23837796.956    23837807.827
  22887796.293   -13547397.43849 -10532923.91045  22887795.819    22887803.628
 03  3 29  2 21  0.0000000  0  9G14G25G 9G11G31G15G 3G23G18
  20244544.599   -19959933.12449 -15523761.53347  20244544.094    20244549.911
  23580197.108    -5276737.70549  -4089118.65145  23580196.860    23580208.138
  24330981.461      386741.08449    310143.41045  24330980.963    24330991.260
  24123093.169    -3177027.05549  -2456476.54145  24123092.791    24123103.619
  22667372.020    -7492175.87549  -5828029.33646  22667371.475    22667380.368
  22084419.545   -11401080.39549  -8865491.09446  22084418.675    22084427.760
  22888226.660   -10006677.11149  -7786718.88546  22888226.271    22888235.891
  23849122.494    -2129854.94349  -1647540.15545  23849121.976    23849132.561
  22900110.112   -13482687.04249 -10482500.23445  22900109.734    22900117.504
 03  3 29  2 21 30.0000000  0  9G14G25G 9G11G31G15G 3G23G18
  20247352.198   -19945178.76149 -15512264.60547  20247351.720    20247357.606
  23561627.390    -5374320.25049  -4165156.78745  23561627.245    23561638.546
  24344600.204      458309.72749    365911.36745  24344599.576    24344610.233
  24104491.611    -3274777.71749  -2532645.70945  24104491.398    24104501.979
  22674426.552    -7455104.52449  -5799142.56746  22674425.972    22674434.787
  22100956.495   -11314178.24149  -8797775.17046  22100955.587    22100964.716
  22901886.891    -9934891.72749  -7730782.27246  22901886.544    22901896.116
  23860455.540    -2070299.33949  -1601133.22045  23860455.161    23860465.411
  22912441.912   -13417881.49949 -10432002.41445  22912441.727    22912449.415
 03  3 29  2 22  0.0000000  0  9G14G25G 9G11G31G15G 3G23G18
  20250249.950   -19929951.02949 -15500398.82647  20250249.474    20250255.351
  23543072.721    -5471824.46849  -4241133.88945  23543072.640    23543083.831
  24358307.067      530344.28149    422042.38445  24358306.517    24358317.767
  24085912.830    -3372408.99449  -2608721.83445  24085912.610    24085923.047
  22681571.800    -7417556.42949  -5769884.32046  22681571.155    22681579.945
  22117556.862   -11226941.96049  -8729798.89546  22117556.035    22117565.262
  22915597.998    -9862839.21249  -7674637.52346  22915597.662    22915607.277
  23871796.990    -2010699.72149  -1554691.98845  23871796.659    23871806.522
  22924792.540   -13352979.98149 -10381429.82445  22924792.216    22924799.482
 03  3 29  2 22 30.0000000  0  8G14G25G11G31G15G 3G23G18
  20253237.329   -19914251.98049 -15488165.78147  20253236.856    20253242.795
  23524533.496    -5569248.25949  -4317048.30745  23524533.444    23524544.502
  24067357.123    -3469919.34649  -2684703.74945  24067356.886    24067367.007
  22688807.100    -7379534.44849  -5740256.81346  22688806.536    22688815.353
  22134220.373   -11139373.79449  -8661564.00046  22134219.639    22134228.967
  22929359.319    -9790523.23349  -7618287.46846  22929358.955    22929368.513
  23883146.671    -1951056.85449  -1508217.05845  23883146.322    23883156.082
  22937161.428   -13287983.62049 -10330783.32845  22937160.834    22937167.783
 03  3 29  2 23  0.0000000  0  8G14G25G11G31G15G 3G23G18
  20256314.031   -19898083.53849 -15475566.97647  20256313.586    20256319.552
  23506010.167    -5666589.29249  -4392898.23945  23506010.197    23506021.093
  24048824.697    -3567306.89849  -2760589.97445  24048824.486    24048834.516
  22696132.218    -7341041.02649  -5710261.96246  22696131.595    22696140.506
  22150946.636   -11051475.63249  -8593071.96746  22150946.009    22150955.481
  22943170.216    -9717947.25949  -7561734.81146  22943169.814    22943179.331
  23894504.660    -1891370.65549  -1461708.36445  23894504.099    23894513.960
  22949547.756   -13222892.69149 -10280063.13845  22949547.239    22949554.135
 03  3 29  2 23 30.0000000  0  8G14G25G11G31G15G 3G23G18
  20259480.007   -19881446.16149 -15462602.77547  20259479.554    20259485.504
  23487503.407    -5763843.86549  -4468680.82145  23487503.320    23487514.158
  24030316.264    -3664568.86149  -2836378.31145  24030316.108    24030325.929
  22703546.661    -7302077.39849  -5679900.73346  22703546.052    22703555.040
  22167735.678   -10963247.98249  -8524323.19946  22167735.136    22167744.707
  22957030.078    -9645113.38749  -7504981.19646  22957029.709    22957039.258
  23905871.198    -1831639.97649  -1415164.99845  23905870.371    23905880.267
  22961951.894   -13157706.40449 -10229268.62145  22961951.652    22961958.628
 03  3 29  2 24  0.0000000  0  8G14G25G11G31G15G 3G23G18
  20262734.908   -19864341.65949 -15449274.57747  20262734.451    20262740.346
  23469013.659    -5861009.53449  -4544394.12445  23469013.420    23469023.884
  24011832.200    -3761703.38149  -2912067.35745  24011832.095    24011841.572
  22711050.077    -7262645.91249  -5649174.94946  22711049.617    22711058.630
  22184587.271   -10874692.64949  -8455319.09246  22184586.670    22184596.290
  22970938.412    -9572024.66049  -7448028.98846  22970938.030    22970947.670
  23917245.977    -1771864.86749  -1368587.00745  23917245.056    23917254.958
  22974374.535   -13092424.85049 -10178399.88945  22974374.281    22974381.238
 03  3 29  2 24 30.0000000  0  8G14G25G11G31G15G 3G23G18
  20266078.332   -19846771.72049 -15435583.70547  20266077.876    20266083.724
  23450541.127    -5958083.71649  -4620036.14345  23450540.808    23450550.960
  23993372.906    -3858708.25349  -2987655.36945  23993372.694    23993382.042
  22718642.200    -7222749.02049  -5618086.50646  22718641.732    22718650.781
  22201500.826   -10785811.48849  -8386061.08946  22201500.281    22201509.863
  22984894.655    -9498684.10949  -7390880.55946  22984894.279    22984903.986
  23928629.170    -1712045.15949  -1321974.27545  23928628.345    23928638.256
  22986815.611   -13027048.39549 -10127457.21845  22986815.089    22986821.975
 03  3 29  2 25  0.0000000  0  8G14G25G11G31G15G 3G23G18
  20269510.081   -19828737.74049 -15421531.24647  20269509.611    20269515.463
  23432086.536    -6055063.29449  -4695604.46945  23432086.254    23432096.067
  23974938.634    -3955581.32949  -3063140.68545  23974938.405    23974947.695
  22726322.607    -7182388.61349  -5586636.87546  22726322.104    22726331.139
  22218476.295   -10696605.73349  -8316550.15046  22218475.759    22218485.258
  22998898.129    -9425094.91349  -7333538.37646  22998897.774    22998907.636
  23940020.798    -1652180.27749  -1275326.32945  23940020.239    23940030.310
  22999274.475   -12961576.98949 -10076440.54045  22999273.964    22999280.881
 03  3 29  2 25 30.0000000  0  8G14G25G11G31G15G 3G23G18
  20273029.920   -19810240.84749 -15407118.07347  20273029.424    20273035.312
  23413650.292    -6151945.34449  -4771096.80345  23413650.028    23413659.674
  23956529.947    -4052319.96349  -3138521.24645  23956529.630    23956538.944
  22734090.673    -7141566.60149  -5554827.54245  22734090.276    22734099.332
  22235513.474   -10607076.36149  -8246787.03946  22235512.804    22235522.212
  23012948.571    -9351259.35849  -7276004.23646  23012948.228    23012958.116
  23951420.953    -1592269.76249  -1228642.83845  23951420.657    23951430.859
  23011751.098   -12896010.39149 -10025349.69845  23011750.846    23011757.948
 03  3 29  2 26  0.0000000  0  8G14G25G11G31G15G 3G23G18
  20276637.539   -19791282.42649 -15392345.27047  20276637.056    20276642.973
  23395233.159    -6248726.94249  -4846510.86445  23395232.878    23395242.463
  23938147.312    -4148921.77749  -3213795.20745  23938147.006    23938156.137
  22741946.389    -7100285.11749  -5522660.16745  22741946.018    22741954.940
  22252611.808   -10517224.91249  -8176772.97546  22252611.148    22252620.461
  23027045.469    -9277180.15649  -7218280.24346  23027045.098    23027054.946
  23962829.820    -1532313.02449  -1181923.32145  23962829.839    23962840.332
  23024246.079   -12830348.51149  -9974184.60745  23024245.946    23024253.126
 03  3 29  2 26 30.0000000  0  8G14G25G11G31G15G 3G23G18
  20280332.530   -19771865.00249 -15377214.80247  20280332.058    20280337.956
  23376835.714    -6345406.16749  -4921845.16345  23376835.414    23376844.798
  23919790.802    -4245385.64849  -3288961.70245  23919790.384    23919799.514
  22749888.951    -7058547.21549  -5490137.14845  22749888.420    22749897.435
  22269770.827   -10427053.52149  -8106509.59446  22269770.209    22269779.526
  23041187.988    -9202861.03449  -7160369.30746  23041187.578    23041197.432
  23974247.807    -1472310.53849  -1135168.14845  23974247.694    23974258.446
  23036759.560   -12764591.99949  -9922945.80445  23036759.223    23036766.372
 03  3 29  2 27  0.0000000  0  8G14G25G11G31G15G 3G23G18
  20284114.644   -19751990.05049 -15361727.81847  20284114.180    20284119.939
  23358458.257    -6441980.20049  -4997097.49745  23358457.936    23358467.209
  23901460.893    -4341709.37049  -3364018.98145  23901460.454    23901469.609
  22757917.808    -7016355.01549  -5457260.14645  22757917.341    22757926.353
  22286990.448   -10336563.76949  -8035998.16246  22286989.888    22286999.200
  23055375.556    -9128305.01249  -7102273.76446  23055375.086    23055384.999
  23985674.982    -1412262.02449  -1088377.12345  23985674.573    23985685.229
  23049290.973   -12698741.03849  -9871633.39845  23049290.448    23049297.615
 03  3 29  2 27 30.0000000  0  8G14G25G11G31G15G 3G23G18
  20287983.547   -19731659.39349 -15345885.73747  20287983.022    20287988.730
  23340101.010    -6538446.77149  -5072266.09145  23340100.725    23340110.213
  23883157.932    -4437890.62849  -3438965.26045  23883157.525    23883166.741
  22766032.659    -6973710.99549  -5424031.08545  22766032.204    22766041.357
  22304270.355   -10245757.61549  -7965240.16846  22304269.745    22304279.046
  23069607.621    -9053515.19449  -7043996.04846  23069607.163    23069617.052
  23997111.034    -1352167.43849  -1041550.17145  23997110.366    23997120.796
  23061840.097   -12632795.79649  -9820247.51345  23061839.600    23061846.820
 03  3 29  2 28  0.0000000  0  8G14G25G11G31G15G 3G23G18
  20291938.913   -19710873.16149 -15329688.65847  20291938.423    20291944.292
  23321765.033    -6634801.69749  -5147347.69045  23321764.749    23321774.346
  23864882.541    -4533926.13949  -3513797.94945  23864882.217    23864891.564
  22774233.302    -6930616.06849  -5390450.68245  22774232.846    22774242.062
  22321610.336   -10154635.13749  -7894235.68046  22321609.692    22321618.994
  23083883.863    -8978493.25349  -6985537.45846  23083883.430    23083893.269
  24008556.033    -1292025.10049   -994686.02845  24008555.313    24008565.620
  23074407.226   -12566755.06149  -9768787.21245  23074406.791    23074414.131
 03  3 29  2 28 30.0000000  0  8G14G25G11G31G15G 3G23G18
  20295980.651   -19689633.52649 -15313138.28847  20295980.215    20295986.105
  23303450.864    -6731042.24049  -5222340.16145  23303450.577    23303460.212
  23846635.271    -4629814.18549  -3588515.76245  23846634.909    23846644.336
  22782519.292    -6887073.05749  -5356521.10745  22782518.840    22782528.046
  22339010.125   -10063198.24249  -7822986.19446  22339009.515    22339018.818
  23098203.674    -8903242.40649  -6926900.49446  23098203.256    23098213.098
  24020010.014    -1231835.23749   -947784.83445  24020009.333    24020019.390
  23086992.656   -12500619.20549  -9717252.79345  23086992.167    23086999.489
 03  3 29  2 29  0.0000000  0  8G14G25G11G31G15G 3G23G18
  20300108.395   -19667942.68449 -15296236.33747  20300107.908    20300113.665
  23285158.880    -6827166.41849  -5297241.96445  23285158.591    23285168.178
  23828416.392    -4725553.14349  -3663117.40545  23828415.992    23828425.286
  22790890.127    -6843084.86249  -5322244.63245  22790889.725    22790898.694
  22356469.521    -9971449.16449  -7751493.45246  22356468.798    22356478.074
  23112566.346    -8827766.49949  -6868088.15046  23112565.953    23112575.698
  24031473.194    -1171598.08549   -900846.80445  24031472.357    24031482.226
  23099596.148   -12434388.83449  -9665644.71645  23099595.492    23099602.796
 03  3 29  2 29 30.0000000  0  8G14G25G11G31G15G 3G23G18
  20304321.687   -19645801.61749 -15278983.55047  20304321.181    20304326.950
  23266889.583    -6923170.80049  -5372050.41545  23266889.368    23266899.050
  23810226.332    -4821139.97549  -3737600.49045  23810225.864    23810235.399
  22799345.265    -6798652.98349  -5287622.43945  22799344.793    22799353.784
  22373988.127    -9879389.02649  -7679758.31146  22373987.331    22373996.556
  23126971.406    -8752067.48649  -6809101.95745  23126971.021    23126980.743
  24042945.669    -1111312.57849   -853871.11045  24042944.615    24042954.286
  23112217.327   -12368063.26849  -9613962.47845  23112216.676    23112224.054
 03  3 29  2 30  0.0000000  0  8G14G25G11G31G15G 3G23G18
  20308620.286   -19623211.93649 -15261381.19347  20308619.805    20308625.658
  23248643.542    -7019052.68949  -5446763.42045  23248643.400    23248653.215
  23792065.738    -4916572.72649  -3811963.51845  23792065.236    23792075.148
  22807884.311    -6753780.04149  -5252656.55245  22807883.921    22807892.879
  22391565.586    -9787019.51049  -7607782.11846  22391564.742    22391573.921
  23141418.295    -8676148.62849  -6749944.47645  23141417.890    23141427.561
  24054427.335    -1050978.49049   -806857.53445  24054426.057    24054435.502
  23124856.295   -12301642.70549  -9562206.20545  23124855.796    23124863.392
 03  3 29  2 30 30.0000000  0  8G14G25G11G31G15G 3G23G18
  20313003.901   -19600175.58449 -15243430.78447  20313003.440    20313009.307
  23230421.478    -7114809.48349  -5521378.95945  23230421.284    23230431.173
  23773935.142    -5011849.18249  -3886204.74445  23773934.747    23773944.543
  22816506.840    -6708468.49549  -5217348.89245  22816506.390    22816515.449
  22409201.653    -9694342.39349  -7535566.22146  22409200.753    22409209.825
  23155906.489    -8600013.20949  -6690618.25445  23155906.040    23155915.547
  24065918.024     -990595.66349   -759805.98445  24065916.783    24065926.015
  23137513.536   -12235127.25549  -9510376.01045  23137513.013    23137520.905
 03  3 29  2 31  0.0000000  0  8G14G25G11G31G15G 3G23G18
  20317472.216   -19576694.40949 -15225133.76147  20317471.757    20317477.626
  23212223.641    -7210438.75949  -5595895.12145  23212223.423    23212233.333
  23755834.842    -5106967.50749  -3960322.74445  23755834.498    23755843.957
  22825212.585    -6662720.97249  -5181701.49545  22825212.065    22825221.016
  22426895.957    -9601359.56049  -7463112.10646  22426894.904    22426903.910
  23170435.336    -8523664.39949  -6631125.75045  23170434.852    23170444.208
  24077417.405     -930163.87649   -712716.26845  24077416.352    24077425.960
  23150189.395   -12168517.13749  -9458472.04145  23150188.538    23150196.364
 03  3 29  2 31 30.0000000  0  8G14G25G11G31G15G 3G23G18
  20322024.794   -19552770.16149 -15206491.48047  20322024.335    20322030.225
  23194050.516    -7305937.82249  -5670309.84345  23194050.343    23194060.208
  23737764.881    -5201925.68549  -4034315.94945  23737764.597    23737773.837
  22834000.772    -6616539.91549  -5145716.29845  22834000.090    22834009.004
  22444647.884    -9508072.42549  -7390420.88746  22444646.884    22444655.895
  23185004.149    -8447105.06749  -6571469.19645  23185003.696    23185012.974
  24088926.154     -869683.10149   -665588.37445  24088925.344    24088935.232
  23162883.267   -12101812.52649  -9406494.43645  23162882.110    23162889.957
 03  3 29  2 32  0.0000000  0  8G14G25G11G31G15G 3G23G18
  20326661.483   -19528403.91949 -15187504.78347  20326661.055    20326666.976
  23175902.942    -7401303.22449  -5744620.43045  23175902.767    23175912.477
  23719725.935    -5296720.65549  -4108181.99045  23719725.706    23719734.582
  22842870.799    -6569927.17349  -5109394.71345  22842870.279    22842879.234
  22462457.546    -9414481.98849  -7317493.30546  22462456.515    22462465.602
  23199612.543    -8370337.57149  -6511650.41945  23199612.133    23199621.485
  24100444.771     -809152.44049   -618421.63345  24100443.940    24100453.684
  23175594.623   -12035012.94749  -9354442.82445  23175593.561    23175601.459
 03  3 29  2 32 30.0000000  0  8G14G25G11G31G15G 3G23G18
  20331382.167   -19503597.12849 -15168174.81147  20331381.707    20331387.566
  23157781.410    -7496531.94349  -5818824.50545  23157781.252    23157790.916
  23701718.547    -5391349.77949  -4181918.78345  23701718.362    23701727.004
  22851822.780    -6522884.67049  -5072738.26245  22851822.362    22851831.129
  22480324.525    -9320589.71949  -7244330.54846  22480323.546    22480332.716
  23214259.997    -8293364.58149  -6451671.52145  23214259.562    23214269.068
  24111973.377     -748570.99249   -571215.32745  24111972.378    24111981.831
  23188323.581   -11968117.85549  -9302316.75345  23188322.989    23188331.107
 03  3 29  2 33  0.0000000  0  8G14G25G11G31G15G 3G23G18
  20336186.172   -19478351.77349 -15148503.09247  20336185.692    20336191.614
  23139686.363    -7591621.50549  -5892920.15145  23139686.239    23139695.781
  23683743.148    -5485811.43449  -4255525.07345  23683742.906    23683751.433
  22860855.906    -6475415.59249  -5035749.40945  22860855.419    22860864.239
  22498248.367    -9226397.84849  -7170934.32446  22498247.567    22498256.890
  23228945.917    -8216189.79449  -6391535.37445  23228945.486    23228955.022
  24123511.521     -687939.24049   -523969.81645  24123510.361    24123519.614
  23201070.973   -11901127.88249  -9250116.76745  23201070.603    23201078.564
 03  3 29  2 33 30.0000000  0  8G14G25G11G31G15G 3G23G18
  20341073.102   -19452670.13949 -15128491.41347  20341072.668    20341078.614
  23121618.187    -7686569.61649  -5966905.57745  23121618.117    23121627.525
  23665799.971    -5580103.55449  -4328999.25545  23665799.638    23665808.227
  22869969.529    -6427522.54349  -4998430.18245  22869969.120    22869978.036
  22516229.057    -9131908.30849  -7097306.15646  22516228.299    22516237.745
  23243669.673    -8138816.04049  -6331244.20045  23243669.283    23243678.802
  24135059.065     -627257.11949   -476685.07845  24135057.688    24135067.042
  23213836.993   -11834043.32349  -9197843.09545  23213836.395    23213844.169
 03  3 29  2 34  0.0000000  0  8G14G25G11G31G15G 3G23G18
  20346042.974   -19426553.51249 -15108140.78147  20346042.518    20346048.386
  23103577.682    -7781373.55649  -6040778.64045  23103577.576    23103586.760
  23647889.380    -5674223.64749  -4402339.39845  23647888.998    23647897.778
  22879163.438    -6379207.69949  -4960782.33145  22879162.975    22879172.226
  22534266.152    -9037122.42349  -7023447.06846  22534265.323    22534274.872
  23258430.735    -8061246.13949  -6270800.19945  23258430.364    23258439.854
  24146616.237     -566524.04549   -429360.60745  24146614.867    24146624.236
  23226620.990   -11766864.10449  -9145495.65545  23226620.275    23226627.816
 03  3 29  2 34 30.0000000  0  8G14G25G11G31G15G 3G23G18
  20351095.313   -19400003.56249 -15087452.49747  20351094.830    20351100.688
  23085565.300    -7876029.76149  -6114536.60845  23085565.096    23085574.159
  23630011.804    -5768169.43249  -4475543.72845  23630011.415    23630020.465
  22888437.339    -6330473.28649  -4922807.52245  22888436.854    22888446.210
  22552359.448    -8942041.59649  -6949358.16546  22552358.646    22552368.187
  23273228.618    -7983482.94749  -6210205.58345  23273228.329    23273237.675
  24158182.961     -505739.28049   -381995.87045  24158181.799    24158191.468
  23239422.795   -11699589.60749  -9093073.96945  23239422.153    23239429.879
 03  3 29  2 35  0.0000000  0  8G14G25G11G31G15G 3G23G18
  20356229.830   -19373021.46249 -15066427.46847  20356229.336    20356235.233
  23067581.418    -7970535.13049  -6188177.02145  23067581.206    23067590.227
  23612167.889    -5861938.15749  -4548610.09745  23612167.437    23612176.835
  22897790.793    -6281321.32649  -4884507.33245  22897790.279    22897799.529
  22570508.810    -8846667.09749  -6875040.41546  22570507.923    22570517.352
  23288062.887    -7905528.83649  -6149462.19045  23288062.599    23288071.952
  24169759.464     -444901.95049   -334590.18645  24169758.594    24169768.537
  23252242.857   -11632219.45849  -9040577.74645  23252242.347    23252250.142
 03  3 29  2 35 30.0000000  0  8G14G25G11G31G15G 3G23G18
  20361446.092   -19345609.54949 -15045067.52547  20361445.615    20361451.517
  23049626.658    -8064887.26349  -6261698.02645  23049626.407    23049635.371
  23594358.175    -5955527.96849  -4621537.05245  23594357.756    23594367.226
  22907223.108    -6231754.87249  -4845884.14445  22907222.540    22907231.643
  22588713.680    -8751001.11349  -6800495.53246  22588712.769    22588721.982
  23302933.046    -7827387.11349  -6088572.59845  23302932.685    23302942.049
  24181345.743     -384012.31249   -287143.70945  24181345.533    24181355.397
  23265081.187   -11564754.22349  -8988007.44545  23265080.589    23265088.524
 03  3 29  2 36  0.0000000  0  8G14G25G11G31G15G 3G23G18
  20366743.869   -19317769.74149 -15023374.16147  20366743.397    20366749.189
  23031701.393    -8159083.76549  -6335097.77445  23031701.215    23031710.103
  23576583.077    -6048936.63149  -4694322.86945  23576582.681    23576591.858
  22916733.668    -6181776.75549  -4806940.20045  22916733.056    22916742.166
  22606973.606    -8655045.58049  -6725725.02846  22606972.648    22606981.707
  23317838.123    -7749061.43849  -6027539.67445  23317837.697    23317847.180
  24192942.092     -323070.35849   -239656.47145  24192942.265    24192952.239
  23277937.342   -11497194.42749  -8935363.44545  23277936.799    23277944.877
 03  3 29  2 36 30.0000000  0  8G14G25G11G31G15G 3G23G18
  20372122.821   -19289503.23649 -15001348.30347  20372122.313    20372128.137
  23013806.373    -8253121.37049  -6408373.68645  23013806.244    23013815.139
  23558843.034    -6142161.37149  -4766965.35345  23558842.643    23558851.565
  22926322.030    -6131388.76749  -4767676.87545  22926321.478    22926330.772
  22625288.281    -8558801.75649  -6650729.88946  22625287.339    22625296.339
  23332777.630    -7670553.97849  -5966365.09646  23332777.235    23332786.869
  24204549.023     -262075.08349   -192127.69145  24204549.089    24204559.271
  23290811.340   -11429539.15449  -8882645.04945  23290811.048    23290819.262
 03  3 29  2 37  0.0000000  0  8G14G25G11G31G15G 3G23G18
  20377582.357   -19260812.60549 -14978991.94947  20377581.894    20377587.827
  22995941.955    -8346997.91049  -6481524.09345  22995941.861    22995950.867
  23541138.303    -6235200.95549  -4839463.56445  23541137.859    23541146.457
  22935987.896    -6080594.32949  -4728096.82245  22935987.387    22935996.697
  22643657.183    -8462272.03049  -6575511.96446  22643656.363    22643665.355
  23347750.866    -7591868.71649  -5905051.97145  23347750.539    23347760.345
  24216166.447     -201026.85349   -144557.65045  24216166.157    24216176.173
  23303703.584   -11361789.06849  -8829852.76045  23303703.462    23303711.629
 03  3 29  2 37 30.0000000  0  8G14G25G11G31G15G 3G23G18
  20383122.325   -19231699.92249 -14956306.72147  20383121.868    20383127.751
  22978108.708    -8440711.19449  -6554547.29245  22978108.667    22978117.678
  23523468.981    -6328053.43649  -4911815.99445  23523468.631    23523477.084
  22945730.567    -6029396.42449  -4688202.40145  22945729.942    22945739.371
  22662080.194    -8365458.64049  -6500072.99646  22662079.379    22662088.344
  23362757.254    -7513008.89649  -5843602.81545  23362756.970    23362766.866
  24227793.862     -139925.78149    -96946.44345  24227793.377    24227803.158
  23316614.210   -11293944.65349  -8776986.98445  23316613.894    23316621.994
 03  3 29  2 38  0.0000000  0  8G14G25G11G31G15G 3G23G18
  20388742.463   -19202166.41949 -14933293.58847  20388741.967    20388747.768
  22960307.185    -8534257.73849  -6627440.57245  22960307.041    22960316.279
  23505835.787    -6420715.77949  -4984020.28145  23505835.449    23505843.809
  22955549.764    -5977796.71149  -4647994.87245  22955549.074    22955558.557
  22680556.930    -8268362.59949  -6424413.78246  22680556.138    22680565.084
  23377796.494    -7433976.73849  -5782019.37045  23377796.258    23377806.141
  24239431.602      -78770.57749    -49293.04345  24239430.881    24239440.675
  23329542.881   -11226005.28849  -8724047.20745  23329542.364    23329550.363
 03  3 29  2 38 30.0000000  0  8G14G25G11G31G15G 3G23G18
  20394442.329   -19172213.52249 -14909953.65247  20394441.782    20394447.587
  22942538.043    -8627634.11449  -6700201.25845  22942537.942    22942547.292
  23488239.241    -6513184.96849  -5056074.05545  23488238.911    23488247.411
  22965444.897    -5925797.30049  -4607475.87245  22965444.184    22965453.675
  22699087.148    -8170985.38149  -6348535.47846  22699086.379    22699095.360
  23392868.193    -7354774.77549  -5720303.62245  23392867.994    23392877.689
  24251079.560      -17560.54949     -1596.92145  24251078.668    24251088.515
  23342489.428   -11157970.43649  -8671033.02745  23342488.911    23342496.966
 03  3 29  2 39  0.0000000  0  8G14G25G11G31G15G 3G23G18
  20400221.521   -19141843.05549 -14886288.33447  20400221.001    20400226.814
  22924801.807    -8720838.05849  -6772827.56646  22924801.710    22924811.150
  23470679.773    -6605459.02849  -5127975.78545  23470679.447    23470688.176
  22975415.600    -5873401.11749  -4566647.71145  22975414.931    22975424.372
  22717670.685    -8073328.65749  -6272439.36646  22717669.815    22717678.905
  23407971.693    -7275406.14049  -5658458.01045  23407971.438    23407981.049
  24262737.937       43704.49549     46142.06545  24262736.937    24262746.767
  23355453.876   -11089840.24549  -8617944.54445  23355453.527    23355461.780
 03  3 29  2 39 30.0000000  0  8G14G25G11G31G15G 3G23G18
  20406079.947   -19111056.79749 -14862299.03047  20406079.465    20406085.196
  22907098.961    -8813866.66949  -6845317.26246  22907098.916    22907108.304
  23453158.007    -6697535.72949  -5199723.73645  23453157.647    23453166.419
  22985461.375    -5820610.57049  -4525512.25745  22985460.716    22985470.264
  22736306.859    -7975393.98249  -6196126.67845  22736306.103    22736315.288
  23423106.428    -7195873.54349  -5596484.62945  23423106.081    23423115.628
  24274406.744      105024.97349     93924.26245  24274405.779    24274415.475
  23368436.364   -11021614.57549  -8564781.67245  23368436.259    23368444.674
 03  3 29  2 40  0.0000000  0  8G14G25G11G31G15G 3G23G18
  20412017.255   -19079856.45649 -14837987.06347  20412016.715    20412022.430
  22889430.212    -8906716.54749  -6917667.67946  22889430.127    22889439.403
  23435674.393    -6789412.33749  -5271315.76445  23435674.070    23435682.777
  22995581.693    -5767428.05348  -4484071.38444  22995580.983    22995590.661
  22754995.475    -7877183.04649  -6119598.72445  22754994.905    22755004.272
  23438271.730    -7116179.98549  -5534385.80945  23438271.352    23438280.979
  24286085.951      166401.34349    141749.99845  24286085.093    24286094.862
  23381437.451   -10953293.28649  -8511544.28645  23381437.328    23381445.908
 03  3 29  2 40 30.0000000  0  8G14G25G11G31G15G 3G23G18
  20418032.856   -19048244.10749 -14813354.04647  20418032.311    20418038.066
  22871795.879    -8999385.54349  -6989877.13946  22871795.845    22871805.041
  23418229.323    -6881086.97049  -5342750.40345  23418228.967    23418237.610
  23005775.807    -5713856.63248  -4442327.40544  23005775.551    23005784.909
  22773736.357    -7778698.15549  -6042857.29545  22773735.901    22773745.475
  23453466.837    -7036328.80749  -5472164.17345  23453466.523    23453476.316
  24297775.788      227833.73849    189619.40845  24297775.290    24297784.696
  23394457.030   -10884876.45449  -8458232.48145  23394456.614    23394465.223
 03  3 29  2 41  0.0000000  0  8G14G25G11G31G15G 3G23G18
  20424126.293   -19016222.60249 -14788402.21147  20424125.742    20424131.538
  22854196.500    -9091871.75549  -7061944.17846  22854196.339    22854205.415
  23400822.892    -6972558.25649  -5414026.58045  23400822.508    23400831.191
  23016043.665    -5659899.90248  -4400283.21544  23016043.006    23016052.085
  22792528.931    -7679941.92949  -5965904.43545  22792528.611    22792538.323
  23468691.181    -6956323.86749  -5409822.72145  23468690.904    23468700.852
  24309476.366      289321.36249    237531.86645  24309475.930    24309485.289
  23407494.818   -10816365.29249  -8404847.16545  23407494.079    23407502.560
 03  3 29  2 41 30.0000000  0  8G14G25G11G31G15G 3G23G18
  20430297.290   -18983793.41449 -14763132.69547  20430296.760    20430302.577
  22836632.397    -9184172.18549  -7133866.46346  22836632.199    22836641.145
  23383455.648    -7063823.36549  -5485142.10445  23383455.221    23383463.826
  23026384.395    -5605559.95548  -4357940.38944  23026383.835
  22811373.111    -7580915.54649  -5888741.07945  22811372.745    22811382.596
  23483944.390    -6876167.42349  -5347363.23745  23483944.154    23483954.113
  24321187.855      350865.24949    285488.14845  24321187.222    24321196.643
  23420550.270   -10747759.21849  -8351387.88345  23420549.421    23420557.939
 03  3 29  2 42  0.0000000  0  8G14G25G11G31G15G 3G23G18
  20436545.775   -18950957.39449 -14737546.17447  20436545.284    20436551.016
  22819104.293    -9276282.92849  -7205640.93546  22819104.093    22819113.014
  23366127.976    -7154879.35249  -5556094.66445  23366127.577    23366136.232
  23036796.832    -5550838.55558  -4315300.31944  23036797.368
  22830268.548    -7481620.00749  -5811367.96546  22830268.055    22830278.073
  23499225.982    -6795861.77749  -5284787.48445  23499225.784    23499235.780
  24332910.540      412466.57049    333489.17845  24332909.607    24332918.998
  23433623.543   -10679057.43049  -8297854.00345  23433622.950    23433631.467
 03  3 29  2 42 30.0000000  0  8G14G25G11G31G15G 3G23G18
  20442871.362   -18917716.31949 -14711644.02347  20442870.835    20442876.579
  22801612.815    -9368201.07749  -7277265.33546  22801612.622    22801621.477
  23348840.458    -7245723.51249  -5626882.17545  23348840.105    23348848.901
                  -5495738.01648  -4272364.84143
  22849214.970    -7382056.75349  -5733786.24946  22849214.398    22849224.461
  23514535.491    -6715409.65449  -5222097.58645  23514535.316    23514545.416
  24344644.270      474125.97449    381535.46345  24344643.115    24344652.578
  23446715.081   -10610259.51349  -8244245.21645  23446714.717    23446723.336
 03  3 29  2 43  0.0000000  0  8G14G25G11G31G15G 3G23G18
  20449273.412   -18884073.03049 -14685428.45547  20449272.903    20449278.681
  22784158.380    -9459925.08449  -7348738.45346  22784158.066    22784166.888
  23331593.648    -7336354.21449  -5697503.34145  23331593.365    23331602.137
                  -5440262.25048  -4081640.79543
  22868211.713    -7282228.98549  -5655998.43746  22868211.136    22868221.105
  23529872.094    -6634815.26649  -5159296.82145  23529871.919    23529882.071
  24356388.629      535842.51949    429626.29545  24356387.334    24356396.904
  23459825.141   -10541366.21049  -8190562.12045  23459824.781    23459833.154
 03  3 29  2 43 30.0000000  0  8G14G25G11G31G15G 3G23G18
  20455751.689   -18850029.13649 -14658900.72347  20455751.188    20455757.020
  22766741.255    -9551452.11349  -7420058.07246  22766740.924    22766749.764
  23314388.026    -7426769.37149  -5767956.55045  23314387.835    23314396.578
                  -5384413.96148  -4038079.99643
  22887258.597    -7182138.56349  -5578005.95246  22887257.941    22887267.731
  23545235.373    -6554081.31849  -5096387.31445  23545235.153    23545245.280
  24368143.681      597616.82749    477762.14045  24368142.476    24368152.105
  23472953.672   -10472377.70049  -8136804.84545  23472953.112    23472961.105
 03  3 29  2 44  0.0000000  0  8G14G25G11G31G15G 3G23G18
  20462305.937   -18815585.98049 -14632061.87647  20462305.461    20462311.408
  22749362.251    -9642778.22949  -7491221.13346  22749361.965    22749370.803
  23297224.230    -7516965.96249  -5838239.45245  23297224.018    23297232.667
                  -5328194.85448  -3994192.75143
  22906355.271    -7081786.30549  -5499809.44745  22906354.510    22906364.258
  23560624.749    -6473209.84449  -5033370.66245  23560624.409    23560634.636
  24379909.690      659450.13649    525943.94945  24379908.642    24379918.769
  23486100.198   -10403293.28949  -8082972.84445  23486099.681    23486107.302
 03  3 29  2 44 30.0000000  0  8G14G25G11G31G15G 3G23G18
  20468935.786   -18780746.08449 -14604913.88247  20468935.301    20468941.229
  22732021.915    -9733901.33749  -7562226.01446  22732021.639    22732030.585
  23280102.445    -7606941.99449  -5908350.49245  23280102.261    23280110.833
                  -5271608.27048  -4126648.57843
  22925501.245    -6981174.38849  -5421410.59845  22925500.416    22925510.121
  23576039.615    -6392204.49749  -4970249.70545  23576039.218    23576049.454
  24391687.099      721342.17449    574171.49145  24391686.147    24391696.688
  23499264.880   -10334113.28749  -8029066.33945  23499264.437    23499271.684
 03  3 29  2 45  0.0000000  0  8G14G25G11G31G15G 3G23G18
  20475640.726   -18745511.36449 -14577458.23447  20475640.229    20475646.124
  22714720.771    -9824818.94049  -7633070.75446  22714720.526    22714729.435
  23263022.960    -7696695.64349  -5978288.25845  23263022.695    23263031.169
                  -5214657.04848  -4082273.18643
  22944696.214    -6880304.90949  -5342811.06045  22944695.368    22944705.024
  23591479.408    -6311068.60149  -4907027.01445  23591479.028    23591489.148
  24403475.852      783293.06749    622444.87545  24403475.006    24403485.905
  23512447.851   -10264837.93949  -7975085.53845  23512447.241    23512454.243
 03  3 29  2 45 30.0000000  0  8G14G25G11G31G15G 3G23G18
  20482420.262   -18709884.00949 -14549696.63447  20482419.846    20482425.772
  22697459.412    -9915528.47949  -7703753.36946  22697459.096    22697467.927
  23245986.177    -7786224.35449  -6048050.74045  23245986.029    23245994.274
                  -5157344.14748  -4037618.53343
  22963939.765    -6779179.99249  -5264012.46345  22963938.846    22963948.392
  23606943.511    -6229805.15049  -4843704.91045  23606943.083    23606953.269
  24415276.187      845303.11149    670764.37545  24415275.137    24415286.218
  23525649.127   -10195467.29249  -7921030.49145  23525648.162    23525654.935
 03  3 29  2 46  0.0000000  0  8G14G25G11G31G15G 3G23G18
  20489274.420   -18673865.45949 -14521630.20347  20489273.981    20489279.900
  22680238.154   -10006026.73149  -7774271.35246  22680237.828    22680246.659
  23228992.774    -7875525.63449  -6117636.01145  23228992.514    23229000.657
                  -5099671.91349  -4171799.83743
  22983231.410    -6677801.25449  -5185016.09745  22983230.591    22983240.037
  23622431.353    -6148416.59249  -4780285.30745  23622430.881    23622441.116
  24427087.630      907372.93049    719130.47645  24427086.530    24427097.976
  23538868.667   -10126000.91349  -7866900.84745  23538867.321    23538874.042
 03  3 29  2 46 30.0000000  0  8G14G25G11G31G15G 3G23G18
  20496202.625   -18637457.36649 -14493260.23247  20496202.175    20496208.080
  22663057.570   -10096310.61349  -7844622.29346  22663057.272    22663066.111
  23212043.041    -7964596.86249  -6187042.01345  23212042.768    23212050.779
                  -5041642.89849  -4126583.96343
  23002571.037    -6576169.88849  -5105822.85145  23002570.262    23002579.721
  23637942.428    -6066905.76449  -4716770.42245  23637942.063    23637952.188
  24438910.196      969503.33049    767543.77545  24438909.445    24438921.195
  23552105.981   -10056438.52749  -7812696.38545  23552104.647    23552111.365
 03  3 29  2 47  0.0000000  0  8G14G25G11G31G15G 3G23G18
  20503204.676   -18600660.65949 -14464587.43947  20503204.287    20503210.172
  22645918.471   -10186376.59549  -7914803.45046  22645918.187    22645927.062
  23195137.600    -8053434.57149  -6256266.05345  23195137.311    23195145.309
                  -4983258.77549  -4081093.77243
  23021958.724    -6474287.03749  -5026433.65645  23021957.950    23021967.250
  23653476.433    -5985274.53249  -4653161.70245  23653476.048    23653486.085
  24450744.763     1031695.62949    816005.31845  24450744.322    24450756.202
  23565361.378    -9986779.13449  -7758416.32645  23565360.321    23565367.222
 03  3 29  2 47 30.0000000  0  8G14G25G11G31G15G 3G23G18
  20510280.491   -18563477.58149 -14435613.59347  20510280.038    20510285.805
  22628821.297   -10276222.21749  -7984812.89446  22628820.973    22628829.902
  23178276.882    -8142036.84049  -6325306.66145  23178276.643    23178284.669
                  -4924522.68349  -4217051.69843
  23041393.862    -6372155.05549  -4946850.33245  23041393.035    23041402.284
  23669032.733    -5903526.24249  -4589461.80545  23669032.349    23669042.219
  24462591.451     1093949.82049    864515.06945  24462590.971    24462602.745
  23578634.775    -9917023.07749  -7704060.95045  23578634.122    23578641.334
 03  3 29  2 48  0.0000000  0  8G14G25G11G31G15G 3G23G18
  20517429.303   -18525910.57049 -14406340.57947  20517428.800    20517434.538
  22611766.445   -10365845.19149  -8054648.84146  22611766.120    22611775.214
  23161461.336    -8230401.61849  -6394162.19945  23161461.075    23161469.221
                  -4865437.72749  -4171011.49343
  23060876.040    -6269775.98049  -4867074.46345  23060875.149    23060884.294
  23684610.716    -5821664.03349  -4525673.14745  23684610.326    23684620.055
  24474450.125     1156265.96949    913073.09745  24474449.381    24474461.098
  23591926.802    -9847170.50949  -7649630.37245  23591926.449    23591933.691
 03  3 29  2 48 30.0000000  0  8G14G25G11G31G15G 3G23G18
  20524650.550   -18487962.46949 -14376770.60547  20524650.070    20524655.840
  22594754.301   -10455243.65949  -8124309.85646  22594754.018    22594763.197
  23144691.435    -8318527.33049  -6462831.45045  23144691.174    23144699.208
                  -4806007.71049  -4124702.26744                  23178546.229
  23080404.642    -6167152.82149  -4787108.39745  23080403.739    23080412.797
  23700209.460    -5739692.08449  -4461798.98645  23700209.157    23700218.871
  24486320.680     1218643.41249    961678.89945  24486319.673    24486331.072
  23605237.429    -9777222.52049  -7595125.43945  23605237.035    23605244.224
 03  3 29  2 49  0.0000000  0  8G14G25G11G31G15G 3G23G18
  20531944.037   -18449635.02649 -14346905.04447  20531943.512    20531949.287
  22577785.438   -10544414.99349  -8193793.89846  22577785.145    22577794.341
  23127967.584    -8406411.85549  -6531312.76345  23127967.321    23127975.187
  23189908.825    -4746235.16249  -4078126.24445  23189908.110    23189920.948
  23099979.215    -6064287.38849  -4706953.55145  23099978.358    23099987.519
  23715828.441    -5657613.24949  -4397841.52845  23715828.124    23715838.008
  24498202.842     1281082.88549   1010333.00445  24498201.768    24498212.755
  23618566.527    -9707178.88349  -7540545.99245  23618565.937    23618573.012
 03  3 29  2 49 30.0000000  0  8G14G25G11G31G15G 3G23G18
  20539309.195   -18410930.43249 -14316745.59847  20539308.683    20539314.443
  22560860.225   -10633356.29149  -8263098.68846  22560860.022    22560869.200
  23111290.137    -8494052.64849  -6599604.15745  23111289.857    23111297.650
  23201347.740    -4686123.05749  -4031285.68345  23201347.561    23201356.299
  23119599.592    -5961181.40549  -4626611.25645  23119598.785    23119607.874
  23731467.159    -5575430.44349  -4333803.03245  23731466.808    23731476.966
  24510096.588     1343584.40749   1059035.48745  24510095.633    24510106.538
  23631913.995    -9637039.55649  -7485891.98145  23631913.017    23631919.929
 03  3 29  2 50  0.0000000  0  8G14G25G11G31G15G 3G23G18
  20546745.920   -18371850.33549 -14286293.55547  20546745.394    20546751.067
  22543979.502   -10722064.25649  -8332221.66146  22543979.298    22543988.456
  23094659.521    -8581447.36349  -6667703.81046  23094659.200    23094666.992
  23212850.723    -4625674.03749  -3984182.59445  23212850.049    23212859.720
  23139265.416    -5857836.72949  -4546082.97045  23139264.571    23139273.684
  23747125.324    -5493146.32649  -4269685.58445  23747124.978    23747135.228
  24522002.304     1406148.73349   1107786.89445  24522001.611    24522011.972
  23645279.545    -9566804.10849  -7431163.07145  23645278.305    23645285.265
 03  3 29  2 50 30.0000000  0  8G14G25G11G31G15G 3G23G18
  20554253.819   -18332396.06049 -14255549.94747  20554253.277    20554258.955
  22527143.867   -10810535.73249  -8401160.36346  22527143.653    22527152.774
  23078076.267    -8668592.93349  -6735609.33746  23078075.951    23078083.739
  23224417.465    -4564890.18949  -3936818.60745  23224416.811    23224426.438
  23158976.481    -5754254.47649  -4465369.56445  23158975.674    23158984.735
  23762802.572    -5410763.03349  -4205490.86045  23762802.244    23762812.342
  24533920.321     1468776.69249   1156587.90545  24533919.570    24533929.463
  23658663.330    -9496472.13349  -7376358.95745  23658662.109    23658669.056
 03  3 29  2 51  0.0000000  0  8G14G25G11G31G15G 3G23G18
  20561832.443   -18292569.87849 -14224516.52947  20561831.940    20561837.654
  22510353.693   -10898768.38449  -8469912.95646  22510353.417    22510362.503
  23061540.725    -8755487.23949  -6803319.06046  23061540.398    23061548.212
  23236047.433    -4503774.70149  -3889196.18745  23236046.839    23236056.341
  23178732.435    -5650437.06049  -4384472.90945  23178731.597    23178740.652
  23778498.008    -5328284.07449  -4141221.60345  23778497.689    23778507.731
  24545850.730     1531468.50749   1205438.66945  24545849.721    24545859.241
  23672065.167    -9426043.82949  -7321479.75445  23672064.121    23672071.150
 03  3 29  2 51 30.0000000  0  8G14G25G11G31G15G 3G23G18
  20569481.540   -18252373.33849 -14193194.52147  20569481.035    20569486.807
  22493609.464   -10986759.38549  -8538477.25646  22493609.209    22493618.164
  23045053.627    -8842127.49149  -6870830.82646  23045053.292    23045060.979
  23247739.951    -4442329.96749  -3841317.21045  23247739.395    23247748.935
  23198532.828    -5546386.14849  -4303394.32745  23198531.980    23198541.091
  23794211.134    -5245712.10849  -4076879.87045  23794210.720    23794220.829
  24557793.285     1594224.89049   1254339.73745  24557792.105    24557801.120
  23685485.320    -9355518.49349  -7266524.95645  23685484.480    23685491.693
 03  3 29  2 52  0.0000000  0  8G14G25G11G31G15G 3G23G18
  20577200.687   -18211808.44649 -14161585.48847  20577200.231    20577206.002
  22476911.804   -11074506.00649  -8606851.13046  22476911.538    22476920.314
  23028615.253    -8928511.23649  -6938142.72645  23028614.852    23028622.377
  23259494.512    -4380558.94249  -3793183.97445  23259494.017    23259503.617
  23218377.494    -5442103.52449  -4222135.17445  23218376.522    23218385.634
  23809941.275    -5163049.92849  -4012467.84645  23809940.851    23809950.992
  24569747.972     1657046.18049   1303291.38444  24569746.708    24569755.471
  23698923.961    -9284896.35449  -7211494.74745  23698923.387    23698930.640
 03  3 29  2 52 30.0000000  0  8G14G25G11G31G15G 3G23G18
  20584989.648   -18170877.27049 -14129691.03647  20584989.159    20584994.922
  22460261.140   -11162005.41249  -8675032.36846  22460260.845    22460269.514
  23012225.892    -9014636.35149  -7005253.08945  23012225.638    23012232.944
  23271310.754    -4318464.38849  -3744798.63745  23271310.237    23271319.836
  23238265.773    -5337591.10949  -4140696.97945  23238264.744    23238273.824
  23825688.042    -5080300.35149  -3947987.72145  23825687.600    23825697.693
  24581714.737     1719932.73649   1352293.88544  24581713.504    24581722.099
  23712381.220    -9214177.52749  -7156389.17345  23712380.651    23712387.997
 03  3 29  2 53  0.0000000  0  8G14G25G11G31G15G 3G23G18
  20592847.884   -18129581.27249 -14097512.30547  20592847.419    20592853.248
  22443658.028   -11249254.48049  -8743018.52546  22443657.799    22443666.359
  22995886.365    -9100499.92549  -7072159.65845  22995886.170    22995893.397
  23283188.146    -4256048.74749  -3696163.08645  23283187.535    23283197.173
  23258197.034    -5232850.43749  -4059080.89745  23258196.196    23258205.389
  23841450.927    -4997465.96949  -3883441.51545  23841450.388    23841460.598
  24593693.833     1782885.34749   1401347.87144  24593692.681    24593701.395
  23725857.171    -9143361.26549  -7101207.66845  23725856.621    23725863.830
 03  3 29  2 53 30.0000000  0  8G14G25G11G31G15G 3G23G18
  20600775.199   -18087923.08949 -14065051.35747  20600774.740    20600780.466
  22427103.110   -11336250.89449  -8810807.80646  22427102.939    22427111.272
  22979597.077    -9186100.41249  -7138861.22645  22979596.827    22979603.963
  23295125.879    -4193315.45849  -3647280.01645  23295125.241    23295134.924
  23278171.313    -5127883.98049  -3977288.89045  23278170.508    23278179.877
  23857229.147    -4914550.18449  -3818831.86045  23857228.614    23857239.108
  24605685.520     1845903.69449   1450453.08644  24605684.550    24605693.138
  23739351.631    -9072448.27549  -7045950.81045  23739350.829    23739358.176
 03  3 29  2 54  0.0000000  0  8G14G25G11G31G15G 3G23G18
  20608771.010   -18045905.08849 -14032310.03347  20608770.495    20608776.224
  22410596.767   -11422992.61849  -8878398.63746  22410596.577    22410604.620
  22963358.395    -9271435.40449  -7205355.90646  22963358.068    22963365.100
  23307123.415    -4130267.66549  -3598151.86645  23307122.914    23307132.561
  23298188.223    -5022694.00349  -3895322.71345  23298187.330    23298196.869
  23873022.425    -4831556.32749  -3754161.38845  23873021.891    23873032.416
  24617689.945     1908988.06049   1499609.70245  24617688.799    24617697.871
  23752864.422    -9001438.41649  -6990618.47745  23752863.564    23752870.769
 03  3 29  2 54 30.0000000  0  8G14G25G11G31G15G 3G23G18
  20616834.837   -18003528.99749 -13999289.66847  20616834.323    20616840.193
  22394139.411   -11509476.86549  -8945788.83546  22394139.170    22394146.948
  22947170.638    -9356502.62449  -7271641.93346  22947170.284    22947177.204
  23319180.306    -4066908.30949  -3548780.95145  23319179.908    23319189.369
  23318247.266    -4917282.74549  -3813184.11745  23318246.454    23318256.037
  23888830.025    -4748487.30249  -3689432.36545  23888829.487    23888839.993
  24629707.191     1972138.77549   1548818.03645  24629705.919    24629715.019
  23766395.571    -8930332.10249  -6935210.98545  23766394.668    23766401.649
 03  3 29  2 55  0.0000000  0  8G14G25G11G31G15G 3G23G18
  20624966.439   -17960796.61149 -13965991.67747  20624965.963    20624971.875
  22377731.640   -11595700.38949  -9012975.88446  22377731.359    22377739.007
  22931034.276    -9441299.28749  -7337717.14046  22931033.926    22931040.838
  23331296.036    -4003239.86149  -3499169.17645  23331295.650    23331305.108
  23338348.414    -4811651.38649  -3730874.00545  23338347.538    23338357.175
  23904651.418    -4665345.63549  -3624646.72745  23904650.864    23904661.521
  24641737.195     2035356.50649   1598078.59845  24641735.991    24641745.085
  23779944.877    -8859128.74849  -6879727.87845  23779944.158    23779951.018
 03  3 29  2 55 30.0000000  0  8G14G25G11G31G15G 3G23G18
  20633165.560   -17917709.92349 -13932417.60747  20633165.087    20633170.951
  22361373.894   -11681660.51649  -9079957.68346  22361373.613    22361381.181
  22914949.784    -9525823.11549  -7403579.74646  22914949.421    22914956.386
  23343470.151    -3939265.29449  -3449318.84945  23343469.612    23343479.149
  23358490.894    -4705802.03349  -3648394.02945  23358489.974    23358499.713
  23920485.929    -4582134.13849  -3559806.66145  23920485.413    23920496.127
  24653779.932     2098641.71849   1647391.72645  24653778.784    24653788.077
  23793512.675    -8787828.04749  -6824168.89845  23793512.255    23793518.941
 03  3 29  2 56  0.0000000  0  8G14G25G11G31G15G 3G23G18
  20641431.856   -17874270.75749 -13898568.89447  20641431.344    20641437.062
  22345066.857   -11767354.19949  -9146731.85246  22345066.523    22345074.182
  22898917.756    -9610071.37149  -7469227.62446  22898917.360    22898924.444
  23355701.894    -3874987.12049  -3399231.97145  23355701.334    23355710.914
  23378674.585    -4599736.57249  -3565745.66045  23378673.670    23378683.428
  23936333.303    -4498855.64549  -3494914.37745  23936332.742    23936343.606
  24665835.577     2161995.02149   1696757.91745  24665834.688    24665844.112
  23807098.962    -8716429.79049  -6768533.92345  23807098.759    23807105.609
 03  3 29  2 56 30.0000000  0  8G14G25G11G31G15G 3G23G18
  20649764.736   -17830481.21049 -13864447.14347  20649764.216    20649769.902
  22328810.879   -11852779.23549  -9213296.69246  22328810.556    22328818.394
  22882938.544    -9694042.02649  -7534659.19946  22882938.172    22882945.441
  23367990.734    -3810408.60549  -3348911.07445  23367990.297    23367999.705
  23398899.223    -4493457.15849  -3482930.57645  23398898.219    23398907.958
  23952192.981    -4415512.99249  -3429972.10945  23952192.481    23952203.192
  24677904.132     2225416.42849   1746177.19745  24677903.313    24677912.952
  23820704.080    -8644934.31149  -6712823.16045  23820704.109    23820710.789
 03  3 29  2 57  0.0000000  0  8G14G25G11G31G15G 3G23G18
  20658163.571   -17786344.35849 -13830054.77247  20658163.091    20658168.838
  22312606.240   -11937934.00749  -9279650.94046  22312605.965    22312613.984
  22867012.348    -9777733.74549  -7599873.42746  22867012.007    22867019.424
  23380336.133    -3745533.64349  -3298359.16045  23380335.711    23380344.776
  23419163.982    -4386966.74649  -3399951.07445  23419162.831    23419172.625
  23968064.186    -4332110.53049  -3364983.25245  23968063.764    23968074.123
  24689985.804     2288905.30249   1795649.03845  24689984.889    24689994.713
  23834327.889    -8573342.62349  -6657037.44345  23834327.648    23834334.465
 03  3 29  2 57 30.0000000  0  8G14G25G11G31G15G 3G23G18
  20666628.374   -17741861.53949 -13795392.81347  20666627.901    20666633.622
  22296453.629   -12022815.45349  -9345792.20246  22296453.377    22296461.538
  22851139.783    -9861143.59049  -7664868.00746  22851139.516    22851146.943
  23392737.543    -3680364.43849  -3247577.98345  23392736.915    23392745.958
  23439468.184    -4280266.83549  -3316808.34245  23439467.125    23439477.042
  23983946.259    -4248650.15449  -3299949.26745  23983945.849    23983956.191
  24702080.602     2352462.73049   1845174.27645  24702079.366    24702089.456
  23847970.229    -8501653.86349  -6601176.10145  23847969.814    23847976.601
 03  3 29  2 58  0.0000000  0  8G14G25G11G31G15G 3G23G18
  20675158.635   -17697034.90349 -13760462.94847  20675158.116    20675163.778
  22280353.620   -12107420.56949  -9411718.14146  22280353.363    22280361.651
  22835321.423    -9944268.92249  -7729640.87446  22835321.186    22835328.530
  23405194.324    -3614903.84449  -3196569.77045  23405193.651    23405202.744
  23459811.982    -4173359.20049  -3233503.72545  23459810.861    23459820.944
  23999838.782    -4165134.67049  -3234872.32945  23999838.337    23999848.707
  24714188.595     2416089.07549   1894753.22045  24714187.313    24714197.206
  23861630.955    -8429867.95849  -6545239.07145  23861630.197    23861637.013
 03  3 29  2 58 30.0000000  0  8G14G25G11G31G15G 3G23G18
  20683753.910   -17651866.16849 -13725266.51147  20683753.425    20683759.126
  22264306.798   -12191746.21849  -9477426.32346  22264306.582    22264314.910
  22819557.773   -10027107.04849  -7794189.94146  22819557.539    22819564.810
  23417706.012    -3549154.69149  -3145336.70045  23417705.240    23417714.596
  23480194.904    -4066245.64849  -3150038.65345  23480193.861    23480204.022
  24015741.236    -4081566.96049  -3169754.69845  24015740.839    24015751.199
  24726309.813     2479785.06149   1944386.41745  24726308.462    24726318.096
  23875310.162    -8357984.48249  -6489225.99545  23875309.247    23875316.084
 03  3 29  2 59  0.0000000  0  8G14G25G11G31G15G 3G23G18
  20692413.919   -17606357.64849 -13689805.30647  20692413.450    20692419.142
  22248313.529   -12275790.36549  -9542915.14846  22248313.363    22248321.754
  22803849.200   -10109656.27249  -7858513.90746  22803848.905    22803856.145
  23430271.944    -3483120.06649  -3093881.18545  23430271.220    23430280.540
  23500616.697    -3958928.63649  -3066415.05445  23500615.702    23500625.588
  24031652.986    -3997950.22149  -3104598.86745  24031652.483    24031663.205
  24738444.110     2543550.76849   1994073.94945  24738442.862    24738452.304
  23889007.884    -8286004.03949  -6433137.36845  23889006.775    23889013.638
 03  3 29  2 59 30.0000000  0  8G14G25G11G31G15G 3G23G18
  20701138.283   -17560510.62649 -13654080.33147  20701137.791    20701143.507
  22232374.557   -12359549.54349  -9608181.92646  22232374.427    22232382.772
  22788196.133   -10191913.71349  -7922610.51846  22788195.780    22788203.074
  23442891.836    -3416802.48249  -3042205.15945  23442891.154    23442900.371
  23521077.050    -3851409.51049  -2982633.95245  23521075.998    23521085.826
  24047573.546    -3914286.64749  -3039406.54345  24047573.122    24047583.974
  24750591.183     2607386.83648   2043816.30845  24750590.224    24750599.941
  23902724.249    -8213925.82349  -6376972.57045  23902722.790    23902729.903
 03  3 29  3  0  0.0000000  0  8G14G25G11G31G15G 3G23G18
  20709926.790   -17514326.64249 -13618092.79447  20709926.336    20709931.954
  22216490.540   -12443020.70249  -9673224.26346  22216490.344    22216498.638
  22772599.259   -10273875.91949  -7986477.08246  22772598.838    22772606.147
  23455565.073    -3350204.15749  -2990310.38545  23455564.410    23455573.657
  23541575.380    -3743689.62249  -2898696.41245  23541574.298    23541584.209
  24063502.690    -3830578.45549  -2974179.44145  24063502.224    24063513.124
  24762751.178     2671294.55048   2093614.50245  24762750.866    24762761.507
  23916459.294    -8141748.89849  -6320730.85245  23916457.541    23916464.799
 03  3 29  3  0 30.0000000  0  8G14G25G11G31G15G 3G23G18
  20718779.116   -17467807.35749 -13581843.98647  20718778.618    20718784.316
  22200661.837   -12526200.96149  -9738039.92346  22200661.622    22200669.812
  22757058.961   -10355540.35349  -8050111.61646  22757058.526    22757065.777
  23468291.164    -3283327.76049  -2938198.93445  23468290.541    23468299.911
  23562111.372    -3635770.86649  -2814603.93545  23562110.371    23562120.393
  24079439.962    -3746828.22949  -2908919.60045  24079439.431    24079450.307
  24774924.808     2735274.51648   2143468.97144  24774925.127    24774936.398
  23930212.853    -8069473.22949  -6264412.20645  23930211.349    23930218.597
 03  3 29  3  1  0.0000000  0  8G14G25G11G31G15G 3G23G18
  20727694.647   -17420955.54949 -13545336.07447  20727694.176    20727699.924
  22184888.802   -12609088.26649  -9802627.31846  22184888.612    22184896.758
  22741575.642   -10436905.27249  -8113512.74846  22741575.236    22741582.416
  23481069.556    -3216176.88049  -2885873.59745  23481068.875    23481078.363
  23582684.814    -3527655.70449  -2730358.40545  23582683.918    23582693.932
  24095384.501    -3663039.49849  -2843629.75545  24095383.973    24095394.821
  24787112.844     2799326.32248   2193379.41044  24787113.150    24787124.840
  23943984.977    -7997099.40849  -6208017.06745  23943983.615    23943990.854
 03  3 29  3  1 30.0000000  0  7G14G25G11G31G15G 3G18
  20736672.702   -17373775.68049 -13508572.53447  20736672.240    20736677.957
  22169171.457   -12691682.83049  -9866986.59746  22169171.252    22169179.321
  22726149.182   -10517971.14849  -8176680.87046  22726148.805    22726155.965
  23493899.068    -3148757.00649  -2833338.65545  23493898.462    23493907.946
  23603294.688    -3419348.75249  -2645963.41445  23603293.870    23603304.118
  24111335.380    -3579217.49349  -2778313.95745  24111334.800    24111345.570
  23957775.198    -7924629.81149  -6151547.30845  23957774.098    23957781.370
 03  3 29  3  2  0.0000000  0  7G14G25G11G31G15G 3G18
  20745713.307   -17326267.04249 -13471552.81347  20745712.832    20745718.477
  22153510.813   -12773979.16749  -9931113.50146  22153510.624    22153518.599
  22710780.698   -10598732.76549  -8239611.91346  22710780.334    22710787.609
  23506779.609    -3081068.45649  -2780594.36745  23506779.126    23506788.674
  23623941.257    -3310849.43149  -2561418.53345  23623940.556    23623950.782
  24127292.502    -3495362.39749  -2712972.38745  24127292.063    24127302.560
  23971584.237    -7852061.65549  -6095000.73745  23971583.288    23971590.700
 03  3 29  3  2 30.0000000  0  7G14G25G11G31G15G 3G18
  20754815.933   -17278432.13449 -13434278.85047  20754815.430    20754821.092
  22137907.467   -12855974.76649  -9995006.06646  22137907.276    22137915.090
  22695470.485   -10679188.05949  -8302304.27446  22695470.163    22695477.549
  23519710.899    -3013114.47649  -2727643.22145  23519710.353    23519719.942
  23644624.229    -3202160.14149  -2476725.63745  23644623.567    23644633.681
  24143255.315    -3411477.32349  -2647607.46845  24143255.022    24143265.329
  23985411.998    -7779395.43949  -6038377.75045  23985411.335    23985418.641
 03  3 29  3  3  0.0000000  0  7G14G25G11G31G15G 3G18
  20763980.322   -17230272.74649 -13396752.04347  20763979.856    20763985.549
  22122361.965   -12937667.06449 -10058662.30446  22122361.728    22122369.383
  22680219.120   -10759334.49349  -8364755.95946  22680218.781    22680226.253
  23532692.151    -2944897.85849  -2674487.43246  23532691.596    23532701.211
  23665342.999    -3093282.72949  -2391886.12945  23665342.384    23665352.272
  24159223.246    -3327565.27949  -2582221.53245  24159222.978    24159233.331
  23999258.426    -7706630.77849  -5981678.06845  23999257.870    23999265.257
 03  3 29  3  3 30.0000000  0  7G14G25G11G31G15G 3G18
  20773206.039   -17181791.34749 -13358974.32747  20773205.569    20773211.235
  22106874.607   -13019053.89149 -10122080.50846  22106874.310    22106881.881
  22665026.887   -10839169.99749  -8426965.36046  22665026.539    22665033.935
  23545722.704    -2876422.08449  -2621129.72946  23545722.135    23545731.837
  23686096.960    -2984219.63049  -2306901.96145  23686096.287    23686106.331
  24175195.765    -3243629.31749  -2516816.92845  24175195.391    24175206.013
  24013123.661    -7633767.90949  -5924901.85245  24013123.190    24013130.625
 03  3 29  3  4  0.0000000  0  7G14G25G11G31G15G 3G18
  20782492.643   -17132989.80649 -13320947.15047  20782492.160    20782497.773
  22091445.874   -13100132.43049 -10185258.49446  22091445.590    22091453.060
  22649894.137   -10918692.28849  -8488930.67546  22649893.865    22649901.136
  23558802.108    -2807689.86649  -2567572.18146  23558801.551    23558811.183
  23706885.827    -2874972.93949  -2221774.71645  23706885.245    23706895.403
  24191172.258    -3159672.36449  -2451396.00045  24191171.810    24191182.582
  24027007.736    -7560806.80149  -5868049.07345  24027007.369    24027014.527
 03  3 29  3  4 30.0000000  0  7G14G25G11G31G15G 3G18
  20791839.744   -17083870.13549 -13282672.07347  20791839.279    20791844.933
  22076076.288   -13180900.36149 -10248194.45146  22076076.001    22076083.305
  22634821.456   -10997899.00749  -8550650.12446  22634821.150    22634828.323
  23571929.676    -2738704.18849  -2513817.12545  23571929.113    23571938.768
  23727709.347    -2765544.67249  -2136505.97745  23727708.639    23727718.948
  24207152.149    -3075697.09649  -2385960.81145  24207151.847    24207162.616
  24040910.453    -7487747.28849  -5811119.60445  24040910.134    24040917.176
 03  3 29  3  5  0.0000000  0  7G14G25G11G31G15G 3G18
  20801246.966   -17034434.77949 -13244151.01047  20801246.536    20801252.231
  22060766.161   -13261355.33349 -10310886.54046  22060765.879    22060773.066
  22619809.395   -11076787.92749  -8612121.93346  22619809.042    22619816.083
  23585104.768    -2669468.51149  -2459867.26545  23585104.202    23585113.860
  23748566.828    -2655936.88449  -2051097.34145  23748566.170    23748576.582
  24223135.006    -2991706.67749  -2320513.81745  24223134.613    24223145.407
  24054831.809    -7414589.70849  -5754113.72445  24054831.557    24054838.581
 03  3 29  3  5 30.0000000  0  7G14G25G11G31G15G 3G18
  20810714.108   -16984685.44949 -13205385.29647  20810713.563    20810719.205
  22045516.107   -13341494.45849 -10373332.51346  22045515.837    22045523.075
  22604858.321   -11155356.43849  -8673344.06146  22604857.922    22604864.882
  23598326.892    -2599985.30249  -2405724.51745  23598326.368    23598336.065
  23769458.102    -2546151.65949  -1965550.47345  23769457.517    23769468.058
  24239120.225    -2907703.41749  -2255056.80045  24239119.716    24239130.602
  24068772.104    -7341333.62749  -5697031.10745  24068771.746    24068778.610
 03  3 29  3  6  0.0000000  0  7G14G25G11G31G15G 3G18
  20820240.089   -16934625.24349 -13166377.33447  20820239.588    20820245.320
  22030326.342   -13421316.33949 -10435531.28046  22030326.073    22030333.405
  22589968.495   -11233603.34149  -8734315.58446  22589968.080    22589974.942
  23611595.407    -2530258.89449  -2351392.27345  23611594.883    23611604.674
  23790382.826    -2436192.12049  -1879867.77445  23790382.301    23790392.762
  24255107.291    -2823691.11049  -2189592.74545  24255106.839    24255117.740
  24082731.154    -7267980.10149  -5639872.56545  24082730.493    24082737.349
 03  3 29  3  6 30.0000000  0  7G14G25G11G31G15G 3G18
  20829825.067   -16884255.88249 -13127128.48447  20829824.582    20829830.258
  22015197.409   -13500817.76149 -10497480.34446  22015197.197    22015204.699
  22575140.257   -11311526.17249  -8795034.56946  22575139.886    22575146.673
  23624909.724    -2460291.82149  -2296872.49945  23624909.156    23624918.987
  23811340.351    -2326060.05949  -1794050.63745  23811339.772    23811350.306
  24271095.700    -2739672.78749  -2124124.01145  24271095.150    24271106.146
  24096708.783    -7194529.02149  -5582638.01945  24096707.756    24096714.646
 03  3 29  3  7  0.0000000  0  7G14G25G11G31G15G 3G18
  20839468.657   -16833578.71049 -13087639.78147  20839468.136    20839473.811
  22000130.160   -13579995.91249 -10559177.50746  22000129.977    22000137.567
  22560374.288   -11389121.68449  -8855498.50446  22560373.918    22560380.618
  23638269.407    -2390086.38249  -2242166.98345  23638268.817    23638278.709
  23832330.441    -2215756.84849  -1708100.15445  23832329.851    23832340.464
  24287084.865    -2655650.28549  -2058652.01145  24287084.341    24287095.229
  24110704.833    -7120979.40949  -5525326.69745  24110703.627    24110710.474
 03  3 29  3  7 30.0000000  0  7G14G25G11G31G15G 3G18
  20849170.514   -16782595.21649 -13047912.38547  20849170.000    20849175.703
  21985125.130   -13658847.57149 -10620620.26846  21985124.935    21985132.525
  22545671.119   -11466386.98149  -8915705.14446  22545670.757    22545677.378
  23651673.986    -2319645.07349  -2187277.66745  23651673.377    23651683.236
  23853352.968    -2105283.75349  -1622017.27545  23853352.317    23853362.761
  24303074.410    -2571625.78449  -1993178.46545  24303073.941    24303084.575
  24124719.553    -7047330.67949  -5467938.15245  24124718.535    24124725.411
 03  3 29  3  8  0.0000000  0  7G14G25G11G31G15G 3G18
  20858930.143   -16731307.45449 -13007947.89447  20858929.624    20858935.451
  21970182.756   -13737370.31549 -10681806.74346  21970182.529    21970190.101
  22531031.234   -11543319.83549  -8975652.73746  22531030.832    22531037.461
  23665122.847    -2248970.94049  -2132206.95445  23665122.217    23665132.015
  23874407.282    -1994643.13649  -1535803.86845  23874406.712    23874416.806
  24319063.673    -2487602.06149  -1927705.51645  24319063.302    24319073.901
  24138753.011    -6973582.81449  -5410472.33245  24138752.220    24138759.204
 03  3 29  3  8 30.0000000  0  7G14G25G11G31G15G 3G18
  20868747.473   -16679717.23949 -12967747.73547  20868746.977    20868752.787
  21955303.522   -13815561.10349 -10742734.54346  21955303.260    21955310.904
  22516454.961   -11619917.60649  -9035339.23446  22516454.613    22516461.313
  23678615.504    -2178066.44249  -2076956.73745  23678614.966    23678624.677
  23895493.047    -1883836.63149  -1449461.20445  23895492.674    23895502.555
  24335052.149    -2403581.48249  -1862234.99545  24335051.844    24335062.572
  24152805.284    -6899735.61849  -5352929.12045  24152804.732    24152811.982
 03  3 29  3  9  0.0000000  0  7G14G25G11G31G15G 3G18
  20878622.073   -16627826.33449 -12927313.26647  20878621.481    20878627.296
  21940487.796   -13893417.61149 -10803401.86446  21940487.597    21940495.319
  22501942.845   -11696177.70249  -9094762.61646  22501942.580    22501949.442
  23692151.425    -2106934.70649  -2021529.43945  23692150.975    23692160.636
  23916610.027    -1772866.29849  -1362990.88245  23916609.626    23916619.395
  24351039.520    -2319566.86349  -1796769.13545  24351039.167    24351049.973
  24166876.557    -6825788.87449  -5295308.32745  24166876.270    24166883.598
 03  3 29  3  9 30.0000000  0  7G14G25G11G31G15G 3G18
  20888553.036   -16575638.06849 -12886647.08747  20888552.506    20888558.388
  21925735.944   -13970938.82049 -10863807.90746  21925735.779    21925743.533
  22487495.194   -11772098.90349  -9153921.92546  22487495.062    22487501.996
  23705729.769    -2035580.01849  -1965928.41445  23705729.385    23705738.923
  23937757.631    -1661735.63349  -1276395.59745  23937757.165    23937766.682
  24367025.129    -2235562.32949  -1731311.16445  24367024.949    24367035.500
  24180966.859    -6751743.57849  -5237610.73945  24180966.705    24180974.010
 03  3 29  3 10  0.0000000  0  7G14G25G11G31G15G 3G18
  20898540.251   -16523154.59249 -12845750.87647  20898539.762    20898545.639
  21911048.492   -14048122.10849 -10923950.64746  21911048.307    21911055.966
  22473112.553   -11847679.70449  -9212815.97446  22473112.458    22473119.283
  23719349.983    -1964005.52949  -1910156.11545  23719349.506    23719359.000
  23958935.494    -1550446.84549  -1189677.11345  23958934.905    23958944.078
  24383008.292    -2151570.63049  -1665863.20245  24383008.105    24383018.563
  24195075.926    -6677600.12749  -5179836.69045  24195075.698    24195083.132
 03  3 29  3 10 30.0000000  0  7G14G25G11G31G15G 3G18
  20908583.361   -16470377.90349 -12804626.19247  20908582.919    20908588.676
  21896425.856   -14124964.76249 -10983827.96546  21896425.630    21896433.192
  22458795.474   -11922917.16049  -9271442.49246  22458795.269    22458801.991
  23733011.607    -1892214.04249  -1854214.73445  23733011.038    23733020.460
  23980142.976    -1439001.81149  -1102836.87245  23980142.302    23980151.268
  24398988.613    -2067594.51049  -1600427.33545  24398988.242    24398998.866
  24209203.609    -6603358.28149  -5121985.97145  24209203.377    24209210.898
 03  3 29  3 11  0.0000000  0  7G14G25G11G31G15G 3G18
  20918681.996   -16417309.95549 -12763274.54947  20918681.428    20918687.107
  21881868.361   -14201464.19849 -11043437.83346  21881868.138    21881875.675
  22444544.255   -11997808.79149  -9329799.53146  22444543.945    22444550.646
  23746713.916    -1820208.47949  -1798106.54645  23746713.273    23746722.668
  24001379.691    -1327402.82949  -1015876.68545  24001379.031    24001387.857
  24414965.393    -1983636.36849  -1535005.48845  24414964.951    24414975.671
  24223350.089    -6529017.78249  -5064058.37145  24223349.894    24223357.403
 03  3 29  3 11 30.0000000  0  7G14G25G11G31G15G 3G18
  20928835.431   -16363952.28149 -12721697.13647  20928834.959    20928840.766
  21867376.621   -14277617.98349 -11102778.37046  21867376.401    21867383.988
  22430359.153   -12072352.24049  -9387885.28746  22430358.776    22430365.559
  23760456.379    -1747991.64349  -1741833.72045  23760455.719    23760465.087
  24022645.533    -1215651.48449   -928797.78445  24022644.838    24022653.594
  24430938.244    -1899698.76049  -1469599.66045  24430937.883    24430948.460
  24237514.955    -6454578.33448  -5006053.66745  24237514.979    24237522.992
 03  3 29  3 12  0.0000000  0  7G14G25G11G31G15G 3G18
  20939043.999   -16310306.31349 -12679895.09347  20939043.502    20939049.319
  21852951.306   -14353422.84849 -11161847.01247  21852951.087    21852958.722
  22416240.811   -12146544.10749  -9445697.07846  22416240.450    22416247.329
  23774238.461    -1675565.78649  -1685398.03445  23774237.857    23774247.333
  24043939.989    -1103749.12249   -841601.22245  24043939.218    24043947.820
  24446906.714    -1815783.72949  -1404211.42245  24446906.479    24446917.107
  24251698.592    -6380039.32948  -4947971.37044  24251699.038    24251707.561
 03  3 29  3 12 30.0000000  0  7G14G25G11G31G15G 3G18
  20949307.011   -16256374.01049 -12637869.92447  20949306.517    20949312.240
  21838592.984   -14428875.95749 -11220641.55947  21838592.777    21838600.396
  22402189.669   -12220382.36749  -9503233.31546  22402189.367    22402196.201
  23788059.729    -1602933.80849  -1628801.73645  23788059.150    23788068.836
  24065262.674     -991697.89849   -754288.65445  24065261.876    24065270.490
  24462870.204    -1731894.32149  -1338843.10645  24462869.888    24462881.107
  24265901.465    -6305400.32748  -4889811.20144  24265902.316    24265911.066
 03  3 29  3 13  0.0000000  0  7G14G25G11G31G15G 3G18
  20959624.128   -16202157.31549 -12595623.15347  20959623.605    20959629.313
  21824302.109   -14503975.31549 -11279160.46047  21824301.840    21824309.350
  22388206.242   -12293864.65649  -9560492.17146  22388206.008    22388212.782
  23801919.841    -1530098.83249  -1572047.21845  23801919.134    23801928.949
  24086613.266     -879499.88449   -666861.70045  24086612.594    24086621.230
  24478828.617    -1648032.75449  -1273496.47845  24478828.239    24478839.653
  24280123.946    -6230661.58549  -4831573.25444  24280124.759    24280133.433
 03  3 29  3 13 30.0000000  0  7G14G25G11G31G15G 3G18
  20969994.266   -16147661.46349 -12553158.84847  20969993.795    20969999.568
  21810078.337   -14578721.58749 -11337404.24747  21810078.067    21810085.439
  22374290.481   -12366991.53649  -9617474.09846  22374290.241    22374297.072
  23815817.314    -1457066.88349  -1515139.25545  23815816.673    23815826.516
  24107990.859     -767160.16149   -579324.28845  24107990.296    24107998.993
  24494780.777    -1564204.95349  -1208176.20845  24494780.576    24494791.574
  24294365.497    -6155826.07449  -4773259.92544  24294365.480    24294374.396
 03  3 29  3 14  0.0000000  0  7G14G25G11G31G15G 3G18
  20980417.620   -16092887.31749 -12510477.70247  20980417.099    20980422.795
  21795922.419   -14653110.96949 -11395369.92247  21795922.177    21795929.451
  22360442.980   -12439759.90149  -9674176.67446  22360442.748    22360449.647
  23829751.793    -1383839.84649  -1458079.26045  23829750.958    23829761.224
  24129395.243     -654679.73749   -491677.25945  24129394.697    24129403.625
  24510726.073    -1480412.45349  -1142883.47545  24510725.738    24510736.481
  24308625.825    -6080892.51649  -4714870.17644  24308625.447    24308633.536
 03  3 29  3 14 30.0000000  0  7G14G25G11G31G15G 3G18
  20990893.545   -16037835.65549 -12467580.29947  20990893.047    20990898.830
  21781835.210   -14727139.73349 -11453054.59747  21781834.930    21781842.104
  22346664.537   -12512166.22349  -9730597.12046  22346664.297    22346671.202
  23843723.022    -1310419.59049  -1400868.71345  23843722.304    23843732.558
  24150826.112     -542059.91849   -403921.63245  24150825.581    24150834.739
  24526664.072    -1396656.98849  -1077619.58544  24526663.974    24526674.259
  24322904.691    -6005859.95549  -4656403.25244  24322904.252    24322911.795
 03  3 29  3 15  0.0000000  0  7G14G25G11G31G15G 3G18
  21001422.042   -15982508.12149 -12424467.94047  21001421.558    21001427.209
  21767817.006   -14800805.51149 -11510456.42647  21767816.704    21767823.835
  22332955.642   -12584207.75649  -9786733.31346  22332955.366    22332962.134
  23857730.713    -1236808.76649  -1343509.66445  23857730.297    23857740.305
  24172283.295     -429301.98649   -316058.35845  24172282.837    24172292.178
  24542594.586    -1312940.78249  -1012386.20244  24542594.555    24542605.042
  24337201.972    -5930727.72749  -4597858.68844  24337201.805    24337209.286
 03  3 29  3 15 30.0000000  0  7G14G25G11G31G15G 3G18
  21012002.716   -15926907.10749 -12381142.48147  21012002.114    21012007.606
  21753868.200   -14874105.96749 -11567573.58447  21753867.961    21753875.079
  22319316.572   -12655882.61349  -9842583.79246  22319316.229    22319322.752
  23871774.271    -1163010.64649  -1286004.67245  23871773.805    23871783.472
  24193766.524     -316408.38749   -228089.38745  24193765.984    24193775.393
  24558517.322    -1229266.75049   -947185.72745  24558517.013    24558528.074
  24351517.842    -5855496.13749  -4539236.73145  24351517.895    24351525.638
 03  3 29  3 16  0.0000000  0  7G14G25G11G31G15G 3G18
  21022634.878   -15871034.16549 -12337605.11347  21022634.353    21022639.947
  21739989.604   -14947038.22949 -11624403.84047  21739989.358    21739996.462
  22305747.668   -12727188.14249  -9898146.47246  22305747.293    22305753.643
  23885852.833    -1089027.93549  -1228355.84545  23885852.528    23885862.101
  24215275.374     -203380.98349   -140016.13045  24215274.554    24215283.965
  24574431.504    -1145637.34349   -882020.05545  24574431.244    24574442.445
  24365852.772    -5780164.94249  -4480537.13445  24365852.901    24365860.911
 03  3 29  3 16 30.0000000  0  7G14G25G11G31G15G 3G18
  21033318.452   -15814891.58649 -12293857.64847  21033317.937    21033323.595
  21726181.364   -15019600.90049 -11680946.11147  21726181.098    21726188.180
  22292249.233   -12798122.17949  -9953419.68246  22292248.897    22292255.213
  23899965.882    -1014863.97949  -1170565.76445  23899965.628    23899975.136
  24236808.993      -90222.49149    -51840.74345  24236808.097    24236817.529
  24590336.586    -1062055.57149   -816891.49645  24590336.235    24590347.429
  24380206.769    -5704734.21649  -4421760.00745  24380206.835    24380215.080
 03  3 29  3 17  0.0000000  0  7G14G25G11G31G15G 3G18
  21044052.971   -15758481.67049 -12249901.87647  21044052.406    21044057.952
  21712443.839   -15091791.58749 -11737198.52247  21712443.598    21712450.612
  22278821.890   -12868682.68949 -10008401.83046  22278821.543    22278827.983
  23914112.740     -940521.88149  -1112636.91645  23914112.515    23914122.053
  24258367.117       23065.14449     36435.27945  24258366.192    24258375.584
  24606232.172     -978523.84849   -751801.92545  24606231.860    24606243.212
  24394579.812    -5629204.19649  -4362905.49345  24394579.514    24394588.009
 03  3 29  3 17 30.0000000  0  7G14G25G11G31G15G 3G18
  21054837.961   -15701805.93349 -12205738.96347  21054837.389    21054842.863
  21698777.617   -15163607.71449 -11793159.06647  21698777.399    21698784.346
  22265466.135   -12938867.34349 -10063091.11546  22265465.759    22265472.309
  23928293.034     -866004.49649  -1054571.47744  23928292.638    23928302.114
  24279949.462      136479.88249    124810.33945  24279948.362    24279957.877
  24622117.933     -895044.82649   -686753.44945  24622117.652    24622128.923
  24408971.715    -5553574.77549  -4303973.53145  24408971.391    24408979.928
 03  3 29  3 18  0.0000000  0  7G14G25G11G31G15G 3G18
  21065673.005   -15644866.87149 -12161370.86747  21065672.478    21065678.031
  21685183.205   -15235046.78949 -11848825.81247  21685182.950    21685189.854
  22252182.248   -13008674.12449 -10117485.94146  22252181.875    22252188.501
  23942505.992     -791315.22949   -996372.11744  23942505.599    23942515.105
  24301555.349      250019.11949    213282.40345  24301554.234    24301563.905
  24637992.856     -811621.56949   -621748.41945  24637992.353    24638003.720
  24423382.399    -5477846.16849  -4244964.29245  24423382.094    24423390.758
 03  3 29  3 18 30.0000000  0  7G14G25G11G31G15G 3G18
  21076558.075   -15587665.84949 -12116798.64747  21076557.493    21076563.134
  21671661.026   -15306106.10249 -11904196.64947  21671660.742    21671667.703
  22238970.835   -13078099.86549 -10171583.86646  22238970.521    22238977.144
  23956751.251     -716456.13649   -938040.40144  23956750.667    23956760.288
  24323184.324      363681.53449    301850.45945  24323183.360    24323193.346
  24653856.917     -728255.74549   -556788.12445  24653856.549    24653867.771
  24437812.195    -5402017.67849  -4185877.21145  24437811.815    24437820.660
 03  3 29  3 19  0.0000000  0  7G14G25G11G31G15G 3G18
  21087492.346   -15530205.27049 -12072024.16347  21087491.823    21087497.476
  21658211.341   -15376783.88649 -11959270.16947  21658211.103    21658218.160
  22225832.288   -13147143.16449 -10225383.76846  22225831.967    22225838.532
  23971027.992     -641431.09749   -879579.39244  23971027.613    23971036.758
  24344836.178      477464.52049    390512.45045  24344835.342    24344845.654
  24669709.559     -644950.94849   -491875.39245  24669709.215    24669720.476
  24452260.928    -5326089.73649  -4126712.62545  24452260.612    24452269.446
 03  3 29  3 19 30.0000000  0  7G14G25G11G31G15G 3G18
  21098475.795   -15472486.81049 -12027048.74447  21098475.280    21098480.818
  21644834.842   -15447077.69449 -12014044.50347  21644834.583    21644841.716
  22212767.121   -13215801.41649 -10278883.63746  22212766.742    22212773.177
  23985335.905     -566242.81748   -820991.15644  23985335.417    23985344.617
  24366510.627      591366.03349    479266.81845  24366509.957    24366520.692
  24685549.931     -561709.45549   -427012.00345  24685549.540    24685561.016
  24466728.623    -5250062.15249  -4067470.42845  24466728.346    24466737.042
 03  3 29  3 20  0.0000000  0  7G14G25G11G31G15G 3G18
  21109507.937   -15414512.50749 -11981873.96147  21109507.432    21109512.920
  21631531.718   -15516985.54949 -12068518.08647  21631531.463    21631538.666
  22199775.608   -13284072.66949 -10332081.96446  22199775.195    22199781.574
  23999674.056     -490894.32948   -762278.07444  23999673.930    23999682.925
  24388207.502      705383.80349    568111.75745  24388206.895    24388217.534
  24701377.602     -478534.00949   -362200.05645  24701376.933    24701388.733
  24481215.258    -5173934.74749  -4008150.42345  24481215.018    24481223.638
 03  3 29  3 20 30.0000000  0  7G14G25G11G31G15G 3G18
  21120588.311   -15356285.30249 -11936502.11847  21120587.781    21120593.260
  21618302.361   -15586505.74249 -12122689.60247  21618302.141    21618309.379
  22186857.904   -13351955.41749 -10384977.54046  22186857.498    22186863.905
  24014042.113     -415389.48148   -703443.17044  24014042.365    24014051.361
  24409926.071      819514.79749    657044.93145  24409925.211    24409936.107
  24717192.432     -395427.87449   -297442.15145  24717191.713    24717203.373
  24495720.820    -5097708.53049  -3948753.41545  24495720.655    24495728.956
 03  3 29  3 21  0.0000000  0  7G14G25G11G31G15G 3G18
  21131716.486   -15297806.39549 -11890934.13647  21131715.918    21131721.532
  21605147.353   -15655635.23449 -12176556.67647  21605147.128    21605154.345
  22174014.613   -13419446.71549 -10437568.10646  22174014.249    22174020.725
  24028439.782     -339730.55349   -644488.20244  24028439.757    24028448.782
  24431665.717      933757.82149    746065.37745  24431664.801    24431675.969
  24732993.634     -312392.81949   -232739.63845  24732992.896    24733004.663
  24510245.278    -5021382.76148  -3889278.85145  24510245.081    24510253.224
 03  3 29  3 21 30.0000000  0  7G14G25G11G31G15G 3G18
  21142891.952   -15239078.16649 -11845171.87747  21142891.481    21142897.120
  21592067.105   -15724371.99749 -12230117.72747  21592066.903    21592074.034
  22161246.289   -13486544.32049 -10489851.87946  22161245.949    22161252.448
  24042866.018     -263920.71548   -585415.66044  24042865.780    24042875.295
  24453426.213     1048110.56049    835171.32345  24453425.217    24453436.763
  24748780.596     -229431.80549   -168094.79145  24748780.056    24748791.811
  24524788.391    -4944957.60648  -3829726.87545  24524788.064    24524796.501
 03  3 29  3 22  0.0000000  0  7G14G25G11G31G15G 3G18
  21154114.944   -15180101.33949 -11799215.91247  21154114.451    21154120.004
  21579062.254   -15792712.72249 -12283370.17947  21579062.066    21579069.106
  22148553.490   -13553245.20349 -10541826.53046  22148553.136    22148559.653
  24057320.502     -187962.07048   -526227.17044  24057320.275    24057329.890
  24475207.248     1162571.88049    924361.89244  24475206.208    24475218.339
  24764553.298     -146546.59449   -103509.03245  24764552.756    24764564.314
  24539350.242    -4868432.22948  -3770096.79844  24539349.923    24539358.848
 03  3 29  3 22 30.0000000  0  7G14G25G11G31G15G 3G18
  21165384.898   -15120877.96849 -11753067.83947  21165384.330    21165389.891
  21566133.277   -15860655.42349 -12336312.48647  21566133.066    21566139.968
  22135936.544   -13619547.53249 -10593490.61346  22135936.170    22135942.663
  24071802.843     -111857.68448   -466925.08744  24071802.397    24071811.802
  24497008.366     1277139.42449   1013635.23344  24497007.484    24497019.992
  24780310.953      -63739.56148    -38984.19345  24780310.598    24780321.979
  24553931.253    -4791806.65648  -3710388.62044  24553931.127    24553939.974
 03  3 29  3 23  0.0000000  0  6G14G25G11G31G15G18
  21176701.463   -15061408.04449 -11706727.63547  21176700.935    21176706.678
  21553280.869   -15928195.90349 -12388941.37447  21553280.604    21553287.445
  22123396.205   -13685446.67249 -10644840.51146  22123395.862    22123402.340
  24086312.695      -35608.52048   -407510.25144  24086312.253    24086321.537
  24518829.862     1391813.05149   1102991.22944  24518829.017    24518841.961
  24568532.129    -4715078.55948  -3650600.54944  24568531.819    24568540.918
 03  3 29  3 23 30.0000000  0  6G14G25G11G31G15G18
  21188064.027   -15001697.03849 -11660199.57847  21188063.579    21188069.339
  21540504.597   -15995335.42149 -12441257.82347  21540504.339    21540511.237
  22110932.277   -13750944.37649 -10695877.61946  22110931.970    22110938.442
  24100848.736       40778.75448   -347987.72144  24100848.159    24100857.437
  24540670.787     1506587.03249   1192425.43844  24540670.067    24540682.897
  24583151.975    -4638252.18349  -3590735.88544  24583151.688    24583160.556
 03  3 29  3 24  0.0000000  0  6G14G25G11G31G15G18
  21199472.041   -14941748.00549 -11613486.04747  21199471.491    21199477.222
  21527804.730   -16062073.16149 -12493261.19247  21527804.491    21527811.534
  22098545.127   -13816039.03149 -10746600.65246  22098544.766    22098551.196
  24115410.198      117300.14648   -288360.67944  24115409.717    24115418.862
  24562530.457     1621458.26049   1281935.41445  24562529.543    24562541.993
  24597790.337    -4561327.96849  -3530794.98344  24597790.223    24597798.773
 03  3 29  3 24 30.0000000  0  5G14G25G11G31G15
  21210924.608   -14881564.67849 -11566589.95747  21210924.053    21210929.726
  21515181.406   -16128408.68149 -12544951.13847  21515181.180    21515188.324
  22086234.697   -13880730.61549 -10797009.60946  22086234.358    22086240.637
  24129996.473      193950.83948   -228632.85144  24129995.881    24130005.397
  24584407.948     1736422.86449   1371518.15745  24584406.978    24584419.080
 03  3 29  3 25  0.0000000  0  5G14G25G11G31G15
  21222421.442   -14821148.90849 -11519512.73647  21222420.854    21222426.484
  21502635.296   -16194339.27349 -12596325.56547  21502635.025    21502642.121
  22074001.351   -13945016.88349 -10847102.73346  22074001.028    22074007.232
  24144606.734      270727.96948   -168806.52544  24144606.246    24144615.833
  24606302.893     1851478.58949   1461171.89245  24606301.751    24606313.397
 03  3 29  3 25 30.0000000  0  5G14G25G11G31G15
  21233962.980   -14760497.13749 -11472251.61947  21233962.474    21233968.081
  21490167.605   -16259857.67249 -12647378.81447  21490167.317    21490174.332
  22061846.531   -14008890.33049 -10896874.19146  22061846.222    22061852.434
  24159241.504      347634.03248   -108879.72344  24159241.216    24159251.013
  24628215.766     1966628.65349   1550899.13545  24628214.611    24628225.628
 03  3 29  3 26  0.0000000  0  5G14G25G11G31G15
  21245549.081   -14699611.99949 -11424808.66647  21245548.563    21245554.103
  21477778.599   -16324962.55949 -12698109.83947  21477778.283    21477785.241
  22049770.580   -14072349.34549 -10946322.73146  22049770.262    22049776.564
  24173900.066      424665.30948    -48855.42144  24173899.918    24173909.325
  24650145.701     2081870.28849   1640697.72945  24650144.390    24650155.138
 03  3 29  3 26 30.0000000  0  5G14G25G11G31G15
  21257179.083   -14638495.88849 -11377185.72047  21257178.581    21257184.164
  21465468.622   -16389652.06449 -12748517.19447  21465468.276    21465475.185
  22037773.876   -14135391.98349 -10995446.81546  22037773.547    22037779.909
  24188581.841      501818.42649     11263.84644  24188581.503    24188590.912
  24672092.529     2197201.30849   1730565.98945  24672091.216    24672101.739
 03  3 29  3 27  0.0000000  0  4G14G25G11G31
  21268852.544   -14577151.08249 -11329384.57747  21268852.070    21268857.686
  21453237.908   -16453924.59149 -12798599.62847  21453237.553    21453244.411
  22025856.807   -14198016.63249 -11044245.19946  22025856.497    22025862.838
  24203286.117      579089.93148     71475.36744  24203285.665    24203295.299
 03  3 29  3 27 30.0000000  0  4G14G25G11G31
  21280569.313   -14515578.97749 -11281406.31847  21280568.839    21280574.464
  21441087.040   -16517777.24049 -12848354.88247  21441086.725    21441093.635
  22014019.713   -14260221.12549 -11092716.18046  22014019.401    22014025.696
  24218012.277      656477.18548    131777.07144  24218011.929    24218021.594
 03  3 29  3 28  0.0000000  0  4G14G25G11G31
  21292329.106   -14453780.77049 -11233251.86947  21292328.627    21292334.273
  21429016.528   -16581207.79749 -12897781.23547  21429016.221    21429023.142
  22002263.185   -14322002.36049 -11140857.35846  22002262.841    22002269.073
  24232760.094      733977.98048    192167.25644  24232759.670    24232770.077
 03  3 29  3 28 30.0000000  0  4G14G25G11G31
  21304131.161   -14391760.90149 -11184924.70447  21304130.657    21304136.269
  21417026.326   -16644216.17649 -12946878.61847  21417026.052    21417032.997
  21990587.108   -14383360.62049 -11188668.94046  21990586.753    21990593.001
  24247528.847      811586.92248    252641.68744  24247528.166    24247538.830
 03  3 29  3 29  0.0000000  0  4G14G25G11G31
  21315974.844   -14329521.91449 -11136426.79347  21315974.318    21315980.015
  21405116.736   -16706800.93349 -12995645.90647  21405116.496    21405123.480
  21978991.707   -14444294.68949 -11236149.99046  21978991.381    21978997.573
  24262317.432      889300.40048    313197.55544  24262316.317    24262327.208
 03  3 29  3 29 30.0000000  0  4G14G25G11G31
  21327860.300   -14267063.00349 -11087757.51147  21327859.840    21327865.562
  21393288.534   -16768958.01749 -13044079.93947  21393288.275    21393295.361
  21967477.964   -14504799.77849 -11283296.75846  21967477.592    21967483.808
  24277125.474      967117.90848    373834.51044  24277124.816    24277135.294
 03  3 29  3 30  0.0000000  0  4G14G25G11G31
  21339787.090   -14204387.15449 -11038919.18447  21339786.603    21339792.292
  21381541.905   -16830685.86949 -13092179.50547  21381541.697    21381548.854
  21956046.006   -14564874.58849 -11330108.25446  21956045.656    21956051.894
  24291952.644     1045035.65948    434549.59744  24291952.013    24291962.344
 03  3 29  3 30 30.0000000  0  4G14G25G11G31
  21351754.732   -14141496.67349 -10989913.62047  21351754.268    21351760.006
  21369877.459   -16891982.92149 -13139943.38547  21369877.222    21369884.295
  21944696.186   -14624517.70149 -11376583.36746  21944695.833    21944702.127
  24306798.333     1123050.16548    495340.06944  24306797.665    24306807.629
 03  3 29  3 31  0.0000000  0  4G14G25G11G31
  21363762.975   -14078392.91149 -10940741.85547  21363762.465    21363768.342
  21358295.324   -16952846.98649 -13187369.87447  21358295.120    21358302.097
  21933429.033   -14683726.84049 -11422720.31246  21933428.663    21933434.899
  24321662.018     1201158.94148    556204.02644  24321661.244    24321671.164
 03  3 29  3 31 30.0000000  0  4G14G25G11G31
  21375811.231   -14015079.41249 -10891406.66047  21375810.704    21375816.533
  21346795.759   -17013277.68649 -13234458.68147  21346795.521    21346802.424
  21922244.633   -14742501.14249 -11468518.42246  21922244.256    21922250.431
  24336542.926     1279357.35848    617137.79244  24336541.680    24336551.674
 03  3 29  3 32  0.0000000  0  4G14G25G11G31
  21387899.195   -13951557.35849 -10841908.96147  21387898.616    21387904.305
  21335379.131   -17073272.35149 -13281207.71547  21335378.875    21335385.737
  21911143.537   -14800838.19149 -11513975.80546  21911143.171    21911149.187
  24351440.421     1357643.19348    678139.69444  24351439.461    24351448.701
 03  3 29  3 32 30.0000000  0  4G14G25G11G31
  21400026.514   -13887827.34949 -10792249.21247  21400025.990    21400031.666
  21324045.983   -17132827.83649 -13327614.52847  21324045.780    21324052.679
  21900126.231   -14858734.73649 -11559089.94246  21900125.838    21900131.720
  24366354.080     1436014.66848    739208.33244  24366353.053    24366363.432
 03  3 29  3 33  0.0000000  0  4G14G25G11G31
  21412193.062   -13823890.81349 -10742428.52847  21412192.667    21412198.446
  21312796.999   -17191941.41949 -13373677.01147  21312796.798    21312803.643
  21889193.190   -14916188.13149 -11603858.76246  21889192.818    21889198.603
  24381283.435     1514469.28148    800341.75244  24381283.650    24381293.393
 03  3 29  3 33 30.0000000  0  4G14G25G11G31
  21424398.925   -13759749.46649 -10692448.27347  21424398.438    21424404.094
  21301632.385   -17250611.45849 -13419393.87047  21301632.187    21301638.995
  21878344.779   -14973196.35249 -11648280.69746  21878344.417    21878350.211
  24396227.813     1593004.38048    861537.98844  24396227.132
 03  3 29  3 34  0.0000000  0  4G14G25G11G31
  21436642.593   -13695408.20149 -10642312.22747  21436642.092    21436647.829
  21290551.955   -17308839.34849 -13464766.19747  21290551.758    21290558.553
  21867580.737   -15029760.60249 -11692356.67946  21867580.370    21867586.344
  24411186.966     1671613.50448    922791.74344  24411186.486    24411197.056
 03  3 29  3 34 30.0000000  0  4G14G25G11G31
  21448924.137   -13630867.72449 -10592020.94347  21448923.729    21448929.553
  21279556.294   -17366621.77149 -13509791.40747  21279556.060    21279562.839
  21856901.833   -15085877.60349 -11736084.16846  21856901.482    21856907.561
  24426159.598     1750295.15248    984101.97044  24426159.330    24426170.166
 03  3 29  3 35  0.0000000  0  4G14G25G11G31
  21461243.583   -13566129.23749 -10541575.37447  21461243.080    21461248.841
  21268645.928   -17423955.90549 -13554467.30647  21268645.703    21268652.424
  21846308.736   -15141544.71949 -11779461.08846  21846308.435    21846314.416
  24441145.779     1829047.15648   1045467.05644  24441145.865    24441155.406
 03  3 29  3 35 30.0000000  0  4G14G25G11G31
  21473600.329   -13501195.21449 -10490977.45047  21473599.756    21473605.436
  21257821.118   -17480840.68449 -13598793.05847  21257820.877    21257827.496
  21835801.590   -15196760.63749 -11822486.42847  21835801.259    21835807.120
  24456144.572     1907865.88648   1106884.18744  24456144.847
 03  3 29  3 36  0.0000000  0  4G14G25G11G31
  21485994.080   -13436066.12449 -10440227.50647  21485993.436    21485999.223
  21247082.367   -17537273.03449 -13642766.27247  21247082.111    21247088.717
  21825380.867   -15251522.24949 -11865157.75747  21825380.513    21825386.278
  24471155.504     1986749.60158   1168351.94044  24471155.430
 03  3 29  3 36 30.0000000  0  4G14G25G11G31
  21498424.473   -13370743.17049 -10389326.50647  21498423.981    21498429.714
  21236430.118   -17593250.45349 -13686384.98847  21236429.896    21236436.493
  21815046.949   -15305827.18649 -11907473.24346  21815046.568    21815052.367
                   2065695.83548   1229868.52643
 03  3 29  3 37  0.0000000  0  4G14G25G11G31
  21510891.066   -13305230.68049 -10338277.82447  21510890.570    21510896.279
  21225864.395   -17648773.69349 -13729649.80147  21225864.150    21225870.651
  21804799.767   -15359675.80949 -11949433.16546  21804799.382    21804805.243
                   2144699.41348  -5545632.25743
 03  3 29  3 37 30.0000000  0  4G14G25G11G31
  21523393.497   -13239530.45849 -10287082.85447  21523392.975    21523398.646
  21215385.385   -17703841.16249 -13772559.46447  21215385.135    21215391.621
  21794639.810   -15413066.17349 -11991035.99546  21794639.415    21794645.322
                   2223757.51648  -5484003.43343
 03  3 29  3 38  0.0000000  0  4G14G25G11G31
  21535931.437   -13173642.82249 -10235741.84347  21535930.876    21535936.613
  21204993.754   -17758449.24649 -13815111.16447  21204993.538    21205000.014
  21784567.853   -15465994.68049 -12032278.93647  21784567.478    21784573.352
                   2302868.62848  -5422270.41443
 03  3 29  3 38 30.0000000  0  4G14G25G11G31
  21548504.919   -13107567.80049 -10184254.82647  21548504.461    21548510.248
  21194690.202   -17812594.77749 -13857302.43747  21194689.981    21194696.443
  21774584.450   -15518458.29349 -12073159.63547  21774584.059    21774589.897
                   2382031.28548  -5592033.73243
 03  3 29  3 39  0.0000000  0  4G14G25G11G31
  21561113.684   -13041308.54949 -10132624.24847  21561113.162    21561118.807
  21184474.754   -17866277.30749 -13899132.92747  21184474.523    21184481.026
  21764689.659   -15570456.24249 -12113677.47747  21764689.209    21764695.062
                   2461241.34248  -5530307.95643
 03  3 29  3 39 30.0000000  0  4G14G25G11G31
  21573756.971   -12974867.07849 -10080851.69147  21573756.479    21573762.166
  21174347.617   -17919495.67249 -13940601.73647  21174347.364    21174353.899
  21754883.705   -15621986.81049 -12153831.13147  21754883.268    21754889.118
                   2540496.04748  -5468532.13043
 03  3 29  3 40  0.0000000  0  4G14G25G11G31
  21586434.549   -12908245.91849 -10028939.11147  21586434.093    21586439.837
  21164308.934   -17972248.93449 -13981708.13247  21164308.694    21164315.202
  21745166.838   -15673048.98849 -12193619.79147  21745166.415    21745172.257
                   2619791.320 8   1214481.339 1
 03  3 29  3 40 30.0000000  0  4G14G25G11G31
  21599146.071   -12841445.65549  -9976886.96347  21599145.683    21599151.462
  21154359.465   -18024533.80249 -14022449.54047  21154359.222    21154365.653
  21735539.698   -15723639.83149 -12233041.18147  21735539.319    21735545.052
                   2699125.55348  -5576659.41443
 03  3 29  3 41  0.0000000  0  4G14G25G11G31
  21611891.506   -12774468.63549  -9924697.08847  21611891.079    21611896.776
  21144499.252   -18076349.34549 -14062825.24447  21144499.008    21144505.410
  21726002.442   -15773758.13949 -12272094.36247  21726002.092    21726007.754
                   2778495.24748  -5514810.04843
 03  3 29  3 41 30.0000000  0  4G14G25G11G31
  21624669.511   -12707319.96649  -9872373.45447  21624669.063    21624674.776
  21134728.067   -18127697.12249 -14102836.45047  21134727.832    21134734.179
  21716554.813   -15823405.37849 -12310780.47647  21716554.472    21716560.101
                   2857894.23748  -5452937.79243
 03  3 29  3 42  0.0000000  0  4G14G25G11G31
  21637480.214   -12639999.94949  -9819916.30547  21637479.754    21637485.418
  21125046.481   -18178574.12249 -14142480.81547  21125046.225    21125052.548
  21707197.403   -15872578.51849 -12349097.16247  21707197.060    21707202.721
                   2937321.11848  -5621784.48343
 03  3 29  3 42 30.0000000  0  5G14G25G20G11G31
  21650322.595   -12572513.36149  -9767329.35347  21650322.014    21650327.738
  21115454.168   -18228981.94649 -14181759.59447  21115453.945    21115460.276
  24726820.638    -1397039.42949  -1073244.36945  24726819.400    24726831.198
  21697929.998   -15921278.88149 -12387045.45747  21697929.646    21697935.393
                   3016769.76948  -5559878.98543
 03  3 29  3 43  0.0000000  0  5G14G25G20G11G31
  21663196.132   -12504861.90749  -9714613.93147  21663195.662    21663201.522
  21105951.526   -18278918.85849 -14220671.42847  21105951.274    21105957.662
  24710505.594    -1482776.45449  -1140052.28245  24710504.793    24710516.020
  21688752.994   -15969504.30349 -12424623.66647  21688752.629    21688758.441
                   3096237.43748  -5497958.62943
 03  3 29  3 43 30.0000000  0  5G14G25G20G11G31
  21676102.324   -12437039.61049  -9661765.37947  21676101.827    21676107.611
  21096540.155   -18328375.66049 -14259209.14647  21096539.909    21096546.355
  24694184.413    -1568545.49149  -1206885.17345  24694183.681    24694194.331
  21679668.052   -16017245.73349 -12461824.73547  21679667.649    21679673.518
                   3175728.92648  -5666934.70543
 03  3 29  3 44  0.0000000  0  5G14G25G20G11G31
  21689040.527   -12369049.16249  -9608785.82247  21689040.010    21689045.640
  21087220.274   -18377351.74449 -14297372.28247  21087220.012    21087226.524
  24677857.269    -1654346.91649  -1273743.26445  24677856.385    24677866.763
  21670675.314   -16064502.23249 -12498647.94147  21670674.904    21670680.844
                   3255240.56748  -5605110.44843
 03  3 29  3 44 30.0000000  0  5G14G25G20G11G31
  21702009.961   -12300893.33449  -9555677.37547  21702009.562    21702015.268
  21077992.016   -18425846.50649 -14335160.36447  21077991.740    21077998.238
  24661523.073    -1740181.31849  -1340627.03544  24661522.344    24661532.627
  21661774.993   -16111273.00049 -12535092.65747  21661774.606    21661780.551
                   3334768.53848  -5543276.01443
 03  3 29  3 45  0.0000000  0  5G14G25G20G11G31
  21715010.846   -12232573.03649  -9502440.78147  21715010.461    21715016.237
  21068855.692   -18473858.15349 -14372572.00047  21068855.445    21068861.857
  24645183.011    -1826047.60849  -1407535.65444  24645182.465    24645192.762
  21652967.645   -16157555.82449 -12571157.14647  21652967.262    21652973.107
                   3414310.55048  -5713267.16243
 03  3 29  3 45 30.0000000  0  5G14G25G20G11G31
  21728042.476   -12164091.35849  -9449078.43247  21728042.069    21728047.861
  21059811.354   -18521386.29049 -14409606.87447  21059811.096    21059817.443
  24628837.059    -1911946.44149  -1474469.63844  24628836.392    24628846.415
  21644253.262   -16203350.54749 -12606841.30347  21644252.856    21644258.555
                   3493862.26448  -5651277.43143
 03  3 29  3 46  0.0000000  0  5G14G25G20G11G31
  21741104.563   -12095450.30349  -9395591.89547  21741104.077    21741109.736
  21050859.194   -18568429.53749 -14446263.90347  21050858.964    21050865.327
  24612484.740    -1997877.65748  -1541428.84444  24612483.523    24612494.012
  21635632.017   -16248655.69849 -12642143.97447  21635631.584    21635637.201
                   3573420.62849  -5589282.70443
 03  3 29  3 46 30.0000000  0  5G14G25G20G11G31
  21754196.537   -12026652.49549  -9341983.22447  21754195.923    21754201.434
  21041999.461   -18614987.33049 -14482542.66347  21041999.257    21042005.632
  24596125.847    -2083841.40849  -1608413.38844  24596124.758    24596135.069
  21627104.072   -16293470.19249 -12677064.31947  21627103.678    21627109.260
                   3652981.96149  -5759605.20643
